<?xml version="1.0" encoding="UTF-8" standalone="no" ?>
<gpx xmlns="http://www.topografix.com/GPX/1/1" xmlns:xsi="http://www.w3.org/2001/XMLSchema-instance" xsi:schemaLocation="http://www.topografix.com/GPX/1/1 http://www.topografix.com/GPX/1/1/gpx.xsd" version="1.1" creator="VisuGPX - https://www.visugpx.com">
  <metadata>
    <name>Passerelles du drac</name>
    <desc><![CDATA[Singles et passerelles autour du lac de monteynard
(!) Portage pour atteindre le pas de Berlioz]]></desc>
  </metadata>
  <trk>
    <name><![CDATA[ACTIVE LOG084252]]></name>
    <trkseg>
      <trkpt lat="44.9123" lon="5.63358">
        <ele>843.512</ele>
        <time>2012-06-17T06:42:51Z</time>
      </trkpt>
      <trkpt lat="44.91232" lon="5.63356">
        <ele>843.512</ele>
        <time>2012-06-17T06:42:52Z</time>
      </trkpt>
      <trkpt lat="44.91233" lon="5.63355">
        <ele>847.079</ele>
        <time>2012-06-17T06:42:53Z</time>
      </trkpt>
      <trkpt lat="44.91234" lon="5.63353">
        <ele>846.331</ele>
        <time>2012-06-17T06:42:54Z</time>
      </trkpt>
      <trkpt lat="44.91267" lon="5.63312">
        <ele>846.865</ele>
        <time>2012-06-17T06:43:10Z</time>
      </trkpt>
      <trkpt lat="44.91302" lon="5.63268">
        <ele>846.712</ele>
        <time>2012-06-17T06:43:24Z</time>
      </trkpt>
      <trkpt lat="44.91291" lon="5.63249">
        <ele>847.167</ele>
        <time>2012-06-17T06:43:31Z</time>
      </trkpt>
      <trkpt lat="44.91288" lon="5.63247">
        <ele>846.852</ele>
        <time>2012-06-17T06:43:32Z</time>
      </trkpt>
      <trkpt lat="44.91242" lon="5.63224">
        <ele>846.903</ele>
        <time>2012-06-17T06:43:47Z</time>
      </trkpt>
      <trkpt lat="44.91186" lon="5.63205">
        <ele>847.452</ele>
        <time>2012-06-17T06:44:05Z</time>
      </trkpt>
      <trkpt lat="44.91145" lon="5.63259">
        <ele>846.683</ele>
        <time>2012-06-17T06:44:17Z</time>
      </trkpt>
      <trkpt lat="44.91117" lon="5.6333">
        <ele>846.843</ele>
        <time>2012-06-17T06:44:30Z</time>
      </trkpt>
      <trkpt lat="44.91114" lon="5.63336">
        <ele>847.01</ele>
        <time>2012-06-17T06:44:32Z</time>
      </trkpt>
      <trkpt lat="44.91104" lon="5.63342">
        <ele>847.596</ele>
        <time>2012-06-17T06:44:36Z</time>
      </trkpt>
      <trkpt lat="44.91056" lon="5.63351">
        <ele>850.109</ele>
        <time>2012-06-17T06:44:55Z</time>
      </trkpt>
      <trkpt lat="44.91001" lon="5.63363">
        <ele>853.142</ele>
        <time>2012-06-17T06:45:18Z</time>
      </trkpt>
      <trkpt lat="44.90966" lon="5.6337">
        <ele>856.385</ele>
        <time>2012-06-17T06:45:33Z</time>
      </trkpt>
      <trkpt lat="44.90928" lon="5.63377">
        <ele>858.736</ele>
        <time>2012-06-17T06:45:50Z</time>
      </trkpt>
      <trkpt lat="44.90888" lon="5.63381">
        <ele>861.879</ele>
        <time>2012-06-17T06:46:07Z</time>
      </trkpt>
      <trkpt lat="44.90857" lon="5.63381">
        <ele>863.687</ele>
        <time>2012-06-17T06:46:20Z</time>
      </trkpt>
      <trkpt lat="44.90817" lon="5.63376">
        <ele>866.818</ele>
        <time>2012-06-17T06:46:37Z</time>
      </trkpt>
      <trkpt lat="44.90775" lon="5.63371">
        <ele>869.442</ele>
        <time>2012-06-17T06:46:56Z</time>
      </trkpt>
      <trkpt lat="44.90748" lon="5.63372">
        <ele>871.546</ele>
        <time>2012-06-17T06:47:11Z</time>
      </trkpt>
      <trkpt lat="44.9072" lon="5.63375">
        <ele>874.12</ele>
        <time>2012-06-17T06:47:27Z</time>
      </trkpt>
      <trkpt lat="44.90695" lon="5.6338">
        <ele>876.45</ele>
        <time>2012-06-17T06:47:41Z</time>
      </trkpt>
      <trkpt lat="44.90684" lon="5.63383">
        <ele>876.936</ele>
        <time>2012-06-17T06:47:47Z</time>
      </trkpt>
      <trkpt lat="44.90678" lon="5.63388">
        <ele>878.242</ele>
        <time>2012-06-17T06:47:51Z</time>
      </trkpt>
      <trkpt lat="44.90661" lon="5.63411">
        <ele>880.377</ele>
        <time>2012-06-17T06:48:05Z</time>
      </trkpt>
      <trkpt lat="44.90659" lon="5.63415">
        <ele>881.163</ele>
        <time>2012-06-17T06:48:08Z</time>
      </trkpt>
      <trkpt lat="44.90648" lon="5.63435">
        <ele>883.717</ele>
        <time>2012-06-17T06:48:18Z</time>
      </trkpt>
      <trkpt lat="44.90647" lon="5.63441">
        <ele>885.957</ele>
        <time>2012-06-17T06:48:33Z</time>
      </trkpt>
      <trkpt lat="44.90648" lon="5.6344">
        <ele>880.844</ele>
        <time>2012-06-17T06:49:16Z</time>
      </trkpt>
      <trkpt lat="44.90648" lon="5.6344">
        <ele>884.439</ele>
        <time>2012-06-17T06:49:17Z</time>
      </trkpt>
      <trkpt lat="44.90648" lon="5.6344">
        <ele>876.404</ele>
        <time>2012-06-17T06:49:18Z</time>
      </trkpt>
      <trkpt lat="44.90648" lon="5.6344">
        <ele>879.125</ele>
        <time>2012-06-17T06:49:19Z</time>
      </trkpt>
      <trkpt lat="44.90648" lon="5.63439">
        <ele>885.611</ele>
        <time>2012-06-17T06:49:20Z</time>
      </trkpt>
      <trkpt lat="44.90648" lon="5.63439">
        <ele>884.555</ele>
        <time>2012-06-17T06:49:21Z</time>
      </trkpt>
      <trkpt lat="44.90648" lon="5.63439">
        <ele>878.218</ele>
        <time>2012-06-17T06:49:22Z</time>
      </trkpt>
      <trkpt lat="44.90648" lon="5.63439">
        <ele>886.626</ele>
        <time>2012-06-17T06:49:23Z</time>
      </trkpt>
      <trkpt lat="44.90647" lon="5.63439">
        <ele>887.076</ele>
        <time>2012-06-17T06:49:26Z</time>
      </trkpt>
      <trkpt lat="44.90629" lon="5.63449">
        <ele>888.225</ele>
        <time>2012-06-17T06:49:40Z</time>
      </trkpt>
      <trkpt lat="44.90607" lon="5.63455">
        <ele>888.639</ele>
        <time>2012-06-17T06:49:52Z</time>
      </trkpt>
      <trkpt lat="44.90588" lon="5.63458">
        <ele>890.075</ele>
        <time>2012-06-17T06:50:04Z</time>
      </trkpt>
      <trkpt lat="44.90558" lon="5.63457">
        <ele>892.839</ele>
        <time>2012-06-17T06:50:22Z</time>
      </trkpt>
      <trkpt lat="44.9054" lon="5.63452">
        <ele>895.983</ele>
        <time>2012-06-17T06:50:34Z</time>
      </trkpt>
      <trkpt lat="44.90526" lon="5.63451">
        <ele>898.521</ele>
        <time>2012-06-17T06:50:43Z</time>
      </trkpt>
      <trkpt lat="44.90503" lon="5.63448">
        <ele>900.796</ele>
        <time>2012-06-17T06:50:57Z</time>
      </trkpt>
      <trkpt lat="44.90497" lon="5.63448">
        <ele>901.552</ele>
        <time>2012-06-17T06:51:01Z</time>
      </trkpt>
      <trkpt lat="44.90474" lon="5.63439">
        <ele>904.634</ele>
        <time>2012-06-17T06:51:14Z</time>
      </trkpt>
      <trkpt lat="44.90448" lon="5.63431">
        <ele>907.44</ele>
        <time>2012-06-17T06:51:27Z</time>
      </trkpt>
      <trkpt lat="44.90435" lon="5.63431">
        <ele>908.625</ele>
        <time>2012-06-17T06:51:34Z</time>
      </trkpt>
      <trkpt lat="44.90405" lon="5.63429">
        <ele>911.486</ele>
        <time>2012-06-17T06:51:50Z</time>
      </trkpt>
      <trkpt lat="44.90381" lon="5.63431">
        <ele>914.719</ele>
        <time>2012-06-17T06:52:03Z</time>
      </trkpt>
      <trkpt lat="44.90362" lon="5.63432">
        <ele>917.746</ele>
        <time>2012-06-17T06:52:15Z</time>
      </trkpt>
      <trkpt lat="44.9034" lon="5.63444">
        <ele>920.835</ele>
        <time>2012-06-17T06:52:31Z</time>
      </trkpt>
      <trkpt lat="44.90315" lon="5.63461">
        <ele>924.255</ele>
        <time>2012-06-17T06:52:49Z</time>
      </trkpt>
      <trkpt lat="44.90274" lon="5.63472">
        <ele>927.125</ele>
        <time>2012-06-17T06:53:10Z</time>
      </trkpt>
      <trkpt lat="44.90267" lon="5.63474">
        <ele>927.729</ele>
        <time>2012-06-17T06:53:14Z</time>
      </trkpt>
      <trkpt lat="44.90239" lon="5.63489">
        <ele>929.376</ele>
        <time>2012-06-17T06:53:29Z</time>
      </trkpt>
      <trkpt lat="44.90224" lon="5.63498">
        <ele>930.644</ele>
        <time>2012-06-17T06:53:38Z</time>
      </trkpt>
      <trkpt lat="44.90196" lon="5.63505">
        <ele>932.689</ele>
        <time>2012-06-17T06:53:52Z</time>
      </trkpt>
      <trkpt lat="44.90164" lon="5.63508">
        <ele>935.167</ele>
        <time>2012-06-17T06:54:08Z</time>
      </trkpt>
      <trkpt lat="44.90133" lon="5.63509">
        <ele>938.115</ele>
        <time>2012-06-17T06:54:24Z</time>
      </trkpt>
      <trkpt lat="44.90102" lon="5.63505">
        <ele>941.401</ele>
        <time>2012-06-17T06:54:41Z</time>
      </trkpt>
      <trkpt lat="44.90064" lon="5.63519">
        <ele>944.463</ele>
        <time>2012-06-17T06:54:59Z</time>
      </trkpt>
      <trkpt lat="44.9003" lon="5.6357">
        <ele>945.301</ele>
        <time>2012-06-17T06:55:14Z</time>
      </trkpt>
      <trkpt lat="44.9" lon="5.63614">
        <ele>945.913</ele>
        <time>2012-06-17T06:55:26Z</time>
      </trkpt>
      <trkpt lat="44.89961" lon="5.6366">
        <ele>948.308</ele>
        <time>2012-06-17T06:55:41Z</time>
      </trkpt>
      <trkpt lat="44.89948" lon="5.63671">
        <ele>949.195</ele>
        <time>2012-06-17T06:55:46Z</time>
      </trkpt>
      <trkpt lat="44.89911" lon="5.63708">
        <ele>951.709</ele>
        <time>2012-06-17T06:56:00Z</time>
      </trkpt>
      <trkpt lat="44.8987" lon="5.63753">
        <ele>953.828</ele>
        <time>2012-06-17T06:56:14Z</time>
      </trkpt>
      <trkpt lat="44.89836" lon="5.63784">
        <ele>954.782</ele>
        <time>2012-06-17T06:56:24Z</time>
      </trkpt>
      <trkpt lat="44.89813" lon="5.6381">
        <ele>954.428</ele>
        <time>2012-06-17T06:56:29Z</time>
      </trkpt>
      <trkpt lat="44.89792" lon="5.63849">
        <ele>954.514</ele>
        <time>2012-06-17T06:56:37Z</time>
      </trkpt>
      <trkpt lat="44.89787" lon="5.63857">
        <ele>953.792</ele>
        <time>2012-06-17T06:56:52Z</time>
      </trkpt>
      <trkpt lat="44.89781" lon="5.63854">
        <ele>952.562</ele>
        <time>2012-06-17T06:56:57Z</time>
      </trkpt>
      <trkpt lat="44.89767" lon="5.6387">
        <ele>951.425</ele>
        <time>2012-06-17T06:57:04Z</time>
      </trkpt>
      <trkpt lat="44.89759" lon="5.63872">
        <ele>948.999</ele>
        <time>2012-06-17T06:57:10Z</time>
      </trkpt>
      <trkpt lat="44.89759" lon="5.63872">
        <ele>944.191</ele>
        <time>2012-06-17T06:57:16Z</time>
      </trkpt>
      <trkpt lat="44.89759" lon="5.63872">
        <ele>937.737</ele>
        <time>2012-06-17T06:57:17Z</time>
      </trkpt>
      <trkpt lat="44.89759" lon="5.63872">
        <ele>942.696</ele>
        <time>2012-06-17T06:57:18Z</time>
      </trkpt>
      <trkpt lat="44.89759" lon="5.63873">
        <ele>948.266</ele>
        <time>2012-06-17T06:57:19Z</time>
      </trkpt>
      <trkpt lat="44.89759" lon="5.63873">
        <ele>944.218</ele>
        <time>2012-06-17T06:57:25Z</time>
      </trkpt>
      <trkpt lat="44.89759" lon="5.63873">
        <ele>938.907</ele>
        <time>2012-06-17T06:57:26Z</time>
      </trkpt>
      <trkpt lat="44.89758" lon="5.63873">
        <ele>941.321</ele>
        <time>2012-06-17T06:57:27Z</time>
      </trkpt>
      <trkpt lat="44.89758" lon="5.63873">
        <ele>948.056</ele>
        <time>2012-06-17T06:57:28Z</time>
      </trkpt>
      <trkpt lat="44.89759" lon="5.63874">
        <ele>947.182</ele>
        <time>2012-06-17T06:57:29Z</time>
      </trkpt>
      <trkpt lat="44.89759" lon="5.63876">
        <ele>941.973</ele>
        <time>2012-06-17T06:57:36Z</time>
      </trkpt>
      <trkpt lat="44.89759" lon="5.63876">
        <ele>937.225</ele>
        <time>2012-06-17T06:57:37Z</time>
      </trkpt>
      <trkpt lat="44.89758" lon="5.63874">
        <ele>944.361</ele>
        <time>2012-06-17T06:57:42Z</time>
      </trkpt>
      <trkpt lat="44.89758" lon="5.63874">
        <ele>947.149</ele>
        <time>2012-06-17T06:57:44Z</time>
      </trkpt>
      <trkpt lat="44.89757" lon="5.63874">
        <ele>935.677</ele>
        <time>2012-06-17T06:57:51Z</time>
      </trkpt>
      <trkpt lat="44.89757" lon="5.63874">
        <ele>939.378</ele>
        <time>2012-06-17T06:57:52Z</time>
      </trkpt>
      <trkpt lat="44.89757" lon="5.63874">
        <ele>942.834</ele>
        <time>2012-06-17T06:57:53Z</time>
      </trkpt>
      <trkpt lat="44.89757" lon="5.63874">
        <ele>943.913</ele>
        <time>2012-06-17T06:57:55Z</time>
      </trkpt>
      <trkpt lat="44.89757" lon="5.63874">
        <ele>940.563</ele>
        <time>2012-06-17T06:58:13Z</time>
      </trkpt>
      <trkpt lat="44.89757" lon="5.63874">
        <ele>933.977</ele>
        <time>2012-06-17T06:58:16Z</time>
      </trkpt>
      <trkpt lat="44.89757" lon="5.63874">
        <ele>933.984</ele>
        <time>2012-06-17T06:58:17Z</time>
      </trkpt>
      <trkpt lat="44.89757" lon="5.63874">
        <ele>941.391</ele>
        <time>2012-06-17T06:58:18Z</time>
      </trkpt>
      <trkpt lat="44.89757" lon="5.63874">
        <ele>941.41</ele>
        <time>2012-06-17T06:58:19Z</time>
      </trkpt>
      <trkpt lat="44.89757" lon="5.63875">
        <ele>934.742</ele>
        <time>2012-06-17T06:58:21Z</time>
      </trkpt>
      <trkpt lat="44.89757" lon="5.63875">
        <ele>939.803</ele>
        <time>2012-06-17T06:58:23Z</time>
      </trkpt>
      <trkpt lat="44.89758" lon="5.63875">
        <ele>941.808</ele>
        <time>2012-06-17T06:58:25Z</time>
      </trkpt>
      <trkpt lat="44.89758" lon="5.63875">
        <ele>933.781</ele>
        <time>2012-06-17T06:58:26Z</time>
      </trkpt>
      <trkpt lat="44.89758" lon="5.63875">
        <ele>938.943</ele>
        <time>2012-06-17T06:58:30Z</time>
      </trkpt>
      <trkpt lat="44.89758" lon="5.63875">
        <ele>942.005</ele>
        <time>2012-06-17T06:58:32Z</time>
      </trkpt>
      <trkpt lat="44.89758" lon="5.63875">
        <ele>938.245</ele>
        <time>2012-06-17T06:58:34Z</time>
      </trkpt>
      <trkpt lat="44.89758" lon="5.63875">
        <ele>940.564</ele>
        <time>2012-06-17T06:58:35Z</time>
      </trkpt>
      <trkpt lat="44.89759" lon="5.63875">
        <ele>936.964</ele>
        <time>2012-06-17T06:58:37Z</time>
      </trkpt>
      <trkpt lat="44.89759" lon="5.63875">
        <ele>937.202</ele>
        <time>2012-06-17T06:58:38Z</time>
      </trkpt>
      <trkpt lat="44.89759" lon="5.63875">
        <ele>940.95</ele>
        <time>2012-06-17T06:58:39Z</time>
      </trkpt>
      <trkpt lat="44.89759" lon="5.63875">
        <ele>944.436</ele>
        <time>2012-06-17T06:58:40Z</time>
      </trkpt>
      <trkpt lat="44.89759" lon="5.63875">
        <ele>944.442</ele>
        <time>2012-06-17T06:58:41Z</time>
      </trkpt>
      <trkpt lat="44.89759" lon="5.63875">
        <ele>937.263</ele>
        <time>2012-06-17T06:58:44Z</time>
      </trkpt>
      <trkpt lat="44.89759" lon="5.63875">
        <ele>933.458</ele>
        <time>2012-06-17T06:58:45Z</time>
      </trkpt>
      <trkpt lat="44.89759" lon="5.63875">
        <ele>937.393</ele>
        <time>2012-06-17T06:58:46Z</time>
      </trkpt>
      <trkpt lat="44.89759" lon="5.63875">
        <ele>942.395</ele>
        <time>2012-06-17T06:58:47Z</time>
      </trkpt>
      <trkpt lat="44.89759" lon="5.63875">
        <ele>944.205</ele>
        <time>2012-06-17T06:58:49Z</time>
      </trkpt>
      <trkpt lat="44.89758" lon="5.63876">
        <ele>943.229</ele>
        <time>2012-06-17T06:59:01Z</time>
      </trkpt>
      <trkpt lat="44.89732" lon="5.63907">
        <ele>941.162</ele>
        <time>2012-06-17T06:59:13Z</time>
      </trkpt>
      <trkpt lat="44.89719" lon="5.63939">
        <ele>941.286</ele>
        <time>2012-06-17T06:59:20Z</time>
      </trkpt>
      <trkpt lat="44.8972" lon="5.63964">
        <ele>941.047</ele>
        <time>2012-06-17T06:59:23Z</time>
      </trkpt>
      <trkpt lat="44.89744" lon="5.64078">
        <ele>939.909</ele>
        <time>2012-06-17T06:59:35Z</time>
      </trkpt>
      <trkpt lat="44.89744" lon="5.64158">
        <ele>938.768</ele>
        <time>2012-06-17T06:59:43Z</time>
      </trkpt>
      <trkpt lat="44.8975" lon="5.64191">
        <ele>938.415</ele>
        <time>2012-06-17T06:59:46Z</time>
      </trkpt>
      <trkpt lat="44.89738" lon="5.64254">
        <ele>936.768</ele>
        <time>2012-06-17T06:59:52Z</time>
      </trkpt>
      <trkpt lat="44.89705" lon="5.64358">
        <ele>933.633</ele>
        <time>2012-06-17T07:00:02Z</time>
      </trkpt>
      <trkpt lat="44.8967" lon="5.64438">
        <ele>930.184</ele>
        <time>2012-06-17T07:00:10Z</time>
      </trkpt>
      <trkpt lat="44.89652" lon="5.64467">
        <ele>928.929</ele>
        <time>2012-06-17T07:00:13Z</time>
      </trkpt>
      <trkpt lat="44.89636" lon="5.64483">
        <ele>927.938</ele>
        <time>2012-06-17T07:00:15Z</time>
      </trkpt>
      <trkpt lat="44.89628" lon="5.64491">
        <ele>928.008</ele>
        <time>2012-06-17T07:00:16Z</time>
      </trkpt>
      <trkpt lat="44.89611" lon="5.64517">
        <ele>926.341</ele>
        <time>2012-06-17T07:00:19Z</time>
      </trkpt>
      <trkpt lat="44.89624" lon="5.64563">
        <ele>924.819</ele>
        <time>2012-06-17T07:00:25Z</time>
      </trkpt>
      <trkpt lat="44.89631" lon="5.64578">
        <ele>925.129</ele>
        <time>2012-06-17T07:00:27Z</time>
      </trkpt>
      <trkpt lat="44.89648" lon="5.64609">
        <ele>924.718</ele>
        <time>2012-06-17T07:00:32Z</time>
      </trkpt>
      <trkpt lat="44.89657" lon="5.64635">
        <ele>924.663</ele>
        <time>2012-06-17T07:00:36Z</time>
      </trkpt>
      <trkpt lat="44.89657" lon="5.64694">
        <ele>924.187</ele>
        <time>2012-06-17T07:00:46Z</time>
      </trkpt>
      <trkpt lat="44.89645" lon="5.64728">
        <ele>924.409</ele>
        <time>2012-06-17T07:00:51Z</time>
      </trkpt>
      <trkpt lat="44.89638" lon="5.64759">
        <ele>924.279</ele>
        <time>2012-06-17T07:00:55Z</time>
      </trkpt>
      <trkpt lat="44.89651" lon="5.64831">
        <ele>924.111</ele>
        <time>2012-06-17T07:01:06Z</time>
      </trkpt>
      <trkpt lat="44.89654" lon="5.64869">
        <ele>924.425</ele>
        <time>2012-06-17T07:01:12Z</time>
      </trkpt>
      <trkpt lat="44.89628" lon="5.64921">
        <ele>924.286</ele>
        <time>2012-06-17T07:01:23Z</time>
      </trkpt>
      <trkpt lat="44.89618" lon="5.64926">
        <ele>924.719</ele>
        <time>2012-06-17T07:01:25Z</time>
      </trkpt>
      <trkpt lat="44.89573" lon="5.64933">
        <ele>923.895</ele>
        <time>2012-06-17T07:01:34Z</time>
      </trkpt>
      <trkpt lat="44.89563" lon="5.64932">
        <ele>923.861</ele>
        <time>2012-06-17T07:01:36Z</time>
      </trkpt>
      <trkpt lat="44.89488" lon="5.64932">
        <ele>919.942</ele>
        <time>2012-06-17T07:01:53Z</time>
      </trkpt>
      <trkpt lat="44.89472" lon="5.64931">
        <ele>922.084</ele>
        <time>2012-06-17T07:02:04Z</time>
      </trkpt>
      <trkpt lat="44.89467" lon="5.64928">
        <ele>922.213</ele>
        <time>2012-06-17T07:02:16Z</time>
      </trkpt>
      <trkpt lat="44.89442" lon="5.64922">
        <ele>923.085</ele>
        <time>2012-06-17T07:02:31Z</time>
      </trkpt>
      <trkpt lat="44.8941" lon="5.64917">
        <ele>926.112</ele>
        <time>2012-06-17T07:02:49Z</time>
      </trkpt>
      <trkpt lat="44.89383" lon="5.64917">
        <ele>929.121</ele>
        <time>2012-06-17T07:03:05Z</time>
      </trkpt>
      <trkpt lat="44.89359" lon="5.64914">
        <ele>931.663</ele>
        <time>2012-06-17T07:03:20Z</time>
      </trkpt>
      <trkpt lat="44.89337" lon="5.64912">
        <ele>934.613</ele>
        <time>2012-06-17T07:03:34Z</time>
      </trkpt>
      <trkpt lat="44.89324" lon="5.64909">
        <ele>935.701</ele>
        <time>2012-06-17T07:03:42Z</time>
      </trkpt>
      <trkpt lat="44.89306" lon="5.64906">
        <ele>938.832</ele>
        <time>2012-06-17T07:03:54Z</time>
      </trkpt>
      <trkpt lat="44.89298" lon="5.64908">
        <ele>940.059</ele>
        <time>2012-06-17T07:03:58Z</time>
      </trkpt>
      <trkpt lat="44.89294" lon="5.64909">
        <ele>940.799</ele>
        <time>2012-06-17T07:04:01Z</time>
      </trkpt>
      <trkpt lat="44.89274" lon="5.64915">
        <ele>944.106</ele>
        <time>2012-06-17T07:04:14Z</time>
      </trkpt>
      <trkpt lat="44.89269" lon="5.64918">
        <ele>944.843</ele>
        <time>2012-06-17T07:04:17Z</time>
      </trkpt>
      <trkpt lat="44.89251" lon="5.64922">
        <ele>947.537</ele>
        <time>2012-06-17T07:04:29Z</time>
      </trkpt>
      <trkpt lat="44.89238" lon="5.64925">
        <ele>949.533</ele>
        <time>2012-06-17T07:04:39Z</time>
      </trkpt>
      <trkpt lat="44.89221" lon="5.64926">
        <ele>952.568</ele>
        <time>2012-06-17T07:04:51Z</time>
      </trkpt>
      <trkpt lat="44.89205" lon="5.64933">
        <ele>954.524</ele>
        <time>2012-06-17T07:05:02Z</time>
      </trkpt>
      <trkpt lat="44.89187" lon="5.64937">
        <ele>957.418</ele>
        <time>2012-06-17T07:05:15Z</time>
      </trkpt>
      <trkpt lat="44.89172" lon="5.64941">
        <ele>960.014</ele>
        <time>2012-06-17T07:05:27Z</time>
      </trkpt>
      <trkpt lat="44.89152" lon="5.64944">
        <ele>963.444</ele>
        <time>2012-06-17T07:05:42Z</time>
      </trkpt>
      <trkpt lat="44.89134" lon="5.64948">
        <ele>966.478</ele>
        <time>2012-06-17T07:05:57Z</time>
      </trkpt>
      <trkpt lat="44.89117" lon="5.64949">
        <ele>969.229</ele>
        <time>2012-06-17T07:06:10Z</time>
      </trkpt>
      <trkpt lat="44.89101" lon="5.64949">
        <ele>970.009</ele>
        <time>2012-06-17T07:06:23Z</time>
      </trkpt>
      <trkpt lat="44.89087" lon="5.64959">
        <ele>971.482</ele>
        <time>2012-06-17T07:06:36Z</time>
      </trkpt>
      <trkpt lat="44.89063" lon="5.64995">
        <ele>973.219</ele>
        <time>2012-06-17T07:06:47Z</time>
      </trkpt>
      <trkpt lat="44.89048" lon="5.65052">
        <ele>972.855</ele>
        <time>2012-06-17T07:06:57Z</time>
      </trkpt>
      <trkpt lat="44.89048" lon="5.65066">
        <ele>973.603</ele>
        <time>2012-06-17T07:06:59Z</time>
      </trkpt>
      <trkpt lat="44.89053" lon="5.6509">
        <ele>973.46</ele>
        <time>2012-06-17T07:07:03Z</time>
      </trkpt>
      <trkpt lat="44.89077" lon="5.65141">
        <ele>973.159</ele>
        <time>2012-06-17T07:07:14Z</time>
      </trkpt>
      <trkpt lat="44.89081" lon="5.65169">
        <ele>973.594</ele>
        <time>2012-06-17T07:07:26Z</time>
      </trkpt>
      <trkpt lat="44.89081" lon="5.65175">
        <ele>973.682</ele>
        <time>2012-06-17T07:07:32Z</time>
      </trkpt>
      <trkpt lat="44.89072" lon="5.65138">
        <ele>972.973</ele>
        <time>2012-06-17T07:07:45Z</time>
      </trkpt>
      <trkpt lat="44.89063" lon="5.65116">
        <ele>973.748</ele>
        <time>2012-06-17T07:07:52Z</time>
      </trkpt>
      <trkpt lat="44.8906" lon="5.65116">
        <ele>973.692</ele>
        <time>2012-06-17T07:07:55Z</time>
      </trkpt>
      <trkpt lat="44.89068" lon="5.65139">
        <ele>975.018</ele>
        <time>2012-06-17T07:08:06Z</time>
      </trkpt>
      <trkpt lat="44.89071" lon="5.65147">
        <ele>975.481</ele>
        <time>2012-06-17T07:08:10Z</time>
      </trkpt>
      <trkpt lat="44.89072" lon="5.65159">
        <ele>976.13</ele>
        <time>2012-06-17T07:08:16Z</time>
      </trkpt>
      <trkpt lat="44.89072" lon="5.65188">
        <ele>978.614</ele>
        <time>2012-06-17T07:08:29Z</time>
      </trkpt>
      <trkpt lat="44.89075" lon="5.65214">
        <ele>980.698</ele>
        <time>2012-06-17T07:08:43Z</time>
      </trkpt>
      <trkpt lat="44.89076" lon="5.6522">
        <ele>981.371</ele>
        <time>2012-06-17T07:08:46Z</time>
      </trkpt>
      <trkpt lat="44.89076" lon="5.65235">
        <ele>982.81</ele>
        <time>2012-06-17T07:08:54Z</time>
      </trkpt>
      <trkpt lat="44.89065" lon="5.65258">
        <ele>984.743</ele>
        <time>2012-06-17T07:09:06Z</time>
      </trkpt>
      <trkpt lat="44.89053" lon="5.65277">
        <ele>986.987</ele>
        <time>2012-06-17T07:09:20Z</time>
      </trkpt>
      <trkpt lat="44.8904" lon="5.65295">
        <ele>989.168</ele>
        <time>2012-06-17T07:09:31Z</time>
      </trkpt>
      <trkpt lat="44.8903" lon="5.65301">
        <ele>990.542</ele>
        <time>2012-06-17T07:09:40Z</time>
      </trkpt>
      <trkpt lat="44.89029" lon="5.65294">
        <ele>992.764</ele>
        <time>2012-06-17T07:09:54Z</time>
      </trkpt>
      <trkpt lat="44.89031" lon="5.65288">
        <ele>993.322</ele>
        <time>2012-06-17T07:10:00Z</time>
      </trkpt>
      <trkpt lat="44.89036" lon="5.65265">
        <ele>995.698</ele>
        <time>2012-06-17T07:10:16Z</time>
      </trkpt>
      <trkpt lat="44.89028" lon="5.65273">
        <ele>996.062</ele>
        <time>2012-06-17T07:10:34Z</time>
      </trkpt>
      <trkpt lat="44.89026" lon="5.65257">
        <ele>998.781</ele>
        <time>2012-06-17T07:10:47Z</time>
      </trkpt>
      <trkpt lat="44.89024" lon="5.65244">
        <ele>1000.696</ele>
        <time>2012-06-17T07:11:02Z</time>
      </trkpt>
      <trkpt lat="44.89018" lon="5.65254">
        <ele>1002.47</ele>
        <time>2012-06-17T07:11:15Z</time>
      </trkpt>
      <trkpt lat="44.89014" lon="5.65262">
        <ele>1003.235</ele>
        <time>2012-06-17T07:11:24Z</time>
      </trkpt>
      <trkpt lat="44.89011" lon="5.6526">
        <ele>1004.97</ele>
        <time>2012-06-17T07:11:34Z</time>
      </trkpt>
      <trkpt lat="44.89002" lon="5.6527">
        <ele>1006.16</ele>
        <time>2012-06-17T07:11:47Z</time>
      </trkpt>
      <trkpt lat="44.88989" lon="5.65284">
        <ele>1008.244</ele>
        <time>2012-06-17T07:11:59Z</time>
      </trkpt>
      <trkpt lat="44.88978" lon="5.65292">
        <ele>1010.428</ele>
        <time>2012-06-17T07:12:10Z</time>
      </trkpt>
      <trkpt lat="44.88966" lon="5.65305">
        <ele>1011.819</ele>
        <time>2012-06-17T07:12:21Z</time>
      </trkpt>
      <trkpt lat="44.88954" lon="5.65316">
        <ele>1012.674</ele>
        <time>2012-06-17T07:12:30Z</time>
      </trkpt>
      <trkpt lat="44.88948" lon="5.65328">
        <ele>1012.839</ele>
        <time>2012-06-17T07:12:34Z</time>
      </trkpt>
      <trkpt lat="44.8893" lon="5.65355">
        <ele>1014.104</ele>
        <time>2012-06-17T07:12:43Z</time>
      </trkpt>
      <trkpt lat="44.88916" lon="5.65369">
        <ele>1015.234</ele>
        <time>2012-06-17T07:12:53Z</time>
      </trkpt>
      <trkpt lat="44.88898" lon="5.65391">
        <ele>1017.257</ele>
        <time>2012-06-17T07:13:04Z</time>
      </trkpt>
      <trkpt lat="44.88893" lon="5.65398">
        <ele>1017.426</ele>
        <time>2012-06-17T07:13:09Z</time>
      </trkpt>
      <trkpt lat="44.88887" lon="5.65402">
        <ele>1018.225</ele>
        <time>2012-06-17T07:13:13Z</time>
      </trkpt>
      <trkpt lat="44.88868" lon="5.65415">
        <ele>1020.6</ele>
        <time>2012-06-17T07:13:26Z</time>
      </trkpt>
      <trkpt lat="44.88863" lon="5.65425">
        <ele>1022.05</ele>
        <time>2012-06-17T07:13:33Z</time>
      </trkpt>
      <trkpt lat="44.8886" lon="5.65435">
        <ele>1023.307</ele>
        <time>2012-06-17T07:13:39Z</time>
      </trkpt>
      <trkpt lat="44.88859" lon="5.65437">
        <ele>1023.223</ele>
        <time>2012-06-17T07:13:41Z</time>
      </trkpt>
      <trkpt lat="44.88848" lon="5.65422">
        <ele>1025.827</ele>
        <time>2012-06-17T07:13:56Z</time>
      </trkpt>
      <trkpt lat="44.88841" lon="5.65423">
        <ele>1027.733</ele>
        <time>2012-06-17T07:14:06Z</time>
      </trkpt>
      <trkpt lat="44.88841" lon="5.65429">
        <ele>1028.014</ele>
        <time>2012-06-17T07:14:10Z</time>
      </trkpt>
      <trkpt lat="44.8884" lon="5.65436">
        <ele>1028.464</ele>
        <time>2012-06-17T07:14:14Z</time>
      </trkpt>
      <trkpt lat="44.88833" lon="5.65451">
        <ele>1031.025</ele>
        <time>2012-06-17T07:14:28Z</time>
      </trkpt>
      <trkpt lat="44.88829" lon="5.65439">
        <ele>1032.808</ele>
        <time>2012-06-17T07:14:41Z</time>
      </trkpt>
      <trkpt lat="44.88826" lon="5.65434">
        <ele>1033.203</ele>
        <time>2012-06-17T07:14:47Z</time>
      </trkpt>
      <trkpt lat="44.88817" lon="5.65427">
        <ele>1034.122</ele>
        <time>2012-06-17T07:14:57Z</time>
      </trkpt>
      <trkpt lat="44.88811" lon="5.65429">
        <ele>1035.499</ele>
        <time>2012-06-17T07:15:04Z</time>
      </trkpt>
      <trkpt lat="44.88811" lon="5.65432">
        <ele>1035.883</ele>
        <time>2012-06-17T07:15:07Z</time>
      </trkpt>
      <trkpt lat="44.88817" lon="5.65449">
        <ele>1037.83</ele>
        <time>2012-06-17T07:15:20Z</time>
      </trkpt>
      <trkpt lat="44.88815" lon="5.65453">
        <ele>1038.14</ele>
        <time>2012-06-17T07:15:23Z</time>
      </trkpt>
      <trkpt lat="44.88791" lon="5.65467">
        <ele>1041.131</ele>
        <time>2012-06-17T07:15:43Z</time>
      </trkpt>
      <trkpt lat="44.88779" lon="5.65482">
        <ele>1041.162</ele>
        <time>2012-06-17T07:15:50Z</time>
      </trkpt>
      <trkpt lat="44.88774" lon="5.65488">
        <ele>1041.511</ele>
        <time>2012-06-17T07:15:54Z</time>
      </trkpt>
      <trkpt lat="44.88764" lon="5.65505">
        <ele>1040.663</ele>
        <time>2012-06-17T07:16:02Z</time>
      </trkpt>
      <trkpt lat="44.88758" lon="5.65511">
        <ele>1040.076</ele>
        <time>2012-06-17T07:16:06Z</time>
      </trkpt>
      <trkpt lat="44.88728" lon="5.65544">
        <ele>1037.297</ele>
        <time>2012-06-17T07:16:17Z</time>
      </trkpt>
      <trkpt lat="44.88712" lon="5.65563">
        <ele>1034.893</ele>
        <time>2012-06-17T07:16:24Z</time>
      </trkpt>
      <trkpt lat="44.88698" lon="5.65574">
        <ele>1032.651</ele>
        <time>2012-06-17T07:16:29Z</time>
      </trkpt>
      <trkpt lat="44.88678" lon="5.65595">
        <ele>1030.036</ele>
        <time>2012-06-17T07:16:36Z</time>
      </trkpt>
      <trkpt lat="44.88659" lon="5.65628">
        <ele>1027.046</ele>
        <time>2012-06-17T07:16:46Z</time>
      </trkpt>
      <trkpt lat="44.88658" lon="5.65629">
        <ele>1027.021</ele>
        <time>2012-06-17T07:16:47Z</time>
      </trkpt>
      <trkpt lat="44.88638" lon="5.65654">
        <ele>1024.132</ele>
        <time>2012-06-17T07:16:57Z</time>
      </trkpt>
      <trkpt lat="44.88635" lon="5.65656">
        <ele>1023.81</ele>
        <time>2012-06-17T07:16:58Z</time>
      </trkpt>
      <trkpt lat="44.88626" lon="5.65666">
        <ele>1022.347</ele>
        <time>2012-06-17T07:17:02Z</time>
      </trkpt>
      <trkpt lat="44.88614" lon="5.65677">
        <ele>1019.722</ele>
        <time>2012-06-17T07:17:10Z</time>
      </trkpt>
      <trkpt lat="44.88613" lon="5.65678">
        <ele>1019.301</ele>
        <time>2012-06-17T07:17:11Z</time>
      </trkpt>
      <trkpt lat="44.88601" lon="5.65688">
        <ele>1016.222</ele>
        <time>2012-06-17T07:17:18Z</time>
      </trkpt>
      <trkpt lat="44.88574" lon="5.65721">
        <ele>1012.932</ele>
        <time>2012-06-17T07:17:28Z</time>
      </trkpt>
      <trkpt lat="44.88557" lon="5.6574">
        <ele>1010.464</ele>
        <time>2012-06-17T07:17:34Z</time>
      </trkpt>
      <trkpt lat="44.88547" lon="5.65742">
        <ele>1007.85</ele>
        <time>2012-06-17T07:17:38Z</time>
      </trkpt>
      <trkpt lat="44.88543" lon="5.65744">
        <ele>1006.457</ele>
        <time>2012-06-17T07:17:40Z</time>
      </trkpt>
      <trkpt lat="44.88539" lon="5.65748">
        <ele>1005.444</ele>
        <time>2012-06-17T07:17:42Z</time>
      </trkpt>
      <trkpt lat="44.88538" lon="5.6575">
        <ele>1004.5</ele>
        <time>2012-06-17T07:17:43Z</time>
      </trkpt>
      <trkpt lat="44.88532" lon="5.65756">
        <ele>1002.89</ele>
        <time>2012-06-17T07:17:46Z</time>
      </trkpt>
      <trkpt lat="44.8853" lon="5.65756">
        <ele>1002.482</ele>
        <time>2012-06-17T07:17:47Z</time>
      </trkpt>
      <trkpt lat="44.88515" lon="5.65759">
        <ele>998.685</ele>
        <time>2012-06-17T07:17:53Z</time>
      </trkpt>
      <trkpt lat="44.88512" lon="5.65762">
        <ele>997.143</ele>
        <time>2012-06-17T07:17:55Z</time>
      </trkpt>
      <trkpt lat="44.88506" lon="5.6577">
        <ele>993.605</ele>
        <time>2012-06-17T07:17:59Z</time>
      </trkpt>
      <trkpt lat="44.88499" lon="5.65787">
        <ele>989.912</ele>
        <time>2012-06-17T07:18:05Z</time>
      </trkpt>
      <trkpt lat="44.88498" lon="5.65791">
        <ele>989.585</ele>
        <time>2012-06-17T07:18:06Z</time>
      </trkpt>
      <trkpt lat="44.88488" lon="5.65812">
        <ele>985.386</ele>
        <time>2012-06-17T07:18:12Z</time>
      </trkpt>
      <trkpt lat="44.88478" lon="5.65827">
        <ele>982.145</ele>
        <time>2012-06-17T07:18:16Z</time>
      </trkpt>
      <trkpt lat="44.88477" lon="5.65829">
        <ele>981.308</ele>
        <time>2012-06-17T07:18:17Z</time>
      </trkpt>
      <trkpt lat="44.88471" lon="5.65838">
        <ele>977.681</ele>
        <time>2012-06-17T07:18:23Z</time>
      </trkpt>
      <trkpt lat="44.88464" lon="5.65849">
        <ele>974.893</ele>
        <time>2012-06-17T07:18:26Z</time>
      </trkpt>
      <trkpt lat="44.8846" lon="5.65856">
        <ele>973.174</ele>
        <time>2012-06-17T07:18:28Z</time>
      </trkpt>
      <trkpt lat="44.88446" lon="5.65882">
        <ele>968.383</ele>
        <time>2012-06-17T07:18:34Z</time>
      </trkpt>
      <trkpt lat="44.88431" lon="5.65911">
        <ele>964.853</ele>
        <time>2012-06-17T07:18:39Z</time>
      </trkpt>
      <trkpt lat="44.88419" lon="5.65921">
        <ele>962.49</ele>
        <time>2012-06-17T07:18:44Z</time>
      </trkpt>
      <trkpt lat="44.88395" lon="5.65947">
        <ele>959.433</ele>
        <time>2012-06-17T07:18:53Z</time>
      </trkpt>
      <trkpt lat="44.88375" lon="5.65972">
        <ele>958.332</ele>
        <time>2012-06-17T07:19:06Z</time>
      </trkpt>
      <trkpt lat="44.88361" lon="5.65992">
        <ele>959.401</ele>
        <time>2012-06-17T07:19:20Z</time>
      </trkpt>
      <trkpt lat="44.88352" lon="5.66004">
        <ele>960.709</ele>
        <time>2012-06-17T07:19:32Z</time>
      </trkpt>
      <trkpt lat="44.88343" lon="5.66015">
        <ele>962.628</ele>
        <time>2012-06-17T07:19:45Z</time>
      </trkpt>
      <trkpt lat="44.88335" lon="5.66028">
        <ele>965.413</ele>
        <time>2012-06-17T07:19:59Z</time>
      </trkpt>
      <trkpt lat="44.88327" lon="5.66038">
        <ele>968.799</ele>
        <time>2012-06-17T07:20:13Z</time>
      </trkpt>
      <trkpt lat="44.88317" lon="5.66049">
        <ele>971.425</ele>
        <time>2012-06-17T07:20:27Z</time>
      </trkpt>
      <trkpt lat="44.88308" lon="5.66058">
        <ele>974.993</ele>
        <time>2012-06-17T07:20:42Z</time>
      </trkpt>
      <trkpt lat="44.88298" lon="5.66067">
        <ele>978.064</ele>
        <time>2012-06-17T07:20:58Z</time>
      </trkpt>
      <trkpt lat="44.88289" lon="5.66072">
        <ele>981.151</ele>
        <time>2012-06-17T07:21:12Z</time>
      </trkpt>
      <trkpt lat="44.8828" lon="5.6608">
        <ele>984.484</ele>
        <time>2012-06-17T07:21:27Z</time>
      </trkpt>
      <trkpt lat="44.88273" lon="5.66087">
        <ele>987.618</ele>
        <time>2012-06-17T07:21:40Z</time>
      </trkpt>
      <trkpt lat="44.88264" lon="5.66095">
        <ele>989.885</ele>
        <time>2012-06-17T07:21:53Z</time>
      </trkpt>
      <trkpt lat="44.88258" lon="5.66104">
        <ele>992.43</ele>
        <time>2012-06-17T07:22:16Z</time>
      </trkpt>
      <trkpt lat="44.88257" lon="5.66109">
        <ele>993.138</ele>
        <time>2012-06-17T07:22:51Z</time>
      </trkpt>
      <trkpt lat="44.88253" lon="5.66114">
        <ele>992.742</ele>
        <time>2012-06-17T07:23:09Z</time>
      </trkpt>
      <trkpt lat="44.88238" lon="5.66132">
        <ele>992.601</ele>
        <time>2012-06-17T07:23:18Z</time>
      </trkpt>
      <trkpt lat="44.88223" lon="5.66139">
        <ele>991.087</ele>
        <time>2012-06-17T07:23:24Z</time>
      </trkpt>
      <trkpt lat="44.882" lon="5.66155">
        <ele>988.729</ele>
        <time>2012-06-17T07:23:30Z</time>
      </trkpt>
      <trkpt lat="44.88183" lon="5.66163">
        <ele>986.591</ele>
        <time>2012-06-17T07:23:33Z</time>
      </trkpt>
      <trkpt lat="44.88169" lon="5.66169">
        <ele>984.72</ele>
        <time>2012-06-17T07:23:36Z</time>
      </trkpt>
      <trkpt lat="44.88161" lon="5.66172">
        <ele>983.315</ele>
        <time>2012-06-17T07:23:38Z</time>
      </trkpt>
      <trkpt lat="44.88143" lon="5.66177">
        <ele>979.922</ele>
        <time>2012-06-17T07:23:43Z</time>
      </trkpt>
      <trkpt lat="44.88126" lon="5.66175">
        <ele>977.488</ele>
        <time>2012-06-17T07:23:48Z</time>
      </trkpt>
      <trkpt lat="44.88117" lon="5.66188">
        <ele>974.815</ele>
        <time>2012-06-17T07:23:52Z</time>
      </trkpt>
      <trkpt lat="44.88115" lon="5.66198">
        <ele>973.883</ele>
        <time>2012-06-17T07:23:55Z</time>
      </trkpt>
      <trkpt lat="44.88109" lon="5.6622">
        <ele>969.799</ele>
        <time>2012-06-17T07:24:01Z</time>
      </trkpt>
      <trkpt lat="44.8811" lon="5.66228">
        <ele>967.085</ele>
        <time>2012-06-17T07:24:04Z</time>
      </trkpt>
      <trkpt lat="44.88109" lon="5.66235">
        <ele>965.444</ele>
        <time>2012-06-17T07:24:07Z</time>
      </trkpt>
      <trkpt lat="44.88107" lon="5.66248">
        <ele>964.496</ele>
        <time>2012-06-17T07:24:11Z</time>
      </trkpt>
      <trkpt lat="44.88108" lon="5.66251">
        <ele>960.921</ele>
        <time>2012-06-17T07:24:12Z</time>
      </trkpt>
      <trkpt lat="44.88108" lon="5.66254">
        <ele>960.921</ele>
        <time>2012-06-17T07:24:13Z</time>
      </trkpt>
      <trkpt lat="44.88109" lon="5.66259">
        <ele>958.827</ele>
        <time>2012-06-17T07:24:15Z</time>
      </trkpt>
      <trkpt lat="44.88107" lon="5.66266">
        <ele>957.929</ele>
        <time>2012-06-17T07:24:17Z</time>
      </trkpt>
      <trkpt lat="44.88106" lon="5.66273">
        <ele>955.798</ele>
        <time>2012-06-17T07:24:19Z</time>
      </trkpt>
      <trkpt lat="44.88103" lon="5.66284">
        <ele>953.155</ele>
        <time>2012-06-17T07:24:22Z</time>
      </trkpt>
      <trkpt lat="44.88101" lon="5.663">
        <ele>949.504</ele>
        <time>2012-06-17T07:24:26Z</time>
      </trkpt>
      <trkpt lat="44.88098" lon="5.66313">
        <ele>946.472</ele>
        <time>2012-06-17T07:24:29Z</time>
      </trkpt>
      <trkpt lat="44.88093" lon="5.66335">
        <ele>943.288</ele>
        <time>2012-06-17T07:24:34Z</time>
      </trkpt>
      <trkpt lat="44.8809" lon="5.66351">
        <ele>939.964</ele>
        <time>2012-06-17T07:24:38Z</time>
      </trkpt>
      <trkpt lat="44.88085" lon="5.66371">
        <ele>936.512</ele>
        <time>2012-06-17T07:24:42Z</time>
      </trkpt>
      <trkpt lat="44.88083" lon="5.6639">
        <ele>932.406</ele>
        <time>2012-06-17T07:24:47Z</time>
      </trkpt>
      <trkpt lat="44.88077" lon="5.66414">
        <ele>928.2</ele>
        <time>2012-06-17T07:24:51Z</time>
      </trkpt>
      <trkpt lat="44.88075" lon="5.66419">
        <ele>928.291</ele>
        <time>2012-06-17T07:24:52Z</time>
      </trkpt>
      <trkpt lat="44.88072" lon="5.66431">
        <ele>926.081</ele>
        <time>2012-06-17T07:24:55Z</time>
      </trkpt>
      <trkpt lat="44.88072" lon="5.66438">
        <ele>925.281</ele>
        <time>2012-06-17T07:24:57Z</time>
      </trkpt>
      <trkpt lat="44.88083" lon="5.66437">
        <ele>922.845</ele>
        <time>2012-06-17T07:25:03Z</time>
      </trkpt>
      <trkpt lat="44.88106" lon="5.66436">
        <ele>919.36</ele>
        <time>2012-06-17T07:25:12Z</time>
      </trkpt>
      <trkpt lat="44.88108" lon="5.66435">
        <ele>919.193</ele>
        <time>2012-06-17T07:25:13Z</time>
      </trkpt>
      <trkpt lat="44.88128" lon="5.6641">
        <ele>916.86</ele>
        <time>2012-06-17T07:25:19Z</time>
      </trkpt>
      <trkpt lat="44.88146" lon="5.66392">
        <ele>914.793</ele>
        <time>2012-06-17T07:25:23Z</time>
      </trkpt>
      <trkpt lat="44.88152" lon="5.66387">
        <ele>914.469</ele>
        <time>2012-06-17T07:25:24Z</time>
      </trkpt>
      <trkpt lat="44.88177" lon="5.66375">
        <ele>912.842</ele>
        <time>2012-06-17T07:25:28Z</time>
      </trkpt>
      <trkpt lat="44.88187" lon="5.66369">
        <ele>912.68</ele>
        <time>2012-06-17T07:25:30Z</time>
      </trkpt>
      <trkpt lat="44.88201" lon="5.66364">
        <ele>911.882</ele>
        <time>2012-06-17T07:25:33Z</time>
      </trkpt>
      <trkpt lat="44.88218" lon="5.66361">
        <ele>911.11</ele>
        <time>2012-06-17T07:25:36Z</time>
      </trkpt>
      <trkpt lat="44.88231" lon="5.66361">
        <ele>909.955</ele>
        <time>2012-06-17T07:25:38Z</time>
      </trkpt>
      <trkpt lat="44.88253" lon="5.66356">
        <ele>907.982</ele>
        <time>2012-06-17T07:25:41Z</time>
      </trkpt>
      <trkpt lat="44.88273" lon="5.66344">
        <ele>906.021</ele>
        <time>2012-06-17T07:25:48Z</time>
      </trkpt>
      <trkpt lat="44.88274" lon="5.66346">
        <ele>905.49</ele>
        <time>2012-06-17T07:25:50Z</time>
      </trkpt>
      <trkpt lat="44.88251" lon="5.66357">
        <ele>903.946</ele>
        <time>2012-06-17T07:26:01Z</time>
      </trkpt>
      <trkpt lat="44.88225" lon="5.66359">
        <ele>903.087</ele>
        <time>2012-06-17T07:26:12Z</time>
      </trkpt>
      <trkpt lat="44.88213" lon="5.66361">
        <ele>903.028</ele>
        <time>2012-06-17T07:26:18Z</time>
      </trkpt>
      <trkpt lat="44.88181" lon="5.66369">
        <ele>903.843</ele>
        <time>2012-06-17T07:26:33Z</time>
      </trkpt>
      <trkpt lat="44.88176" lon="5.66373">
        <ele>904.814</ele>
        <time>2012-06-17T07:26:42Z</time>
      </trkpt>
      <trkpt lat="44.88201" lon="5.66364">
        <ele>905.21</ele>
        <time>2012-06-17T07:26:54Z</time>
      </trkpt>
      <trkpt lat="44.88231" lon="5.66359">
        <ele>904.371</ele>
        <time>2012-06-17T07:27:03Z</time>
      </trkpt>
      <trkpt lat="44.88236" lon="5.66358">
        <ele>904.284</ele>
        <time>2012-06-17T07:27:04Z</time>
      </trkpt>
      <trkpt lat="44.88285" lon="5.66346">
        <ele>902.52</ele>
        <time>2012-06-17T07:27:17Z</time>
      </trkpt>
      <trkpt lat="44.88322" lon="5.66337">
        <ele>900.828</ele>
        <time>2012-06-17T07:27:27Z</time>
      </trkpt>
      <trkpt lat="44.8836" lon="5.66328">
        <ele>899.306</ele>
        <time>2012-06-17T07:27:40Z</time>
      </trkpt>
      <trkpt lat="44.88391" lon="5.66321">
        <ele>898.307</ele>
        <time>2012-06-17T07:27:51Z</time>
      </trkpt>
      <trkpt lat="44.88425" lon="5.66312">
        <ele>896.668</ele>
        <time>2012-06-17T07:28:01Z</time>
      </trkpt>
      <trkpt lat="44.88464" lon="5.66307">
        <ele>895.652</ele>
        <time>2012-06-17T07:28:12Z</time>
      </trkpt>
      <trkpt lat="44.88499" lon="5.66283">
        <ele>893.553</ele>
        <time>2012-06-17T07:28:23Z</time>
      </trkpt>
      <trkpt lat="44.88503" lon="5.66271">
        <ele>892.393</ele>
        <time>2012-06-17T07:28:27Z</time>
      </trkpt>
      <trkpt lat="44.88508" lon="5.66272">
        <ele>891.344</ele>
        <time>2012-06-17T07:28:31Z</time>
      </trkpt>
      <trkpt lat="44.88507" lon="5.66317">
        <ele>889.087</ele>
        <time>2012-06-17T07:28:41Z</time>
      </trkpt>
      <trkpt lat="44.88507" lon="5.66323">
        <ele>888.998</ele>
        <time>2012-06-17T07:28:42Z</time>
      </trkpt>
      <trkpt lat="44.88512" lon="5.66352">
        <ele>887.127</ele>
        <time>2012-06-17T07:28:47Z</time>
      </trkpt>
      <trkpt lat="44.88518" lon="5.66397">
        <ele>883.617</ele>
        <time>2012-06-17T07:28:57Z</time>
      </trkpt>
      <trkpt lat="44.88523" lon="5.66406">
        <ele>882.355</ele>
        <time>2012-06-17T07:29:00Z</time>
      </trkpt>
      <trkpt lat="44.88523" lon="5.66414">
        <ele>880.57</ele>
        <time>2012-06-17T07:29:03Z</time>
      </trkpt>
      <trkpt lat="44.88526" lon="5.66426">
        <ele>877.847</ele>
        <time>2012-06-17T07:29:08Z</time>
      </trkpt>
      <trkpt lat="44.88539" lon="5.66428">
        <ele>874.234</ele>
        <time>2012-06-17T07:29:14Z</time>
      </trkpt>
      <trkpt lat="44.88544" lon="5.66422">
        <ele>872.467</ele>
        <time>2012-06-17T07:29:17Z</time>
      </trkpt>
      <trkpt lat="44.88551" lon="5.66412">
        <ele>868.311</ele>
        <time>2012-06-17T07:29:24Z</time>
      </trkpt>
      <trkpt lat="44.88553" lon="5.66405">
        <ele>865.189</ele>
        <time>2012-06-17T07:29:31Z</time>
      </trkpt>
      <trkpt lat="44.88556" lon="5.66401">
        <ele>861.986</ele>
        <time>2012-06-17T07:29:37Z</time>
      </trkpt>
      <trkpt lat="44.88557" lon="5.66401">
        <ele>862.098</ele>
        <time>2012-06-17T07:29:38Z</time>
      </trkpt>
      <trkpt lat="44.88565" lon="5.66403">
        <ele>860.011</ele>
        <time>2012-06-17T07:29:47Z</time>
      </trkpt>
      <trkpt lat="44.88565" lon="5.66408">
        <ele>859.272</ele>
        <time>2012-06-17T07:29:49Z</time>
      </trkpt>
      <trkpt lat="44.88566" lon="5.66422">
        <ele>857.36</ele>
        <time>2012-06-17T07:29:54Z</time>
      </trkpt>
      <trkpt lat="44.88571" lon="5.66455">
        <ele>854.668</ele>
        <time>2012-06-17T07:30:02Z</time>
      </trkpt>
      <trkpt lat="44.88573" lon="5.66468">
        <ele>853.486</ele>
        <time>2012-06-17T07:30:05Z</time>
      </trkpt>
      <trkpt lat="44.88572" lon="5.66477">
        <ele>852.289</ele>
        <time>2012-06-17T07:30:07Z</time>
      </trkpt>
      <trkpt lat="44.88566" lon="5.66499">
        <ele>850.512</ele>
        <time>2012-06-17T07:30:11Z</time>
      </trkpt>
      <trkpt lat="44.88546" lon="5.66533">
        <ele>846.322</ele>
        <time>2012-06-17T07:30:18Z</time>
      </trkpt>
      <trkpt lat="44.8854" lon="5.66539">
        <ele>843.136</ele>
        <time>2012-06-17T07:30:23Z</time>
      </trkpt>
      <trkpt lat="44.8854" lon="5.66539">
        <ele>840.779</ele>
        <time>2012-06-17T07:30:25Z</time>
      </trkpt>
      <trkpt lat="44.88542" lon="5.66541">
        <ele>839.816</ele>
        <time>2012-06-17T07:30:27Z</time>
      </trkpt>
      <trkpt lat="44.88549" lon="5.66549">
        <ele>836.61</ele>
        <time>2012-06-17T07:30:32Z</time>
      </trkpt>
      <trkpt lat="44.88553" lon="5.66555">
        <ele>834.412</ele>
        <time>2012-06-17T07:30:35Z</time>
      </trkpt>
      <trkpt lat="44.88558" lon="5.66556">
        <ele>832.279</ele>
        <time>2012-06-17T07:30:38Z</time>
      </trkpt>
      <trkpt lat="44.88557" lon="5.66564">
        <ele>830.136</ele>
        <time>2012-06-17T07:30:43Z</time>
      </trkpt>
      <trkpt lat="44.88551" lon="5.66577">
        <ele>827.291</ele>
        <time>2012-06-17T07:30:48Z</time>
      </trkpt>
      <trkpt lat="44.88553" lon="5.66581">
        <ele>825.263</ele>
        <time>2012-06-17T07:30:50Z</time>
      </trkpt>
      <trkpt lat="44.88557" lon="5.66593">
        <ele>822.681</ele>
        <time>2012-06-17T07:30:54Z</time>
      </trkpt>
      <trkpt lat="44.88557" lon="5.66602">
        <ele>821.217</ele>
        <time>2012-06-17T07:30:56Z</time>
      </trkpt>
      <trkpt lat="44.8856" lon="5.66616">
        <ele>818.201</ele>
        <time>2012-06-17T07:31:00Z</time>
      </trkpt>
      <trkpt lat="44.88565" lon="5.66628">
        <ele>814.71</ele>
        <time>2012-06-17T07:31:05Z</time>
      </trkpt>
      <trkpt lat="44.88572" lon="5.66643">
        <ele>811.605</ele>
        <time>2012-06-17T07:31:09Z</time>
      </trkpt>
      <trkpt lat="44.88583" lon="5.66659">
        <ele>808.115</ele>
        <time>2012-06-17T07:31:13Z</time>
      </trkpt>
      <trkpt lat="44.88587" lon="5.66664">
        <ele>806.89</ele>
        <time>2012-06-17T07:31:15Z</time>
      </trkpt>
      <trkpt lat="44.88589" lon="5.66671">
        <ele>803.968</ele>
        <time>2012-06-17T07:31:21Z</time>
      </trkpt>
      <trkpt lat="44.88591" lon="5.6667">
        <ele>800.727</ele>
        <time>2012-06-17T07:31:32Z</time>
      </trkpt>
      <trkpt lat="44.88593" lon="5.66671">
        <ele>799.021</ele>
        <time>2012-06-17T07:31:42Z</time>
      </trkpt>
      <trkpt lat="44.88592" lon="5.66681">
        <ele>798.365</ele>
        <time>2012-06-17T07:31:46Z</time>
      </trkpt>
      <trkpt lat="44.88591" lon="5.66695">
        <ele>797.27</ele>
        <time>2012-06-17T07:31:50Z</time>
      </trkpt>
      <trkpt lat="44.8858" lon="5.66745">
        <ele>793.464</ele>
        <time>2012-06-17T07:32:01Z</time>
      </trkpt>
      <trkpt lat="44.88576" lon="5.66771">
        <ele>790.991</ele>
        <time>2012-06-17T07:32:07Z</time>
      </trkpt>
      <trkpt lat="44.8858" lon="5.66787">
        <ele>787.908</ele>
        <time>2012-06-17T07:32:12Z</time>
      </trkpt>
      <trkpt lat="44.88582" lon="5.66792">
        <ele>787.027</ele>
        <time>2012-06-17T07:32:14Z</time>
      </trkpt>
      <trkpt lat="44.88586" lon="5.66813">
        <ele>783.575</ele>
        <time>2012-06-17T07:32:21Z</time>
      </trkpt>
      <trkpt lat="44.88589" lon="5.66833">
        <ele>780.498</ele>
        <time>2012-06-17T07:32:25Z</time>
      </trkpt>
      <trkpt lat="44.88597" lon="5.66852">
        <ele>779.217</ele>
        <time>2012-06-17T07:32:30Z</time>
      </trkpt>
      <trkpt lat="44.88611" lon="5.66846">
        <ele>776.485</ele>
        <time>2012-06-17T07:32:38Z</time>
      </trkpt>
      <trkpt lat="44.88612" lon="5.66838">
        <ele>775.387</ele>
        <time>2012-06-17T07:32:42Z</time>
      </trkpt>
      <trkpt lat="44.88614" lon="5.66832">
        <ele>774.356</ele>
        <time>2012-06-17T07:32:44Z</time>
      </trkpt>
      <trkpt lat="44.88615" lon="5.66825">
        <ele>772.988</ele>
        <time>2012-06-17T07:32:47Z</time>
      </trkpt>
      <trkpt lat="44.88623" lon="5.66805">
        <ele>769.331</ele>
        <time>2012-06-17T07:32:54Z</time>
      </trkpt>
      <trkpt lat="44.88639" lon="5.66785">
        <ele>765.898</ele>
        <time>2012-06-17T07:33:03Z</time>
      </trkpt>
      <trkpt lat="44.88639" lon="5.66782">
        <ele>764.006</ele>
        <time>2012-06-17T07:33:09Z</time>
      </trkpt>
      <trkpt lat="44.88641" lon="5.66782">
        <ele>760.986</ele>
        <time>2012-06-17T07:33:18Z</time>
      </trkpt>
      <trkpt lat="44.8864" lon="5.66788">
        <ele>757.808</ele>
        <time>2012-06-17T07:33:41Z</time>
      </trkpt>
      <trkpt lat="44.88641" lon="5.66789">
        <ele>757.782</ele>
        <time>2012-06-17T07:33:44Z</time>
      </trkpt>
      <trkpt lat="44.88642" lon="5.66816">
        <ele>754.335</ele>
        <time>2012-06-17T07:33:54Z</time>
      </trkpt>
      <trkpt lat="44.88643" lon="5.66823">
        <ele>753.653</ele>
        <time>2012-06-17T07:33:57Z</time>
      </trkpt>
      <trkpt lat="44.8865" lon="5.66846">
        <ele>750.274</ele>
        <time>2012-06-17T07:34:05Z</time>
      </trkpt>
      <trkpt lat="44.88651" lon="5.66852">
        <ele>749.622</ele>
        <time>2012-06-17T07:34:07Z</time>
      </trkpt>
      <trkpt lat="44.88655" lon="5.6686">
        <ele>748.288</ele>
        <time>2012-06-17T07:34:10Z</time>
      </trkpt>
      <trkpt lat="44.88657" lon="5.6687">
        <ele>746.284</ele>
        <time>2012-06-17T07:34:13Z</time>
      </trkpt>
      <trkpt lat="44.88661" lon="5.66881">
        <ele>745.299</ele>
        <time>2012-06-17T07:34:16Z</time>
      </trkpt>
      <trkpt lat="44.88663" lon="5.66895">
        <ele>743.323</ele>
        <time>2012-06-17T07:34:20Z</time>
      </trkpt>
      <trkpt lat="44.88668" lon="5.66915">
        <ele>739.657</ele>
        <time>2012-06-17T07:34:27Z</time>
      </trkpt>
      <trkpt lat="44.88673" lon="5.66939">
        <ele>735.725</ele>
        <time>2012-06-17T07:34:34Z</time>
      </trkpt>
      <trkpt lat="44.88674" lon="5.66952">
        <ele>734.306</ele>
        <time>2012-06-17T07:34:37Z</time>
      </trkpt>
      <trkpt lat="44.88676" lon="5.66961">
        <ele>732.761</ele>
        <time>2012-06-17T07:34:39Z</time>
      </trkpt>
      <trkpt lat="44.88684" lon="5.66971">
        <ele>730.627</ele>
        <time>2012-06-17T07:34:42Z</time>
      </trkpt>
      <trkpt lat="44.88691" lon="5.66986">
        <ele>727.537</ele>
        <time>2012-06-17T07:34:47Z</time>
      </trkpt>
      <trkpt lat="44.88698" lon="5.67002">
        <ele>723.561</ele>
        <time>2012-06-17T07:34:52Z</time>
      </trkpt>
      <trkpt lat="44.88699" lon="5.67004">
        <ele>722.446</ele>
        <time>2012-06-17T07:34:53Z</time>
      </trkpt>
      <trkpt lat="44.88705" lon="5.67012">
        <ele>718.487</ele>
        <time>2012-06-17T07:35:00Z</time>
      </trkpt>
      <trkpt lat="44.88707" lon="5.67013">
        <ele>717.709</ele>
        <time>2012-06-17T07:35:02Z</time>
      </trkpt>
      <trkpt lat="44.8871" lon="5.67016">
        <ele>714.255</ele>
        <time>2012-06-17T07:35:10Z</time>
      </trkpt>
      <trkpt lat="44.8871" lon="5.67017">
        <ele>713.986</ele>
        <time>2012-06-17T07:35:11Z</time>
      </trkpt>
      <trkpt lat="44.88714" lon="5.67024">
        <ele>710.671</ele>
        <time>2012-06-17T07:35:20Z</time>
      </trkpt>
      <trkpt lat="44.88717" lon="5.67029">
        <ele>707.305</ele>
        <time>2012-06-17T07:35:29Z</time>
      </trkpt>
      <trkpt lat="44.88717" lon="5.6703">
        <ele>707.069</ele>
        <time>2012-06-17T07:35:30Z</time>
      </trkpt>
      <trkpt lat="44.8872" lon="5.67034">
        <ele>703.454</ele>
        <time>2012-06-17T07:35:41Z</time>
      </trkpt>
      <trkpt lat="44.8872" lon="5.67032">
        <ele>702.611</ele>
        <time>2012-06-17T07:35:45Z</time>
      </trkpt>
      <trkpt lat="44.88719" lon="5.67014">
        <ele>699.919</ele>
        <time>2012-06-17T07:35:58Z</time>
      </trkpt>
      <trkpt lat="44.88725" lon="5.67009">
        <ele>696.781</ele>
        <time>2012-06-17T07:36:11Z</time>
      </trkpt>
      <trkpt lat="44.88733" lon="5.67022">
        <ele>695.337</ele>
        <time>2012-06-17T07:36:24Z</time>
      </trkpt>
      <trkpt lat="44.88736" lon="5.67025">
        <ele>692.698</ele>
        <time>2012-06-17T07:36:34Z</time>
      </trkpt>
      <trkpt lat="44.88737" lon="5.67021">
        <ele>690.489</ele>
        <time>2012-06-17T07:36:50Z</time>
      </trkpt>
      <trkpt lat="44.88736" lon="5.67004">
        <ele>687.91</ele>
        <time>2012-06-17T07:37:01Z</time>
      </trkpt>
      <trkpt lat="44.88735" lon="5.66973">
        <ele>685.35</ele>
        <time>2012-06-17T07:37:09Z</time>
      </trkpt>
      <trkpt lat="44.88734" lon="5.66958">
        <ele>684.88</ele>
        <time>2012-06-17T07:37:13Z</time>
      </trkpt>
      <trkpt lat="44.88735" lon="5.66947">
        <ele>683.256</ele>
        <time>2012-06-17T07:37:17Z</time>
      </trkpt>
      <trkpt lat="44.88741" lon="5.66918">
        <ele>680.22</ele>
        <time>2012-06-17T07:37:26Z</time>
      </trkpt>
      <trkpt lat="44.88746" lon="5.66899">
        <ele>677.654</ele>
        <time>2012-06-17T07:37:34Z</time>
      </trkpt>
      <trkpt lat="44.88749" lon="5.66895">
        <ele>676.649</ele>
        <time>2012-06-17T07:37:36Z</time>
      </trkpt>
      <trkpt lat="44.88754" lon="5.66888">
        <ele>674.678</ele>
        <time>2012-06-17T07:37:40Z</time>
      </trkpt>
      <trkpt lat="44.8876" lon="5.66879">
        <ele>673.304</ele>
        <time>2012-06-17T07:37:43Z</time>
      </trkpt>
      <trkpt lat="44.88762" lon="5.66874">
        <ele>672.712</ele>
        <time>2012-06-17T07:37:45Z</time>
      </trkpt>
      <trkpt lat="44.88764" lon="5.66863">
        <ele>670.743</ele>
        <time>2012-06-17T07:37:49Z</time>
      </trkpt>
      <trkpt lat="44.88765" lon="5.66845">
        <ele>667.009</ele>
        <time>2012-06-17T07:37:58Z</time>
      </trkpt>
      <trkpt lat="44.88767" lon="5.66835">
        <ele>664.434</ele>
        <time>2012-06-17T07:38:04Z</time>
      </trkpt>
      <trkpt lat="44.8877" lon="5.66825">
        <ele>661.043</ele>
        <time>2012-06-17T07:38:15Z</time>
      </trkpt>
      <trkpt lat="44.88777" lon="5.66819">
        <ele>657.529</ele>
        <time>2012-06-17T07:38:26Z</time>
      </trkpt>
      <trkpt lat="44.8878" lon="5.66822">
        <ele>655.725</ele>
        <time>2012-06-17T07:38:36Z</time>
      </trkpt>
      <trkpt lat="44.8878" lon="5.66857">
        <ele>654.23</ele>
        <time>2012-06-17T07:38:47Z</time>
      </trkpt>
      <trkpt lat="44.88778" lon="5.6689">
        <ele>653.209</ele>
        <time>2012-06-17T07:38:54Z</time>
      </trkpt>
      <trkpt lat="44.88772" lon="5.66931">
        <ele>651.198</ele>
        <time>2012-06-17T07:39:02Z</time>
      </trkpt>
      <trkpt lat="44.88781" lon="5.66951">
        <ele>648.786</ele>
        <time>2012-06-17T07:39:09Z</time>
      </trkpt>
      <trkpt lat="44.88779" lon="5.66971">
        <ele>645.358</ele>
        <time>2012-06-17T07:39:15Z</time>
      </trkpt>
      <trkpt lat="44.88779" lon="5.66973">
        <ele>644.945</ele>
        <time>2012-06-17T07:39:16Z</time>
      </trkpt>
      <trkpt lat="44.88776" lon="5.66985">
        <ele>643.459</ele>
        <time>2012-06-17T07:39:20Z</time>
      </trkpt>
      <trkpt lat="44.88778" lon="5.66991">
        <ele>642.108</ele>
        <time>2012-06-17T07:39:23Z</time>
      </trkpt>
      <trkpt lat="44.88785" lon="5.67007">
        <ele>638.647</ele>
        <time>2012-06-17T07:39:29Z</time>
      </trkpt>
      <trkpt lat="44.88789" lon="5.67013">
        <ele>637.303</ele>
        <time>2012-06-17T07:39:32Z</time>
      </trkpt>
      <trkpt lat="44.88788" lon="5.67018">
        <ele>634.297</ele>
        <time>2012-06-17T07:39:38Z</time>
      </trkpt>
      <trkpt lat="44.88789" lon="5.67021">
        <ele>633.524</ele>
        <time>2012-06-17T07:39:40Z</time>
      </trkpt>
      <trkpt lat="44.88792" lon="5.67028">
        <ele>631.788</ele>
        <time>2012-06-17T07:39:43Z</time>
      </trkpt>
      <trkpt lat="44.88796" lon="5.67053">
        <ele>627.47</ele>
        <time>2012-06-17T07:39:50Z</time>
      </trkpt>
      <trkpt lat="44.88796" lon="5.67057">
        <ele>627.167</ele>
        <time>2012-06-17T07:39:51Z</time>
      </trkpt>
      <trkpt lat="44.88804" lon="5.67071">
        <ele>624.78</ele>
        <time>2012-06-17T07:39:56Z</time>
      </trkpt>
      <trkpt lat="44.88808" lon="5.67087">
        <ele>621.169</ele>
        <time>2012-06-17T07:40:01Z</time>
      </trkpt>
      <trkpt lat="44.8881" lon="5.67089">
        <ele>619.695</ele>
        <time>2012-06-17T07:40:02Z</time>
      </trkpt>
      <trkpt lat="44.88815" lon="5.67101">
        <ele>617.494</ele>
        <time>2012-06-17T07:40:06Z</time>
      </trkpt>
      <trkpt lat="44.88817" lon="5.67104">
        <ele>616.115</ele>
        <time>2012-06-17T07:40:08Z</time>
      </trkpt>
      <trkpt lat="44.88821" lon="5.67112">
        <ele>612.782</ele>
        <time>2012-06-17T07:40:14Z</time>
      </trkpt>
      <trkpt lat="44.88823" lon="5.67117">
        <ele>609.662</ele>
        <time>2012-06-17T07:40:21Z</time>
      </trkpt>
      <trkpt lat="44.88824" lon="5.67127">
        <ele>605.413</ele>
        <time>2012-06-17T07:40:30Z</time>
      </trkpt>
      <trkpt lat="44.88825" lon="5.67133">
        <ele>602.941</ele>
        <time>2012-06-17T07:40:43Z</time>
      </trkpt>
      <trkpt lat="44.88829" lon="5.67144">
        <ele>601.58</ele>
        <time>2012-06-17T07:40:47Z</time>
      </trkpt>
      <trkpt lat="44.88836" lon="5.67173">
        <ele>597.292</ele>
        <time>2012-06-17T07:40:56Z</time>
      </trkpt>
      <trkpt lat="44.8884" lon="5.67182">
        <ele>595.84</ele>
        <time>2012-06-17T07:40:59Z</time>
      </trkpt>
      <trkpt lat="44.88844" lon="5.67198">
        <ele>592.653</ele>
        <time>2012-06-17T07:41:04Z</time>
      </trkpt>
      <trkpt lat="44.88843" lon="5.67207">
        <ele>590.305</ele>
        <time>2012-06-17T07:41:07Z</time>
      </trkpt>
      <trkpt lat="44.88841" lon="5.67218">
        <ele>588.15</ele>
        <time>2012-06-17T07:41:10Z</time>
      </trkpt>
      <trkpt lat="44.88831" lon="5.67231">
        <ele>584.894</ele>
        <time>2012-06-17T07:41:14Z</time>
      </trkpt>
      <trkpt lat="44.88821" lon="5.67237">
        <ele>583.353</ele>
        <time>2012-06-17T07:41:17Z</time>
      </trkpt>
      <trkpt lat="44.88807" lon="5.67248">
        <ele>580.927</ele>
        <time>2012-06-17T07:41:22Z</time>
      </trkpt>
      <trkpt lat="44.88805" lon="5.67251">
        <ele>579.753</ele>
        <time>2012-06-17T07:41:24Z</time>
      </trkpt>
      <trkpt lat="44.88808" lon="5.67253">
        <ele>578.682</ele>
        <time>2012-06-17T07:41:26Z</time>
      </trkpt>
      <trkpt lat="44.88814" lon="5.67251">
        <ele>577.314</ele>
        <time>2012-06-17T07:41:29Z</time>
      </trkpt>
      <trkpt lat="44.88817" lon="5.67251">
        <ele>576.717</ele>
        <time>2012-06-17T07:41:30Z</time>
      </trkpt>
      <trkpt lat="44.88834" lon="5.67252">
        <ele>572.827</ele>
        <time>2012-06-17T07:41:37Z</time>
      </trkpt>
      <trkpt lat="44.88845" lon="5.67254">
        <ele>570.099</ele>
        <time>2012-06-17T07:41:41Z</time>
      </trkpt>
      <trkpt lat="44.88851" lon="5.67257">
        <ele>567.03</ele>
        <time>2012-06-17T07:41:47Z</time>
      </trkpt>
      <trkpt lat="44.88872" lon="5.67264">
        <ele>563.28</ele>
        <time>2012-06-17T07:41:54Z</time>
      </trkpt>
      <trkpt lat="44.88886" lon="5.6727">
        <ele>559.469</ele>
        <time>2012-06-17T07:42:00Z</time>
      </trkpt>
      <trkpt lat="44.88888" lon="5.67272">
        <ele>559.404</ele>
        <time>2012-06-17T07:42:01Z</time>
      </trkpt>
      <trkpt lat="44.88894" lon="5.67278">
        <ele>557.031</ele>
        <time>2012-06-17T07:42:04Z</time>
      </trkpt>
      <trkpt lat="44.88897" lon="5.67288">
        <ele>554.523</ele>
        <time>2012-06-17T07:42:08Z</time>
      </trkpt>
      <trkpt lat="44.88898" lon="5.67291">
        <ele>554.086</ele>
        <time>2012-06-17T07:42:09Z</time>
      </trkpt>
      <trkpt lat="44.889" lon="5.67307">
        <ele>551.234</ele>
        <time>2012-06-17T07:42:13Z</time>
      </trkpt>
      <trkpt lat="44.88898" lon="5.67341">
        <ele>546.996</ele>
        <time>2012-06-17T07:42:19Z</time>
      </trkpt>
      <trkpt lat="44.88896" lon="5.67344">
        <ele>546.763</ele>
        <time>2012-06-17T07:42:20Z</time>
      </trkpt>
      <trkpt lat="44.88889" lon="5.6735">
        <ele>545.204</ele>
        <time>2012-06-17T07:42:22Z</time>
      </trkpt>
      <trkpt lat="44.88873" lon="5.67357">
        <ele>542.791</ele>
        <time>2012-06-17T07:42:26Z</time>
      </trkpt>
      <trkpt lat="44.88866" lon="5.67358">
        <ele>541.858</ele>
        <time>2012-06-17T07:42:28Z</time>
      </trkpt>
      <trkpt lat="44.88858" lon="5.67359">
        <ele>540.761</ele>
        <time>2012-06-17T07:42:38Z</time>
      </trkpt>
      <trkpt lat="44.88855" lon="5.67361">
        <ele>539.032</ele>
        <time>2012-06-17T07:43:10Z</time>
      </trkpt>
      <trkpt lat="44.88856" lon="5.67362">
        <ele>539.869</ele>
        <time>2012-06-17T07:44:18Z</time>
      </trkpt>
      <trkpt lat="44.88853" lon="5.6736">
        <ele>538.278</ele>
        <time>2012-06-17T07:44:31Z</time>
      </trkpt>
      <trkpt lat="44.88853" lon="5.6736">
        <ele>539.582</ele>
        <time>2012-06-17T07:44:34Z</time>
      </trkpt>
      <trkpt lat="44.88853" lon="5.6736">
        <ele>541.582</ele>
        <time>2012-06-17T07:44:39Z</time>
      </trkpt>
      <trkpt lat="44.88857" lon="5.67357">
        <ele>537.818</ele>
        <time>2012-06-17T07:45:07Z</time>
      </trkpt>
      <trkpt lat="44.88857" lon="5.67357">
        <ele>540.141</ele>
        <time>2012-06-17T07:45:10Z</time>
      </trkpt>
      <trkpt lat="44.88837" lon="5.67362">
        <ele>540.725</ele>
        <time>2012-06-17T07:45:45Z</time>
      </trkpt>
      <trkpt lat="44.8878" lon="5.67377">
        <ele>539.734</ele>
        <time>2012-06-17T07:46:03Z</time>
      </trkpt>
      <trkpt lat="44.88709" lon="5.67399">
        <ele>539.466</ele>
        <time>2012-06-17T07:46:21Z</time>
      </trkpt>
      <trkpt lat="44.88689" lon="5.67407">
        <ele>539.737</ele>
        <time>2012-06-17T07:46:26Z</time>
      </trkpt>
      <trkpt lat="44.88625" lon="5.67417">
        <ele>540.414</ele>
        <time>2012-06-17T07:46:42Z</time>
      </trkpt>
      <trkpt lat="44.88547" lon="5.67428">
        <ele>540.385</ele>
        <time>2012-06-17T07:47:03Z</time>
      </trkpt>
      <trkpt lat="44.88508" lon="5.67456">
        <ele>541.632</ele>
        <time>2012-06-17T07:47:15Z</time>
      </trkpt>
      <trkpt lat="44.88455" lon="5.67471">
        <ele>541.993</ele>
        <time>2012-06-17T07:47:30Z</time>
      </trkpt>
      <trkpt lat="44.88389" lon="5.67487">
        <ele>543.699</ele>
        <time>2012-06-17T07:47:49Z</time>
      </trkpt>
      <trkpt lat="44.88345" lon="5.67514">
        <ele>545.946</ele>
        <time>2012-06-17T07:48:04Z</time>
      </trkpt>
      <trkpt lat="44.88289" lon="5.67561">
        <ele>547.383</ele>
        <time>2012-06-17T07:48:24Z</time>
      </trkpt>
      <trkpt lat="44.88259" lon="5.67565">
        <ele>549.859</ele>
        <time>2012-06-17T07:48:36Z</time>
      </trkpt>
      <trkpt lat="44.88234" lon="5.6757">
        <ele>552.404</ele>
        <time>2012-06-17T07:48:50Z</time>
      </trkpt>
      <trkpt lat="44.8821" lon="5.6757">
        <ele>555.366</ele>
        <time>2012-06-17T07:49:03Z</time>
      </trkpt>
      <trkpt lat="44.88189" lon="5.67573">
        <ele>557.146</ele>
        <time>2012-06-17T07:49:15Z</time>
      </trkpt>
      <trkpt lat="44.88168" lon="5.67575">
        <ele>560.188</ele>
        <time>2012-06-17T07:49:29Z</time>
      </trkpt>
      <trkpt lat="44.88148" lon="5.67576">
        <ele>563.323</ele>
        <time>2012-06-17T07:49:43Z</time>
      </trkpt>
      <trkpt lat="44.88142" lon="5.67577">
        <ele>563.608</ele>
        <time>2012-06-17T07:49:47Z</time>
      </trkpt>
      <trkpt lat="44.88122" lon="5.67577">
        <ele>566.262</ele>
        <time>2012-06-17T07:50:02Z</time>
      </trkpt>
      <trkpt lat="44.88094" lon="5.67588">
        <ele>567.781</ele>
        <time>2012-06-17T07:50:18Z</time>
      </trkpt>
      <trkpt lat="44.88063" lon="5.67608">
        <ele>568.992</ele>
        <time>2012-06-17T07:50:31Z</time>
      </trkpt>
      <trkpt lat="44.88031" lon="5.67623">
        <ele>570.676</ele>
        <time>2012-06-17T07:50:45Z</time>
      </trkpt>
      <trkpt lat="44.88001" lon="5.67638">
        <ele>572.887</ele>
        <time>2012-06-17T07:51:00Z</time>
      </trkpt>
      <trkpt lat="44.8798" lon="5.6764">
        <ele>574.559</ele>
        <time>2012-06-17T07:51:12Z</time>
      </trkpt>
      <trkpt lat="44.87968" lon="5.67637">
        <ele>575.474</ele>
        <time>2012-06-17T07:51:20Z</time>
      </trkpt>
      <trkpt lat="44.87961" lon="5.67638">
        <ele>576.156</ele>
        <time>2012-06-17T07:51:25Z</time>
      </trkpt>
      <trkpt lat="44.87956" lon="5.67637">
        <ele>576.905</ele>
        <time>2012-06-17T07:51:30Z</time>
      </trkpt>
      <trkpt lat="44.87939" lon="5.67635">
        <ele>579.229</ele>
        <time>2012-06-17T07:51:43Z</time>
      </trkpt>
      <trkpt lat="44.87925" lon="5.67629">
        <ele>581.145</ele>
        <time>2012-06-17T07:51:54Z</time>
      </trkpt>
      <trkpt lat="44.87914" lon="5.67627">
        <ele>582.932</ele>
        <time>2012-06-17T07:52:03Z</time>
      </trkpt>
      <trkpt lat="44.87895" lon="5.67626">
        <ele>585.442</ele>
        <time>2012-06-17T07:52:17Z</time>
      </trkpt>
      <trkpt lat="44.87876" lon="5.67625">
        <ele>587.715</ele>
        <time>2012-06-17T07:52:33Z</time>
      </trkpt>
      <trkpt lat="44.87863" lon="5.67624">
        <ele>590.134</ele>
        <time>2012-06-17T07:52:45Z</time>
      </trkpt>
      <trkpt lat="44.87854" lon="5.67621">
        <ele>591.84</ele>
        <time>2012-06-17T07:52:53Z</time>
      </trkpt>
      <trkpt lat="44.87845" lon="5.67627">
        <ele>592.138</ele>
        <time>2012-06-17T07:52:58Z</time>
      </trkpt>
      <trkpt lat="44.87841" lon="5.6763">
        <ele>592.445</ele>
        <time>2012-06-17T07:53:00Z</time>
      </trkpt>
      <trkpt lat="44.87819" lon="5.67623">
        <ele>594.674</ele>
        <time>2012-06-17T07:53:13Z</time>
      </trkpt>
      <trkpt lat="44.87807" lon="5.67615">
        <ele>595.937</ele>
        <time>2012-06-17T07:53:24Z</time>
      </trkpt>
      <trkpt lat="44.878" lon="5.6761">
        <ele>596.552</ele>
        <time>2012-06-17T07:53:29Z</time>
      </trkpt>
      <trkpt lat="44.87777" lon="5.67606">
        <ele>598.664</ele>
        <time>2012-06-17T07:53:43Z</time>
      </trkpt>
      <trkpt lat="44.87756" lon="5.67608">
        <ele>601.576</ele>
        <time>2012-06-17T07:53:58Z</time>
      </trkpt>
      <trkpt lat="44.87753" lon="5.67607">
        <ele>601.92</ele>
        <time>2012-06-17T07:54:00Z</time>
      </trkpt>
      <trkpt lat="44.87745" lon="5.67607">
        <ele>602.424</ele>
        <time>2012-06-17T07:54:06Z</time>
      </trkpt>
      <trkpt lat="44.87721" lon="5.67604">
        <ele>603.632</ele>
        <time>2012-06-17T07:54:18Z</time>
      </trkpt>
      <trkpt lat="44.87707" lon="5.67601">
        <ele>604.973</ele>
        <time>2012-06-17T07:54:27Z</time>
      </trkpt>
      <trkpt lat="44.87693" lon="5.676">
        <ele>606.031</ele>
        <time>2012-06-17T07:54:35Z</time>
      </trkpt>
      <trkpt lat="44.87682" lon="5.67602">
        <ele>607.275</ele>
        <time>2012-06-17T07:54:42Z</time>
      </trkpt>
      <trkpt lat="44.87666" lon="5.67598">
        <ele>608.433</ele>
        <time>2012-06-17T07:54:54Z</time>
      </trkpt>
      <trkpt lat="44.87663" lon="5.67597">
        <ele>609.068</ele>
        <time>2012-06-17T07:54:57Z</time>
      </trkpt>
      <trkpt lat="44.87641" lon="5.67591">
        <ele>610.568</ele>
        <time>2012-06-17T07:55:09Z</time>
      </trkpt>
      <trkpt lat="44.87624" lon="5.67599">
        <ele>612.735</ele>
        <time>2012-06-17T07:55:23Z</time>
      </trkpt>
      <trkpt lat="44.87611" lon="5.67594">
        <ele>615.463</ele>
        <time>2012-06-17T07:55:35Z</time>
      </trkpt>
      <trkpt lat="44.87602" lon="5.67594">
        <ele>615.458</ele>
        <time>2012-06-17T07:55:39Z</time>
      </trkpt>
      <trkpt lat="44.87589" lon="5.67587">
        <ele>616.184</ele>
        <time>2012-06-17T07:55:44Z</time>
      </trkpt>
      <trkpt lat="44.87583" lon="5.67585">
        <ele>616.659</ele>
        <time>2012-06-17T07:55:48Z</time>
      </trkpt>
      <trkpt lat="44.87565" lon="5.67581">
        <ele>617.792</ele>
        <time>2012-06-17T07:56:01Z</time>
      </trkpt>
      <trkpt lat="44.87561" lon="5.67582">
        <ele>618.72</ele>
        <time>2012-06-17T07:56:05Z</time>
      </trkpt>
      <trkpt lat="44.87552" lon="5.67584">
        <ele>619.226</ele>
        <time>2012-06-17T07:56:11Z</time>
      </trkpt>
      <trkpt lat="44.87545" lon="5.67583">
        <ele>619.88</ele>
        <time>2012-06-17T07:56:16Z</time>
      </trkpt>
      <trkpt lat="44.87538" lon="5.67582">
        <ele>620.625</ele>
        <time>2012-06-17T07:56:21Z</time>
      </trkpt>
      <trkpt lat="44.87519" lon="5.67576">
        <ele>621.324</ele>
        <time>2012-06-17T07:56:31Z</time>
      </trkpt>
      <trkpt lat="44.87511" lon="5.67575">
        <ele>621.622</ele>
        <time>2012-06-17T07:56:35Z</time>
      </trkpt>
      <trkpt lat="44.87491" lon="5.67566">
        <ele>623.584</ele>
        <time>2012-06-17T07:56:50Z</time>
      </trkpt>
      <trkpt lat="44.87482" lon="5.67559">
        <ele>624.609</ele>
        <time>2012-06-17T07:56:57Z</time>
      </trkpt>
      <trkpt lat="44.87479" lon="5.67557">
        <ele>624.662</ele>
        <time>2012-06-17T07:56:59Z</time>
      </trkpt>
      <trkpt lat="44.8747" lon="5.67556">
        <ele>624.796</ele>
        <time>2012-06-17T07:57:03Z</time>
      </trkpt>
      <trkpt lat="44.87455" lon="5.67552">
        <ele>627.141</ele>
        <time>2012-06-17T07:57:15Z</time>
      </trkpt>
      <trkpt lat="44.87444" lon="5.67542">
        <ele>630.133</ele>
        <time>2012-06-17T07:57:30Z</time>
      </trkpt>
      <trkpt lat="44.87434" lon="5.67536">
        <ele>632.428</ele>
        <time>2012-06-17T07:57:46Z</time>
      </trkpt>
      <trkpt lat="44.87428" lon="5.67532">
        <ele>634.959</ele>
        <time>2012-06-17T07:57:58Z</time>
      </trkpt>
      <trkpt lat="44.87427" lon="5.67521">
        <ele>638.059</ele>
        <time>2012-06-17T07:58:13Z</time>
      </trkpt>
      <trkpt lat="44.87424" lon="5.67519">
        <ele>640.491</ele>
        <time>2012-06-17T07:58:31Z</time>
      </trkpt>
      <trkpt lat="44.87418" lon="5.67514">
        <ele>643.614</ele>
        <time>2012-06-17T07:59:07Z</time>
      </trkpt>
      <trkpt lat="44.87409" lon="5.67508">
        <ele>646.089</ele>
        <time>2012-06-17T07:59:23Z</time>
      </trkpt>
      <trkpt lat="44.87408" lon="5.67498">
        <ele>649.218</ele>
        <time>2012-06-17T07:59:38Z</time>
      </trkpt>
      <trkpt lat="44.87402" lon="5.67496">
        <ele>652.062</ele>
        <time>2012-06-17T07:59:51Z</time>
      </trkpt>
      <trkpt lat="44.87395" lon="5.67486">
        <ele>654.608</ele>
        <time>2012-06-17T08:00:06Z</time>
      </trkpt>
      <trkpt lat="44.87395" lon="5.67476">
        <ele>657.255</ele>
        <time>2012-06-17T08:00:21Z</time>
      </trkpt>
      <trkpt lat="44.8739" lon="5.67472">
        <ele>659.884</ele>
        <time>2012-06-17T08:00:33Z</time>
      </trkpt>
      <trkpt lat="44.8739" lon="5.67465">
        <ele>662.353</ele>
        <time>2012-06-17T08:00:50Z</time>
      </trkpt>
      <trkpt lat="44.8738" lon="5.6746">
        <ele>665.486</ele>
        <time>2012-06-17T08:01:08Z</time>
      </trkpt>
      <trkpt lat="44.87373" lon="5.67456">
        <ele>667.496</ele>
        <time>2012-06-17T08:01:21Z</time>
      </trkpt>
      <trkpt lat="44.87367" lon="5.67448">
        <ele>670.041</ele>
        <time>2012-06-17T08:01:34Z</time>
      </trkpt>
      <trkpt lat="44.87361" lon="5.67443">
        <ele>672.953</ele>
        <time>2012-06-17T08:01:47Z</time>
      </trkpt>
      <trkpt lat="44.87357" lon="5.67437">
        <ele>676.194</ele>
        <time>2012-06-17T08:02:01Z</time>
      </trkpt>
      <trkpt lat="44.8735" lon="5.67425">
        <ele>679.385</ele>
        <time>2012-06-17T08:02:17Z</time>
      </trkpt>
      <trkpt lat="44.87341" lon="5.67416">
        <ele>682.352</ele>
        <time>2012-06-17T08:02:35Z</time>
      </trkpt>
      <trkpt lat="44.87336" lon="5.6741">
        <ele>683.611</ele>
        <time>2012-06-17T08:02:44Z</time>
      </trkpt>
      <trkpt lat="44.87322" lon="5.67395">
        <ele>685.363</ele>
        <time>2012-06-17T08:03:04Z</time>
      </trkpt>
      <trkpt lat="44.87315" lon="5.67387">
        <ele>687.014</ele>
        <time>2012-06-17T08:03:23Z</time>
      </trkpt>
      <trkpt lat="44.87302" lon="5.67377">
        <ele>687.026</ele>
        <time>2012-06-17T08:03:38Z</time>
      </trkpt>
      <trkpt lat="44.87288" lon="5.6736">
        <ele>689.346</ele>
        <time>2012-06-17T08:03:58Z</time>
      </trkpt>
      <trkpt lat="44.87285" lon="5.67347">
        <ele>691.257</ele>
        <time>2012-06-17T08:04:12Z</time>
      </trkpt>
      <trkpt lat="44.87286" lon="5.67341">
        <ele>692.174</ele>
        <time>2012-06-17T08:04:36Z</time>
      </trkpt>
      <trkpt lat="44.87288" lon="5.6734">
        <ele>692.868</ele>
        <time>2012-06-17T08:04:47Z</time>
      </trkpt>
      <trkpt lat="44.87291" lon="5.67333">
        <ele>692.361</ele>
        <time>2012-06-17T08:04:51Z</time>
      </trkpt>
      <trkpt lat="44.87293" lon="5.6733">
        <ele>692.268</ele>
        <time>2012-06-17T08:04:53Z</time>
      </trkpt>
      <trkpt lat="44.87298" lon="5.67293">
        <ele>690.751</ele>
        <time>2012-06-17T08:05:04Z</time>
      </trkpt>
      <trkpt lat="44.87299" lon="5.67287">
        <ele>690.62</ele>
        <time>2012-06-17T08:05:05Z</time>
      </trkpt>
      <trkpt lat="44.87297" lon="5.67246">
        <ele>691.263</ele>
        <time>2012-06-17T08:05:10Z</time>
      </trkpt>
      <trkpt lat="44.8729" lon="5.67246">
        <ele>691.768</ele>
        <time>2012-06-17T08:05:14Z</time>
      </trkpt>
      <trkpt lat="44.87266" lon="5.67225">
        <ele>693.074</ele>
        <time>2012-06-17T08:05:27Z</time>
      </trkpt>
      <trkpt lat="44.87262" lon="5.6721">
        <ele>695.549</ele>
        <time>2012-06-17T08:05:40Z</time>
      </trkpt>
      <trkpt lat="44.87255" lon="5.672">
        <ele>696.952</ele>
        <time>2012-06-17T08:05:54Z</time>
      </trkpt>
      <trkpt lat="44.87255" lon="5.67194">
        <ele>698.092</ele>
        <time>2012-06-17T08:06:07Z</time>
      </trkpt>
      <trkpt lat="44.87267" lon="5.67185">
        <ele>699.144</ele>
        <time>2012-06-17T08:06:23Z</time>
      </trkpt>
      <trkpt lat="44.87261" lon="5.67171">
        <ele>700.863</ele>
        <time>2012-06-17T08:06:37Z</time>
      </trkpt>
      <trkpt lat="44.87257" lon="5.67154">
        <ele>701.798</ele>
        <time>2012-06-17T08:06:54Z</time>
      </trkpt>
      <trkpt lat="44.87256" lon="5.67135">
        <ele>702.938</ele>
        <time>2012-06-17T08:07:12Z</time>
      </trkpt>
      <trkpt lat="44.87257" lon="5.67125">
        <ele>704.569</ele>
        <time>2012-06-17T08:07:27Z</time>
      </trkpt>
      <trkpt lat="44.87262" lon="5.67124">
        <ele>707.808</ele>
        <time>2012-06-17T08:07:41Z</time>
      </trkpt>
      <trkpt lat="44.8726" lon="5.67112">
        <ele>710.44</ele>
        <time>2012-06-17T08:07:54Z</time>
      </trkpt>
      <trkpt lat="44.8726" lon="5.67102">
        <ele>712.545</ele>
        <time>2012-06-17T08:08:10Z</time>
      </trkpt>
      <trkpt lat="44.87257" lon="5.67088">
        <ele>715.861</ele>
        <time>2012-06-17T08:08:28Z</time>
      </trkpt>
      <trkpt lat="44.8726" lon="5.67082">
        <ele>716.85</ele>
        <time>2012-06-17T08:08:35Z</time>
      </trkpt>
      <trkpt lat="44.87268" lon="5.67088">
        <ele>720.293</ele>
        <time>2012-06-17T08:08:51Z</time>
      </trkpt>
      <trkpt lat="44.87276" lon="5.67091">
        <ele>723.392</ele>
        <time>2012-06-17T08:09:06Z</time>
      </trkpt>
      <trkpt lat="44.87286" lon="5.67097">
        <ele>725.798</ele>
        <time>2012-06-17T08:09:23Z</time>
      </trkpt>
      <trkpt lat="44.87295" lon="5.67099">
        <ele>728.849</ele>
        <time>2012-06-17T08:09:37Z</time>
      </trkpt>
      <trkpt lat="44.87304" lon="5.67099">
        <ele>731.33</ele>
        <time>2012-06-17T08:09:55Z</time>
      </trkpt>
      <trkpt lat="44.87322" lon="5.67096">
        <ele>733.092</ele>
        <time>2012-06-17T08:10:08Z</time>
      </trkpt>
      <trkpt lat="44.87338" lon="5.67096">
        <ele>735.099</ele>
        <time>2012-06-17T08:10:20Z</time>
      </trkpt>
      <trkpt lat="44.87353" lon="5.67097">
        <ele>736.927</ele>
        <time>2012-06-17T08:10:34Z</time>
      </trkpt>
      <trkpt lat="44.87364" lon="5.67096">
        <ele>738.824</ele>
        <time>2012-06-17T08:10:42Z</time>
      </trkpt>
      <trkpt lat="44.87388" lon="5.67093">
        <ele>740.074</ele>
        <time>2012-06-17T08:10:56Z</time>
      </trkpt>
      <trkpt lat="44.87412" lon="5.67087">
        <ele>741.213</ele>
        <time>2012-06-17T08:11:08Z</time>
      </trkpt>
      <trkpt lat="44.87446" lon="5.67077">
        <ele>742.359</ele>
        <time>2012-06-17T08:11:19Z</time>
      </trkpt>
      <trkpt lat="44.87451" lon="5.67075">
        <ele>742.205</ele>
        <time>2012-06-17T08:11:21Z</time>
      </trkpt>
      <trkpt lat="44.87456" lon="5.67063">
        <ele>743.383</ele>
        <time>2012-06-17T08:11:32Z</time>
      </trkpt>
      <trkpt lat="44.87422" lon="5.67056">
        <ele>741.281</ele>
        <time>2012-06-17T08:11:44Z</time>
      </trkpt>
      <trkpt lat="44.87382" lon="5.67047">
        <ele>738.655</ele>
        <time>2012-06-17T08:11:54Z</time>
      </trkpt>
      <trkpt lat="44.87348" lon="5.67035">
        <ele>735.31</ele>
        <time>2012-06-17T08:12:05Z</time>
      </trkpt>
      <trkpt lat="44.87343" lon="5.67033">
        <ele>734.453</ele>
        <time>2012-06-17T08:12:07Z</time>
      </trkpt>
      <trkpt lat="44.8734" lon="5.67032">
        <ele>733.605</ele>
        <time>2012-06-17T08:12:09Z</time>
      </trkpt>
      <trkpt lat="44.87337" lon="5.67033">
        <ele>733.182</ele>
        <time>2012-06-17T08:12:11Z</time>
      </trkpt>
      <trkpt lat="44.87325" lon="5.67029">
        <ele>729.446</ele>
        <time>2012-06-17T08:12:16Z</time>
      </trkpt>
      <trkpt lat="44.87307" lon="5.67029">
        <ele>726.121</ele>
        <time>2012-06-17T08:12:21Z</time>
      </trkpt>
      <trkpt lat="44.87303" lon="5.67029">
        <ele>725.615</ele>
        <time>2012-06-17T08:12:22Z</time>
      </trkpt>
      <trkpt lat="44.87287" lon="5.67035">
        <ele>724.036</ele>
        <time>2012-06-17T08:12:26Z</time>
      </trkpt>
      <trkpt lat="44.87264" lon="5.67033">
        <ele>720.335</ele>
        <time>2012-06-17T08:12:36Z</time>
      </trkpt>
      <trkpt lat="44.87254" lon="5.67031">
        <ele>718.78</ele>
        <time>2012-06-17T08:12:39Z</time>
      </trkpt>
      <trkpt lat="44.87237" lon="5.67029">
        <ele>715.761</ele>
        <time>2012-06-17T08:12:44Z</time>
      </trkpt>
      <trkpt lat="44.87225" lon="5.6703">
        <ele>713.839</ele>
        <time>2012-06-17T08:12:48Z</time>
      </trkpt>
      <trkpt lat="44.87209" lon="5.67033">
        <ele>710.808</ele>
        <time>2012-06-17T08:12:55Z</time>
      </trkpt>
      <trkpt lat="44.87203" lon="5.67034">
        <ele>707.727</ele>
        <time>2012-06-17T08:12:59Z</time>
      </trkpt>
      <trkpt lat="44.87202" lon="5.67034">
        <ele>708.028</ele>
        <time>2012-06-17T08:13:00Z</time>
      </trkpt>
      <trkpt lat="44.872" lon="5.67032">
        <ele>706.576</ele>
        <time>2012-06-17T08:13:03Z</time>
      </trkpt>
      <trkpt lat="44.87199" lon="5.67031">
        <ele>704.693</ele>
        <time>2012-06-17T08:13:05Z</time>
      </trkpt>
      <trkpt lat="44.872" lon="5.6703">
        <ele>703.656</ele>
        <time>2012-06-17T08:13:07Z</time>
      </trkpt>
      <trkpt lat="44.87203" lon="5.67013">
        <ele>699.793</ele>
        <time>2012-06-17T08:13:13Z</time>
      </trkpt>
      <trkpt lat="44.87205" lon="5.67008">
        <ele>699.814</ele>
        <time>2012-06-17T08:13:14Z</time>
      </trkpt>
      <trkpt lat="44.87208" lon="5.67003">
        <ele>698.225</ele>
        <time>2012-06-17T08:13:15Z</time>
      </trkpt>
      <trkpt lat="44.87218" lon="5.66984">
        <ele>696.605</ele>
        <time>2012-06-17T08:13:19Z</time>
      </trkpt>
      <trkpt lat="44.87213" lon="5.66977">
        <ele>695.833</ele>
        <time>2012-06-17T08:13:24Z</time>
      </trkpt>
      <trkpt lat="44.87207" lon="5.66978">
        <ele>692.934</ele>
        <time>2012-06-17T08:13:27Z</time>
      </trkpt>
      <trkpt lat="44.87191" lon="5.66974">
        <ele>689.415</ele>
        <time>2012-06-17T08:13:33Z</time>
      </trkpt>
      <trkpt lat="44.87177" lon="5.66976">
        <ele>686.062</ele>
        <time>2012-06-17T08:13:40Z</time>
      </trkpt>
      <trkpt lat="44.87163" lon="5.66974">
        <ele>682.858</ele>
        <time>2012-06-17T08:13:45Z</time>
      </trkpt>
      <trkpt lat="44.87158" lon="5.66975">
        <ele>679.622</ele>
        <time>2012-06-17T08:13:48Z</time>
      </trkpt>
      <trkpt lat="44.87143" lon="5.66976">
        <ele>676.603</ele>
        <time>2012-06-17T08:13:53Z</time>
      </trkpt>
      <trkpt lat="44.87128" lon="5.66972">
        <ele>673.363</ele>
        <time>2012-06-17T08:13:59Z</time>
      </trkpt>
      <trkpt lat="44.87115" lon="5.66968">
        <ele>670.187</ele>
        <time>2012-06-17T08:14:04Z</time>
      </trkpt>
      <trkpt lat="44.871" lon="5.66965">
        <ele>666.62</ele>
        <time>2012-06-17T08:14:09Z</time>
      </trkpt>
      <trkpt lat="44.87087" lon="5.66969">
        <ele>664.001</ele>
        <time>2012-06-17T08:14:13Z</time>
      </trkpt>
      <trkpt lat="44.87083" lon="5.66968">
        <ele>663.045</ele>
        <time>2012-06-17T08:14:15Z</time>
      </trkpt>
      <trkpt lat="44.87077" lon="5.66961">
        <ele>660.429</ele>
        <time>2012-06-17T08:14:19Z</time>
      </trkpt>
      <trkpt lat="44.87064" lon="5.66958">
        <ele>657.856</ele>
        <time>2012-06-17T08:14:24Z</time>
      </trkpt>
      <trkpt lat="44.87061" lon="5.66953">
        <ele>656.401</ele>
        <time>2012-06-17T08:14:26Z</time>
      </trkpt>
      <trkpt lat="44.87049" lon="5.6695">
        <ele>652.764</ele>
        <time>2012-06-17T08:14:31Z</time>
      </trkpt>
      <trkpt lat="44.87045" lon="5.66951">
        <ele>651.076</ele>
        <time>2012-06-17T08:14:34Z</time>
      </trkpt>
      <trkpt lat="44.87043" lon="5.66951">
        <ele>648.387</ele>
        <time>2012-06-17T08:14:38Z</time>
      </trkpt>
      <trkpt lat="44.87043" lon="5.66952">
        <ele>645.087</ele>
        <time>2012-06-17T08:14:45Z</time>
      </trkpt>
      <trkpt lat="44.87043" lon="5.66952">
        <ele>644.244</ele>
        <time>2012-06-17T08:14:47Z</time>
      </trkpt>
      <trkpt lat="44.87039" lon="5.66956">
        <ele>640.979</ele>
        <time>2012-06-17T08:14:57Z</time>
      </trkpt>
      <trkpt lat="44.87037" lon="5.66957">
        <ele>637.72</ele>
        <time>2012-06-17T08:15:03Z</time>
      </trkpt>
      <trkpt lat="44.87037" lon="5.66957">
        <ele>637.615</ele>
        <time>2012-06-17T08:15:04Z</time>
      </trkpt>
      <trkpt lat="44.87036" lon="5.66957">
        <ele>637.107</ele>
        <time>2012-06-17T08:15:05Z</time>
      </trkpt>
      <trkpt lat="44.87028" lon="5.66952">
        <ele>634.764</ele>
        <time>2012-06-17T08:15:11Z</time>
      </trkpt>
      <trkpt lat="44.87022" lon="5.6695">
        <ele>633.129</ele>
        <time>2012-06-17T08:15:14Z</time>
      </trkpt>
      <trkpt lat="44.87013" lon="5.66938">
        <ele>630.121</ele>
        <time>2012-06-17T08:15:21Z</time>
      </trkpt>
      <trkpt lat="44.87007" lon="5.66929">
        <ele>627.574</ele>
        <time>2012-06-17T08:15:26Z</time>
      </trkpt>
      <trkpt lat="44.87007" lon="5.66927">
        <ele>627.086</ele>
        <time>2012-06-17T08:15:27Z</time>
      </trkpt>
      <trkpt lat="44.87002" lon="5.66912">
        <ele>624.284</ele>
        <time>2012-06-17T08:15:34Z</time>
      </trkpt>
      <trkpt lat="44.87001" lon="5.66897">
        <ele>622.377</ele>
        <time>2012-06-17T08:15:39Z</time>
      </trkpt>
      <trkpt lat="44.87001" lon="5.66891">
        <ele>621.409</ele>
        <time>2012-06-17T08:15:41Z</time>
      </trkpt>
      <trkpt lat="44.86991" lon="5.66882">
        <ele>617.861</ele>
        <time>2012-06-17T08:15:47Z</time>
      </trkpt>
      <trkpt lat="44.86985" lon="5.66881">
        <ele>616.24</ele>
        <time>2012-06-17T08:15:51Z</time>
      </trkpt>
      <trkpt lat="44.86978" lon="5.66869">
        <ele>612.852</ele>
        <time>2012-06-17T08:15:56Z</time>
      </trkpt>
      <trkpt lat="44.86976" lon="5.66863">
        <ele>611.915</ele>
        <time>2012-06-17T08:15:58Z</time>
      </trkpt>
      <trkpt lat="44.8697" lon="5.66849">
        <ele>608.979</ele>
        <time>2012-06-17T08:16:03Z</time>
      </trkpt>
      <trkpt lat="44.86968" lon="5.66846">
        <ele>607.421</ele>
        <time>2012-06-17T08:16:05Z</time>
      </trkpt>
      <trkpt lat="44.8696" lon="5.66847">
        <ele>604.876</ele>
        <time>2012-06-17T08:16:09Z</time>
      </trkpt>
      <trkpt lat="44.86948" lon="5.66851">
        <ele>601.367</ele>
        <time>2012-06-17T08:16:14Z</time>
      </trkpt>
      <trkpt lat="44.86943" lon="5.66852">
        <ele>600.65</ele>
        <time>2012-06-17T08:16:16Z</time>
      </trkpt>
      <trkpt lat="44.8694" lon="5.66853">
        <ele>599.883</ele>
        <time>2012-06-17T08:16:17Z</time>
      </trkpt>
      <trkpt lat="44.86935" lon="5.66863">
        <ele>597.449</ele>
        <time>2012-06-17T08:16:23Z</time>
      </trkpt>
      <trkpt lat="44.86934" lon="5.66877">
        <ele>596.167</ele>
        <time>2012-06-17T08:16:26Z</time>
      </trkpt>
      <trkpt lat="44.86933" lon="5.66912">
        <ele>593.567</ele>
        <time>2012-06-17T08:16:31Z</time>
      </trkpt>
      <trkpt lat="44.86933" lon="5.66971">
        <ele>590.38</ele>
        <time>2012-06-17T08:16:37Z</time>
      </trkpt>
      <trkpt lat="44.86931" lon="5.67009">
        <ele>588.609</ele>
        <time>2012-06-17T08:16:41Z</time>
      </trkpt>
      <trkpt lat="44.86912" lon="5.6702">
        <ele>586.069</ele>
        <time>2012-06-17T08:16:47Z</time>
      </trkpt>
      <trkpt lat="44.86912" lon="5.67004">
        <ele>584.679</ele>
        <time>2012-06-17T08:16:49Z</time>
      </trkpt>
      <trkpt lat="44.86913" lon="5.66987">
        <ele>583.931</ele>
        <time>2012-06-17T08:16:51Z</time>
      </trkpt>
      <trkpt lat="44.86915" lon="5.66949">
        <ele>582.647</ele>
        <time>2012-06-17T08:16:55Z</time>
      </trkpt>
      <trkpt lat="44.86907" lon="5.6691">
        <ele>580.682</ele>
        <time>2012-06-17T08:16:59Z</time>
      </trkpt>
      <trkpt lat="44.86898" lon="5.6689">
        <ele>579.62</ele>
        <time>2012-06-17T08:17:01Z</time>
      </trkpt>
      <trkpt lat="44.86887" lon="5.6686">
        <ele>577.878</ele>
        <time>2012-06-17T08:17:04Z</time>
      </trkpt>
      <trkpt lat="44.86882" lon="5.66823">
        <ele>576.275</ele>
        <time>2012-06-17T08:17:08Z</time>
      </trkpt>
      <trkpt lat="44.86871" lon="5.66809">
        <ele>574.786</ele>
        <time>2012-06-17T08:17:12Z</time>
      </trkpt>
      <trkpt lat="44.86863" lon="5.66825">
        <ele>573.273</ele>
        <time>2012-06-17T08:17:16Z</time>
      </trkpt>
      <trkpt lat="44.86863" lon="5.66885">
        <ele>570.645</ele>
        <time>2012-06-17T08:17:23Z</time>
      </trkpt>
      <trkpt lat="44.86858" lon="5.66927">
        <ele>568.439</ele>
        <time>2012-06-17T08:17:27Z</time>
      </trkpt>
      <trkpt lat="44.86847" lon="5.66999">
        <ele>565.339</ele>
        <time>2012-06-17T08:17:33Z</time>
      </trkpt>
      <trkpt lat="44.86809" lon="5.67096">
        <ele>561.579</ele>
        <time>2012-06-17T08:17:43Z</time>
      </trkpt>
      <trkpt lat="44.86769" lon="5.67183">
        <ele>559.249</ele>
        <time>2012-06-17T08:17:57Z</time>
      </trkpt>
      <trkpt lat="44.86744" lon="5.67223">
        <ele>559.194</ele>
        <time>2012-06-17T08:18:11Z</time>
      </trkpt>
      <trkpt lat="44.86729" lon="5.67266">
        <ele>559.942</ele>
        <time>2012-06-17T08:18:24Z</time>
      </trkpt>
      <trkpt lat="44.86724" lon="5.67321">
        <ele>561.179</ele>
        <time>2012-06-17T08:18:40Z</time>
      </trkpt>
      <trkpt lat="44.86724" lon="5.67382">
        <ele>563.944</ele>
        <time>2012-06-17T08:18:57Z</time>
      </trkpt>
      <trkpt lat="44.86725" lon="5.67424">
        <ele>567.285</ele>
        <time>2012-06-17T08:19:11Z</time>
      </trkpt>
      <trkpt lat="44.86722" lon="5.67477">
        <ele>570.411</ele>
        <time>2012-06-17T08:19:28Z</time>
      </trkpt>
      <trkpt lat="44.8672" lon="5.67523">
        <ele>572.416</ele>
        <time>2012-06-17T08:19:46Z</time>
      </trkpt>
      <trkpt lat="44.86728" lon="5.67567">
        <ele>575.111</ele>
        <time>2012-06-17T08:20:02Z</time>
      </trkpt>
      <trkpt lat="44.86729" lon="5.67615">
        <ele>577.43</ele>
        <time>2012-06-17T08:20:18Z</time>
      </trkpt>
      <trkpt lat="44.86721" lon="5.6766">
        <ele>579.873</ele>
        <time>2012-06-17T08:20:34Z</time>
      </trkpt>
      <trkpt lat="44.86708" lon="5.6764">
        <ele>581.288</ele>
        <time>2012-06-17T08:20:45Z</time>
      </trkpt>
      <trkpt lat="44.86702" lon="5.67576">
        <ele>584.545</ele>
        <time>2012-06-17T08:21:02Z</time>
      </trkpt>
      <trkpt lat="44.86681" lon="5.67516">
        <ele>587.844</ele>
        <time>2012-06-17T08:21:23Z</time>
      </trkpt>
      <trkpt lat="44.86663" lon="5.6747">
        <ele>590.964</ele>
        <time>2012-06-17T08:21:40Z</time>
      </trkpt>
      <trkpt lat="44.86645" lon="5.67426">
        <ele>594.032</ele>
        <time>2012-06-17T08:21:56Z</time>
      </trkpt>
      <trkpt lat="44.86632" lon="5.67383">
        <ele>597.128</ele>
        <time>2012-06-17T08:22:12Z</time>
      </trkpt>
      <trkpt lat="44.86605" lon="5.67354">
        <ele>598.773</ele>
        <time>2012-06-17T08:22:30Z</time>
      </trkpt>
      <trkpt lat="44.86601" lon="5.67391">
        <ele>599.744</ele>
        <time>2012-06-17T08:22:43Z</time>
      </trkpt>
      <trkpt lat="44.86604" lon="5.67451">
        <ele>602.846</ele>
        <time>2012-06-17T08:23:03Z</time>
      </trkpt>
      <trkpt lat="44.86589" lon="5.67497">
        <ele>605.27</ele>
        <time>2012-06-17T08:23:21Z</time>
      </trkpt>
      <trkpt lat="44.86569" lon="5.67546">
        <ele>607.504</ele>
        <time>2012-06-17T08:23:39Z</time>
      </trkpt>
      <trkpt lat="44.86545" lon="5.67599">
        <ele>610.544</ele>
        <time>2012-06-17T08:23:59Z</time>
      </trkpt>
      <trkpt lat="44.86524" lon="5.6766">
        <ele>613.87</ele>
        <time>2012-06-17T08:24:21Z</time>
      </trkpt>
      <trkpt lat="44.86508" lon="5.67715">
        <ele>616.581</ele>
        <time>2012-06-17T08:24:42Z</time>
      </trkpt>
      <trkpt lat="44.86487" lon="5.67711">
        <ele>618.343</ele>
        <time>2012-06-17T08:24:54Z</time>
      </trkpt>
      <trkpt lat="44.86479" lon="5.67677">
        <ele>621.857</ele>
        <time>2012-06-17T08:25:05Z</time>
      </trkpt>
      <trkpt lat="44.86468" lon="5.67623">
        <ele>624.973</ele>
        <time>2012-06-17T08:25:24Z</time>
      </trkpt>
      <trkpt lat="44.86462" lon="5.67584">
        <ele>628.106</ele>
        <time>2012-06-17T08:25:38Z</time>
      </trkpt>
      <trkpt lat="44.86459" lon="5.6757">
        <ele>629.632</ele>
        <time>2012-06-17T08:25:43Z</time>
      </trkpt>
      <trkpt lat="44.86444" lon="5.67528">
        <ele>632.167</ele>
        <time>2012-06-17T08:26:00Z</time>
      </trkpt>
      <trkpt lat="44.86433" lon="5.67556">
        <ele>633.747</ele>
        <time>2012-06-17T08:26:10Z</time>
      </trkpt>
      <trkpt lat="44.8642" lon="5.67618">
        <ele>637.088</ele>
        <time>2012-06-17T08:26:29Z</time>
      </trkpt>
      <trkpt lat="44.86391" lon="5.67687">
        <ele>640.123</ele>
        <time>2012-06-17T08:26:55Z</time>
      </trkpt>
      <trkpt lat="44.86367" lon="5.67741">
        <ele>642.852</ele>
        <time>2012-06-17T08:27:17Z</time>
      </trkpt>
      <trkpt lat="44.86344" lon="5.67792">
        <ele>646.085</ele>
        <time>2012-06-17T08:27:38Z</time>
      </trkpt>
      <trkpt lat="44.86323" lon="5.67842">
        <ele>648.683</ele>
        <time>2012-06-17T08:27:57Z</time>
      </trkpt>
      <trkpt lat="44.86303" lon="5.6789">
        <ele>651.769</ele>
        <time>2012-06-17T08:28:15Z</time>
      </trkpt>
      <trkpt lat="44.86278" lon="5.67952">
        <ele>654.606</ele>
        <time>2012-06-17T08:28:36Z</time>
      </trkpt>
      <trkpt lat="44.86246" lon="5.68006">
        <ele>656.868</ele>
        <time>2012-06-17T08:28:55Z</time>
      </trkpt>
      <trkpt lat="44.86214" lon="5.68061">
        <ele>659.795</ele>
        <time>2012-06-17T08:29:15Z</time>
      </trkpt>
      <trkpt lat="44.86189" lon="5.681">
        <ele>661.753</ele>
        <time>2012-06-17T08:29:30Z</time>
      </trkpt>
      <trkpt lat="44.86161" lon="5.68128">
        <ele>663.118</ele>
        <time>2012-06-17T08:29:45Z</time>
      </trkpt>
      <trkpt lat="44.86133" lon="5.68145">
        <ele>664.176</ele>
        <time>2012-06-17T08:29:58Z</time>
      </trkpt>
      <trkpt lat="44.86099" lon="5.68156">
        <ele>666.497</ele>
        <time>2012-06-17T08:30:14Z</time>
      </trkpt>
      <trkpt lat="44.86065" lon="5.68167">
        <ele>668.42</ele>
        <time>2012-06-17T08:30:30Z</time>
      </trkpt>
      <trkpt lat="44.8603" lon="5.68198">
        <ele>671.802</ele>
        <time>2012-06-17T08:30:50Z</time>
      </trkpt>
      <trkpt lat="44.86018" lon="5.68242">
        <ele>674.99</ele>
        <time>2012-06-17T08:31:07Z</time>
      </trkpt>
      <trkpt lat="44.86017" lon="5.6828">
        <ele>677.66</ele>
        <time>2012-06-17T08:31:20Z</time>
      </trkpt>
      <trkpt lat="44.86016" lon="5.68291">
        <ele>679.261</ele>
        <time>2012-06-17T08:31:24Z</time>
      </trkpt>
      <trkpt lat="44.86008" lon="5.68321">
        <ele>682.755</ele>
        <time>2012-06-17T08:31:35Z</time>
      </trkpt>
      <trkpt lat="44.85979" lon="5.68342">
        <ele>685.799</ele>
        <time>2012-06-17T08:31:51Z</time>
      </trkpt>
      <trkpt lat="44.85935" lon="5.6834">
        <ele>688.964</ele>
        <time>2012-06-17T08:32:12Z</time>
      </trkpt>
      <trkpt lat="44.8588" lon="5.68334">
        <ele>692.398</ele>
        <time>2012-06-17T08:32:34Z</time>
      </trkpt>
      <trkpt lat="44.85837" lon="5.68344">
        <ele>695.502</ele>
        <time>2012-06-17T08:32:51Z</time>
      </trkpt>
      <trkpt lat="44.85819" lon="5.68401">
        <ele>696.763</ele>
        <time>2012-06-17T08:33:04Z</time>
      </trkpt>
      <trkpt lat="44.85805" lon="5.68512">
        <ele>698.937</ele>
        <time>2012-06-17T08:33:23Z</time>
      </trkpt>
      <trkpt lat="44.85793" lon="5.6866">
        <ele>700.387</ele>
        <time>2012-06-17T08:33:45Z</time>
      </trkpt>
      <trkpt lat="44.85776" lon="5.68779">
        <ele>701.231</ele>
        <time>2012-06-17T08:34:03Z</time>
      </trkpt>
      <trkpt lat="44.85792" lon="5.68837">
        <ele>702.503</ele>
        <time>2012-06-17T08:34:17Z</time>
      </trkpt>
      <trkpt lat="44.8582" lon="5.68903">
        <ele>704.264</ele>
        <time>2012-06-17T08:34:38Z</time>
      </trkpt>
      <trkpt lat="44.85849" lon="5.68954">
        <ele>705.593</ele>
        <time>2012-06-17T08:34:57Z</time>
      </trkpt>
      <trkpt lat="44.85897" lon="5.6901">
        <ele>707.889</ele>
        <time>2012-06-17T08:35:21Z</time>
      </trkpt>
      <trkpt lat="44.85952" lon="5.69041">
        <ele>709.721</ele>
        <time>2012-06-17T08:35:44Z</time>
      </trkpt>
      <trkpt lat="44.86013" lon="5.6906">
        <ele>711.64</ele>
        <time>2012-06-17T08:36:09Z</time>
      </trkpt>
      <trkpt lat="44.86064" lon="5.69077">
        <ele>714.455</ele>
        <time>2012-06-17T08:36:30Z</time>
      </trkpt>
      <trkpt lat="44.86113" lon="5.69085">
        <ele>717.225</ele>
        <time>2012-06-17T08:36:50Z</time>
      </trkpt>
      <trkpt lat="44.86165" lon="5.6907">
        <ele>719.319</ele>
        <time>2012-06-17T08:37:10Z</time>
      </trkpt>
      <trkpt lat="44.86217" lon="5.69023">
        <ele>721.245</ele>
        <time>2012-06-17T08:37:27Z</time>
      </trkpt>
      <trkpt lat="44.86273" lon="5.68965">
        <ele>720.297</ele>
        <time>2012-06-17T08:37:38Z</time>
      </trkpt>
      <trkpt lat="44.8634" lon="5.68911">
        <ele>718.238</ele>
        <time>2012-06-17T08:37:50Z</time>
      </trkpt>
      <trkpt lat="44.86355" lon="5.68898">
        <ele>717.383</ele>
        <time>2012-06-17T08:37:53Z</time>
      </trkpt>
      <trkpt lat="44.86377" lon="5.68896">
        <ele>715.381</ele>
        <time>2012-06-17T08:38:00Z</time>
      </trkpt>
      <trkpt lat="44.86387" lon="5.68901">
        <ele>713.648</ele>
        <time>2012-06-17T08:38:07Z</time>
      </trkpt>
      <trkpt lat="44.8639" lon="5.68907">
        <ele>711.478</ele>
        <time>2012-06-17T08:38:11Z</time>
      </trkpt>
      <trkpt lat="44.86397" lon="5.68912">
        <ele>707.671</ele>
        <time>2012-06-17T08:38:16Z</time>
      </trkpt>
      <trkpt lat="44.86403" lon="5.68916">
        <ele>705.271</ele>
        <time>2012-06-17T08:38:22Z</time>
      </trkpt>
      <trkpt lat="44.8641" lon="5.68927">
        <ele>702.259</ele>
        <time>2012-06-17T08:38:27Z</time>
      </trkpt>
      <trkpt lat="44.86412" lon="5.68927">
        <ele>701.511</ele>
        <time>2012-06-17T08:38:28Z</time>
      </trkpt>
      <trkpt lat="44.86416" lon="5.68928">
        <ele>700.559</ele>
        <time>2012-06-17T08:38:30Z</time>
      </trkpt>
      <trkpt lat="44.86423" lon="5.68944">
        <ele>697.019</ele>
        <time>2012-06-17T08:38:36Z</time>
      </trkpt>
      <trkpt lat="44.86428" lon="5.68949">
        <ele>695.8</ele>
        <time>2012-06-17T08:38:38Z</time>
      </trkpt>
      <trkpt lat="44.86436" lon="5.6896">
        <ele>692.789</ele>
        <time>2012-06-17T08:38:41Z</time>
      </trkpt>
      <trkpt lat="44.86449" lon="5.68975">
        <ele>689.668</ele>
        <time>2012-06-17T08:38:45Z</time>
      </trkpt>
      <trkpt lat="44.86451" lon="5.6898">
        <ele>689.396</ele>
        <time>2012-06-17T08:38:46Z</time>
      </trkpt>
      <trkpt lat="44.86461" lon="5.68995">
        <ele>687.067</ele>
        <time>2012-06-17T08:38:50Z</time>
      </trkpt>
      <trkpt lat="44.86472" lon="5.69006">
        <ele>684.012</ele>
        <time>2012-06-17T08:38:54Z</time>
      </trkpt>
      <trkpt lat="44.86492" lon="5.69026">
        <ele>680.768</ele>
        <time>2012-06-17T08:38:59Z</time>
      </trkpt>
      <trkpt lat="44.86498" lon="5.69031">
        <ele>679.921</ele>
        <time>2012-06-17T08:39:01Z</time>
      </trkpt>
      <trkpt lat="44.86506" lon="5.69037">
        <ele>678.527</ele>
        <time>2012-06-17T08:39:04Z</time>
      </trkpt>
      <trkpt lat="44.86512" lon="5.69039">
        <ele>677.531</ele>
        <time>2012-06-17T08:39:06Z</time>
      </trkpt>
      <trkpt lat="44.86521" lon="5.69045">
        <ele>676.086</ele>
        <time>2012-06-17T08:39:12Z</time>
      </trkpt>
      <trkpt lat="44.86526" lon="5.6905">
        <ele>675.701</ele>
        <time>2012-06-17T08:39:15Z</time>
      </trkpt>
      <trkpt lat="44.8654" lon="5.6906">
        <ele>673.408</ele>
        <time>2012-06-17T08:39:26Z</time>
      </trkpt>
      <trkpt lat="44.8654" lon="5.69063">
        <ele>671.273</ele>
        <time>2012-06-17T08:39:32Z</time>
      </trkpt>
      <trkpt lat="44.86515" lon="5.69108">
        <ele>669.263</ele>
        <time>2012-06-17T08:39:47Z</time>
      </trkpt>
      <trkpt lat="44.86496" lon="5.69142">
        <ele>667.761</ele>
        <time>2012-06-17T08:39:58Z</time>
      </trkpt>
      <trkpt lat="44.86488" lon="5.69148">
        <ele>667.989</ele>
        <time>2012-06-17T08:40:02Z</time>
      </trkpt>
      <trkpt lat="44.86457" lon="5.69173">
        <ele>667.402</ele>
        <time>2012-06-17T08:40:17Z</time>
      </trkpt>
      <trkpt lat="44.86421" lon="5.69207">
        <ele>668.637</ele>
        <time>2012-06-17T08:40:38Z</time>
      </trkpt>
      <trkpt lat="44.86392" lon="5.69231">
        <ele>669.116</ele>
        <time>2012-06-17T08:40:56Z</time>
      </trkpt>
      <trkpt lat="44.86372" lon="5.69258">
        <ele>671.815</ele>
        <time>2012-06-17T08:41:09Z</time>
      </trkpt>
      <trkpt lat="44.86359" lon="5.69285">
        <ele>674.076</ele>
        <time>2012-06-17T08:41:22Z</time>
      </trkpt>
      <trkpt lat="44.86348" lon="5.69326">
        <ele>677.289</ele>
        <time>2012-06-17T08:41:37Z</time>
      </trkpt>
      <trkpt lat="44.8635" lon="5.69385">
        <ele>677.564</ele>
        <time>2012-06-17T08:41:50Z</time>
      </trkpt>
      <trkpt lat="44.86359" lon="5.69401">
        <ele>676.753</ele>
        <time>2012-06-17T08:41:53Z</time>
      </trkpt>
      <trkpt lat="44.86399" lon="5.69412">
        <ele>676.56</ele>
        <time>2012-06-17T08:42:02Z</time>
      </trkpt>
      <trkpt lat="44.86409" lon="5.69413">
        <ele>675.932</ele>
        <time>2012-06-17T08:42:04Z</time>
      </trkpt>
      <trkpt lat="44.86427" lon="5.69419">
        <ele>675.39</ele>
        <time>2012-06-17T08:42:08Z</time>
      </trkpt>
      <trkpt lat="44.86441" lon="5.69426">
        <ele>674.644</ele>
        <time>2012-06-17T08:42:11Z</time>
      </trkpt>
      <trkpt lat="44.86482" lon="5.69466">
        <ele>670.934</ele>
        <time>2012-06-17T08:42:18Z</time>
      </trkpt>
      <trkpt lat="44.86517" lon="5.69503">
        <ele>667.82</ele>
        <time>2012-06-17T08:42:24Z</time>
      </trkpt>
      <trkpt lat="44.86523" lon="5.69509">
        <ele>667.38</ele>
        <time>2012-06-17T08:42:25Z</time>
      </trkpt>
      <trkpt lat="44.86541" lon="5.69525">
        <ele>666.052</ele>
        <time>2012-06-17T08:42:28Z</time>
      </trkpt>
      <trkpt lat="44.86563" lon="5.69533">
        <ele>663.403</ele>
        <time>2012-06-17T08:42:31Z</time>
      </trkpt>
      <trkpt lat="44.86586" lon="5.69536">
        <ele>661.378</ele>
        <time>2012-06-17T08:42:34Z</time>
      </trkpt>
      <trkpt lat="44.86601" lon="5.69527">
        <ele>660.066</ele>
        <time>2012-06-17T08:42:37Z</time>
      </trkpt>
      <trkpt lat="44.86604" lon="5.69521">
        <ele>659.661</ele>
        <time>2012-06-17T08:42:38Z</time>
      </trkpt>
      <trkpt lat="44.86617" lon="5.69496">
        <ele>657.114</ele>
        <time>2012-06-17T08:42:42Z</time>
      </trkpt>
      <trkpt lat="44.86637" lon="5.69479">
        <ele>654.548</ele>
        <time>2012-06-17T08:42:48Z</time>
      </trkpt>
      <trkpt lat="44.86635" lon="5.69505">
        <ele>654.548</ele>
        <time>2012-06-17T08:42:54Z</time>
      </trkpt>
      <trkpt lat="44.86633" lon="5.69519">
        <ele>651.416</ele>
        <time>2012-06-17T08:42:56Z</time>
      </trkpt>
      <trkpt lat="44.86619" lon="5.69565">
        <ele>647.983</ele>
        <time>2012-06-17T08:43:03Z</time>
      </trkpt>
      <trkpt lat="44.8661" lon="5.69591">
        <ele>644.433</ele>
        <time>2012-06-17T08:43:14Z</time>
      </trkpt>
      <trkpt lat="44.8661" lon="5.69593">
        <ele>641.315</ele>
        <time>2012-06-17T08:43:21Z</time>
      </trkpt>
      <trkpt lat="44.8661" lon="5.69593">
        <ele>641.085</ele>
        <time>2012-06-17T08:43:22Z</time>
      </trkpt>
      <trkpt lat="44.86608" lon="5.69594">
        <ele>638.243</ele>
        <time>2012-06-17T08:43:30Z</time>
      </trkpt>
      <trkpt lat="44.86607" lon="5.69596">
        <ele>636.799</ele>
        <time>2012-06-17T08:43:35Z</time>
      </trkpt>
      <trkpt lat="44.86604" lon="5.69618">
        <ele>633.863</ele>
        <time>2012-06-17T08:43:41Z</time>
      </trkpt>
      <trkpt lat="44.86606" lon="5.69641">
        <ele>631.345</ele>
        <time>2012-06-17T08:43:45Z</time>
      </trkpt>
      <trkpt lat="44.86607" lon="5.69654">
        <ele>630.496</ele>
        <time>2012-06-17T08:43:47Z</time>
      </trkpt>
      <trkpt lat="44.86605" lon="5.69667">
        <ele>629.135</ele>
        <time>2012-06-17T08:43:50Z</time>
      </trkpt>
      <trkpt lat="44.86593" lon="5.69681">
        <ele>626.554</ele>
        <time>2012-06-17T08:43:55Z</time>
      </trkpt>
      <trkpt lat="44.86587" lon="5.69684">
        <ele>624.736</ele>
        <time>2012-06-17T08:43:58Z</time>
      </trkpt>
      <trkpt lat="44.86579" lon="5.6969">
        <ele>621.812</ele>
        <time>2012-06-17T08:44:11Z</time>
      </trkpt>
      <trkpt lat="44.86571" lon="5.69695">
        <ele>618.775</ele>
        <time>2012-06-17T08:44:21Z</time>
      </trkpt>
      <trkpt lat="44.86562" lon="5.69698">
        <ele>617.308</ele>
        <time>2012-06-17T08:44:35Z</time>
      </trkpt>
      <trkpt lat="44.86553" lon="5.69698">
        <ele>616.268</ele>
        <time>2012-06-17T08:44:51Z</time>
      </trkpt>
      <trkpt lat="44.86537" lon="5.69697">
        <ele>616.294</ele>
        <time>2012-06-17T08:45:04Z</time>
      </trkpt>
      <trkpt lat="44.86533" lon="5.69699">
        <ele>616.853</ele>
        <time>2012-06-17T08:45:07Z</time>
      </trkpt>
      <trkpt lat="44.86525" lon="5.6971">
        <ele>617.629</ele>
        <time>2012-06-17T08:45:15Z</time>
      </trkpt>
      <trkpt lat="44.86528" lon="5.6972">
        <ele>617.207</ele>
        <time>2012-06-17T08:45:19Z</time>
      </trkpt>
      <trkpt lat="44.86529" lon="5.69744">
        <ele>616.419</ele>
        <time>2012-06-17T08:45:25Z</time>
      </trkpt>
      <trkpt lat="44.86532" lon="5.69768">
        <ele>615.504</ele>
        <time>2012-06-17T08:45:33Z</time>
      </trkpt>
      <trkpt lat="44.86535" lon="5.69778">
        <ele>614.71</ele>
        <time>2012-06-17T08:45:37Z</time>
      </trkpt>
      <trkpt lat="44.86533" lon="5.69808">
        <ele>613.206</ele>
        <time>2012-06-17T08:45:45Z</time>
      </trkpt>
      <trkpt lat="44.86535" lon="5.69815">
        <ele>612.709</ele>
        <time>2012-06-17T08:45:48Z</time>
      </trkpt>
      <trkpt lat="44.86539" lon="5.69815">
        <ele>612.494</ele>
        <time>2012-06-17T08:45:52Z</time>
      </trkpt>
      <trkpt lat="44.86541" lon="5.69813">
        <ele>611.792</ele>
        <time>2012-06-17T08:45:54Z</time>
      </trkpt>
      <trkpt lat="44.86556" lon="5.69819">
        <ele>610.965</ele>
        <time>2012-06-17T08:46:03Z</time>
      </trkpt>
      <trkpt lat="44.86563" lon="5.69834">
        <ele>609.083</ele>
        <time>2012-06-17T08:46:13Z</time>
      </trkpt>
      <trkpt lat="44.86562" lon="5.69844">
        <ele>609</ele>
        <time>2012-06-17T08:46:19Z</time>
      </trkpt>
      <trkpt lat="44.86569" lon="5.69863">
        <ele>609.454</ele>
        <time>2012-06-17T08:46:35Z</time>
      </trkpt>
      <trkpt lat="44.86572" lon="5.69863">
        <ele>609.544</ele>
        <time>2012-06-17T08:46:38Z</time>
      </trkpt>
      <trkpt lat="44.86576" lon="5.69868">
        <ele>610.058</ele>
        <time>2012-06-17T08:46:45Z</time>
      </trkpt>
      <trkpt lat="44.86584" lon="5.69874">
        <ele>609.886</ele>
        <time>2012-06-17T08:46:52Z</time>
      </trkpt>
      <trkpt lat="44.86595" lon="5.69893">
        <ele>609.895</ele>
        <time>2012-06-17T08:47:01Z</time>
      </trkpt>
      <trkpt lat="44.86596" lon="5.69894">
        <ele>609.882</ele>
        <time>2012-06-17T08:47:02Z</time>
      </trkpt>
      <trkpt lat="44.86617" lon="5.69922">
        <ele>609.839</ele>
        <time>2012-06-17T08:47:13Z</time>
      </trkpt>
      <trkpt lat="44.86639" lon="5.6995">
        <ele>610.018</ele>
        <time>2012-06-17T08:47:26Z</time>
      </trkpt>
      <trkpt lat="44.86646" lon="5.69984">
        <ele>609.845</ele>
        <time>2012-06-17T08:47:34Z</time>
      </trkpt>
      <trkpt lat="44.86646" lon="5.69998">
        <ele>610.683</ele>
        <time>2012-06-17T08:47:48Z</time>
      </trkpt>
      <trkpt lat="44.86645" lon="5.7001">
        <ele>611.376</ele>
        <time>2012-06-17T08:47:59Z</time>
      </trkpt>
      <trkpt lat="44.86655" lon="5.70031">
        <ele>611.659</ele>
        <time>2012-06-17T08:48:11Z</time>
      </trkpt>
      <trkpt lat="44.8666" lon="5.70035">
        <ele>611.596</ele>
        <time>2012-06-17T08:48:17Z</time>
      </trkpt>
      <trkpt lat="44.86666" lon="5.70032">
        <ele>610.568</ele>
        <time>2012-06-17T08:48:32Z</time>
      </trkpt>
      <trkpt lat="44.86667" lon="5.70033">
        <ele>609.444</ele>
        <time>2012-06-17T08:48:45Z</time>
      </trkpt>
      <trkpt lat="44.86672" lon="5.70037">
        <ele>608.353</ele>
        <time>2012-06-17T08:48:53Z</time>
      </trkpt>
      <trkpt lat="44.86679" lon="5.70031">
        <ele>607.671</ele>
        <time>2012-06-17T08:48:57Z</time>
      </trkpt>
      <trkpt lat="44.86687" lon="5.70029">
        <ele>607.18</ele>
        <time>2012-06-17T08:49:00Z</time>
      </trkpt>
      <trkpt lat="44.86693" lon="5.70016">
        <ele>606.212</ele>
        <time>2012-06-17T08:49:04Z</time>
      </trkpt>
      <trkpt lat="44.86694" lon="5.70012">
        <ele>606.017</ele>
        <time>2012-06-17T08:49:06Z</time>
      </trkpt>
      <trkpt lat="44.86703" lon="5.70017">
        <ele>604.315</ele>
        <time>2012-06-17T08:49:11Z</time>
      </trkpt>
      <trkpt lat="44.86706" lon="5.70033">
        <ele>603.25</ele>
        <time>2012-06-17T08:49:16Z</time>
      </trkpt>
      <trkpt lat="44.86704" lon="5.70039">
        <ele>601.848</ele>
        <time>2012-06-17T08:49:19Z</time>
      </trkpt>
      <trkpt lat="44.86704" lon="5.70043">
        <ele>600.37</ele>
        <time>2012-06-17T08:49:22Z</time>
      </trkpt>
      <trkpt lat="44.86706" lon="5.70049">
        <ele>597.321</ele>
        <time>2012-06-17T08:49:32Z</time>
      </trkpt>
      <trkpt lat="44.86707" lon="5.70049">
        <ele>595.679</ele>
        <time>2012-06-17T08:49:37Z</time>
      </trkpt>
      <trkpt lat="44.86711" lon="5.7005">
        <ele>594.058</ele>
        <time>2012-06-17T08:49:41Z</time>
      </trkpt>
      <trkpt lat="44.86717" lon="5.70052">
        <ele>590.366</ele>
        <time>2012-06-17T08:49:54Z</time>
      </trkpt>
      <trkpt lat="44.8672" lon="5.70059">
        <ele>586.75</ele>
        <time>2012-06-17T08:50:07Z</time>
      </trkpt>
      <trkpt lat="44.86726" lon="5.70101">
        <ele>583.661</ele>
        <time>2012-06-17T08:50:18Z</time>
      </trkpt>
      <trkpt lat="44.86729" lon="5.70135">
        <ele>580.639</ele>
        <time>2012-06-17T08:50:26Z</time>
      </trkpt>
      <trkpt lat="44.86737" lon="5.70174">
        <ele>577.508</ele>
        <time>2012-06-17T08:50:35Z</time>
      </trkpt>
      <trkpt lat="44.86745" lon="5.70202">
        <ele>575.136</ele>
        <time>2012-06-17T08:50:41Z</time>
      </trkpt>
      <trkpt lat="44.86754" lon="5.70243">
        <ele>571.159</ele>
        <time>2012-06-17T08:50:47Z</time>
      </trkpt>
      <trkpt lat="44.86764" lon="5.70266">
        <ele>568.463</ele>
        <time>2012-06-17T08:50:51Z</time>
      </trkpt>
      <trkpt lat="44.86771" lon="5.70275">
        <ele>567.693</ele>
        <time>2012-06-17T08:50:53Z</time>
      </trkpt>
      <trkpt lat="44.86774" lon="5.7028">
        <ele>567.231</ele>
        <time>2012-06-17T08:50:54Z</time>
      </trkpt>
      <trkpt lat="44.86773" lon="5.70292">
        <ele>565.382</ele>
        <time>2012-06-17T08:50:57Z</time>
      </trkpt>
      <trkpt lat="44.86772" lon="5.703">
        <ele>564.313</ele>
        <time>2012-06-17T08:50:59Z</time>
      </trkpt>
      <trkpt lat="44.86779" lon="5.70314">
        <ele>562.515</ele>
        <time>2012-06-17T08:51:03Z</time>
      </trkpt>
      <trkpt lat="44.8681" lon="5.70343">
        <ele>558.58</ele>
        <time>2012-06-17T08:51:13Z</time>
      </trkpt>
      <trkpt lat="44.86823" lon="5.7036">
        <ele>555.313</ele>
        <time>2012-06-17T08:51:18Z</time>
      </trkpt>
      <trkpt lat="44.8683" lon="5.70371">
        <ele>553.819</ele>
        <time>2012-06-17T08:51:20Z</time>
      </trkpt>
      <trkpt lat="44.86835" lon="5.70394">
        <ele>551.865</ele>
        <time>2012-06-17T08:51:23Z</time>
      </trkpt>
      <trkpt lat="44.86837" lon="5.70412">
        <ele>550.672</ele>
        <time>2012-06-17T08:51:25Z</time>
      </trkpt>
      <trkpt lat="44.86838" lon="5.70443">
        <ele>547.144</ele>
        <time>2012-06-17T08:51:30Z</time>
      </trkpt>
      <trkpt lat="44.86838" lon="5.70448">
        <ele>546.931</ele>
        <time>2012-06-17T08:51:31Z</time>
      </trkpt>
      <trkpt lat="44.86838" lon="5.70471">
        <ele>543.466</ele>
        <time>2012-06-17T08:51:35Z</time>
      </trkpt>
      <trkpt lat="44.8684" lon="5.70483">
        <ele>542.569</ele>
        <time>2012-06-17T08:51:37Z</time>
      </trkpt>
      <trkpt lat="44.86842" lon="5.70493">
        <ele>541.079</ele>
        <time>2012-06-17T08:51:39Z</time>
      </trkpt>
      <trkpt lat="44.86856" lon="5.70519">
        <ele>536.523</ele>
        <time>2012-06-17T08:51:45Z</time>
      </trkpt>
      <trkpt lat="44.86856" lon="5.70524">
        <ele>535.514</ele>
        <time>2012-06-17T08:51:46Z</time>
      </trkpt>
      <trkpt lat="44.86857" lon="5.70536">
        <ele>533.568</ele>
        <time>2012-06-17T08:51:50Z</time>
      </trkpt>
      <trkpt lat="44.86855" lon="5.70544">
        <ele>530.132</ele>
        <time>2012-06-17T08:51:54Z</time>
      </trkpt>
      <trkpt lat="44.86854" lon="5.70547">
        <ele>528.784</ele>
        <time>2012-06-17T08:51:56Z</time>
      </trkpt>
      <trkpt lat="44.8684" lon="5.70558">
        <ele>524.936</ele>
        <time>2012-06-17T08:52:04Z</time>
      </trkpt>
      <trkpt lat="44.86837" lon="5.7057">
        <ele>522.284</ele>
        <time>2012-06-17T08:52:12Z</time>
      </trkpt>
      <trkpt lat="44.86825" lon="5.70591">
        <ele>519.927</ele>
        <time>2012-06-17T08:52:28Z</time>
      </trkpt>
      <trkpt lat="44.86816" lon="5.70613">
        <ele>519.785</ele>
        <time>2012-06-17T08:52:45Z</time>
      </trkpt>
      <trkpt lat="44.86808" lon="5.70633">
        <ele>520.742</ele>
        <time>2012-06-17T08:53:01Z</time>
      </trkpt>
      <trkpt lat="44.86801" lon="5.70653">
        <ele>521.726</ele>
        <time>2012-06-17T08:53:16Z</time>
      </trkpt>
      <trkpt lat="44.86798" lon="5.70674">
        <ele>523.23</ele>
        <time>2012-06-17T08:53:30Z</time>
      </trkpt>
      <trkpt lat="44.86795" lon="5.70696">
        <ele>526.013</ele>
        <time>2012-06-17T08:53:48Z</time>
      </trkpt>
      <trkpt lat="44.86793" lon="5.70712">
        <ele>527.937</ele>
        <time>2012-06-17T08:54:00Z</time>
      </trkpt>
      <trkpt lat="44.86792" lon="5.70733">
        <ele>530.234</ele>
        <time>2012-06-17T08:54:15Z</time>
      </trkpt>
      <trkpt lat="44.86792" lon="5.70754">
        <ele>533.729</ele>
        <time>2012-06-17T08:54:32Z</time>
      </trkpt>
      <trkpt lat="44.86793" lon="5.70755">
        <ele>533.951</ele>
        <time>2012-06-17T08:54:33Z</time>
      </trkpt>
      <trkpt lat="44.86792" lon="5.70768">
        <ele>535.845</ele>
        <time>2012-06-17T08:54:48Z</time>
      </trkpt>
      <trkpt lat="44.86791" lon="5.70784">
        <ele>537.573</ele>
        <time>2012-06-17T08:55:05Z</time>
      </trkpt>
      <trkpt lat="44.8679" lon="5.70794">
        <ele>538.754</ele>
        <time>2012-06-17T08:55:22Z</time>
      </trkpt>
      <trkpt lat="44.86796" lon="5.708">
        <ele>539.004</ele>
        <time>2012-06-17T08:55:36Z</time>
      </trkpt>
      <trkpt lat="44.86815" lon="5.70814">
        <ele>535.8</ele>
        <time>2012-06-17T08:55:54Z</time>
      </trkpt>
      <trkpt lat="44.86826" lon="5.70827">
        <ele>532.75</ele>
        <time>2012-06-17T08:56:09Z</time>
      </trkpt>
      <trkpt lat="44.86852" lon="5.70842">
        <ele>530.203</ele>
        <time>2012-06-17T08:56:28Z</time>
      </trkpt>
      <trkpt lat="44.86877" lon="5.7086">
        <ele>529.506</ele>
        <time>2012-06-17T08:56:49Z</time>
      </trkpt>
      <trkpt lat="44.86897" lon="5.70877">
        <ele>529.388</ele>
        <time>2012-06-17T08:57:09Z</time>
      </trkpt>
      <trkpt lat="44.86915" lon="5.70892">
        <ele>529.543</ele>
        <time>2012-06-17T08:57:25Z</time>
      </trkpt>
      <trkpt lat="44.86935" lon="5.70909">
        <ele>530.966</ele>
        <time>2012-06-17T08:57:44Z</time>
      </trkpt>
      <trkpt lat="44.86954" lon="5.70928">
        <ele>534.037</ele>
        <time>2012-06-17T08:58:05Z</time>
      </trkpt>
      <trkpt lat="44.86966" lon="5.70938">
        <ele>535.852</ele>
        <time>2012-06-17T08:58:22Z</time>
      </trkpt>
      <trkpt lat="44.86972" lon="5.70941">
        <ele>536.664</ele>
        <time>2012-06-17T08:58:46Z</time>
      </trkpt>
      <trkpt lat="44.86983" lon="5.70948">
        <ele>538.988</ele>
        <time>2012-06-17T08:59:01Z</time>
      </trkpt>
      <trkpt lat="44.86985" lon="5.70948">
        <ele>542.142</ele>
        <time>2012-06-17T08:59:10Z</time>
      </trkpt>
      <trkpt lat="44.86988" lon="5.70949">
        <ele>542.403</ele>
        <time>2012-06-17T08:59:15Z</time>
      </trkpt>
      <trkpt lat="44.86998" lon="5.70947">
        <ele>542.708</ele>
        <time>2012-06-17T08:59:19Z</time>
      </trkpt>
      <trkpt lat="44.87012" lon="5.7092">
        <ele>542.519</ele>
        <time>2012-06-17T08:59:26Z</time>
      </trkpt>
      <trkpt lat="44.87018" lon="5.7091">
        <ele>542.889</ele>
        <time>2012-06-17T08:59:28Z</time>
      </trkpt>
      <trkpt lat="44.8703" lon="5.70887">
        <ele>542.293</ele>
        <time>2012-06-17T08:59:32Z</time>
      </trkpt>
      <trkpt lat="44.87034" lon="5.70866">
        <ele>542.404</ele>
        <time>2012-06-17T08:59:36Z</time>
      </trkpt>
      <trkpt lat="44.87039" lon="5.70834">
        <ele>542.035</ele>
        <time>2012-06-17T08:59:50Z</time>
      </trkpt>
      <trkpt lat="44.87062" lon="5.70833">
        <ele>540.116</ele>
        <time>2012-06-17T09:00:02Z</time>
      </trkpt>
      <trkpt lat="44.87091" lon="5.70858">
        <ele>539.059</ele>
        <time>2012-06-17T09:00:14Z</time>
      </trkpt>
      <trkpt lat="44.87095" lon="5.70859">
        <ele>538.741</ele>
        <time>2012-06-17T09:00:15Z</time>
      </trkpt>
      <trkpt lat="44.87109" lon="5.70832">
        <ele>539.803</ele>
        <time>2012-06-17T09:00:23Z</time>
      </trkpt>
      <trkpt lat="44.87108" lon="5.70809">
        <ele>539.4</ele>
        <time>2012-06-17T09:00:28Z</time>
      </trkpt>
      <trkpt lat="44.87143" lon="5.70791">
        <ele>537.837</ele>
        <time>2012-06-17T09:00:40Z</time>
      </trkpt>
      <trkpt lat="44.87159" lon="5.70793">
        <ele>536.415</ele>
        <time>2012-06-17T09:00:45Z</time>
      </trkpt>
      <trkpt lat="44.8717" lon="5.7078">
        <ele>536.314</ele>
        <time>2012-06-17T09:00:50Z</time>
      </trkpt>
      <trkpt lat="44.87157" lon="5.70719">
        <ele>535.577</ele>
        <time>2012-06-17T09:01:11Z</time>
      </trkpt>
      <trkpt lat="44.87136" lon="5.70698">
        <ele>533.285</ele>
        <time>2012-06-17T09:01:26Z</time>
      </trkpt>
      <trkpt lat="44.8715" lon="5.70668">
        <ele>534.843</ele>
        <time>2012-06-17T09:01:41Z</time>
      </trkpt>
      <trkpt lat="44.87174" lon="5.70641">
        <ele>537.299</ele>
        <time>2012-06-17T09:02:01Z</time>
      </trkpt>
      <trkpt lat="44.87191" lon="5.70614">
        <ele>540.412</ele>
        <time>2012-06-17T09:02:18Z</time>
      </trkpt>
      <trkpt lat="44.87213" lon="5.70565">
        <ele>543.005</ele>
        <time>2012-06-17T09:02:35Z</time>
      </trkpt>
      <trkpt lat="44.87231" lon="5.70515">
        <ele>545.188</ele>
        <time>2012-06-17T09:02:50Z</time>
      </trkpt>
      <trkpt lat="44.87218" lon="5.70475">
        <ele>544.956</ele>
        <time>2012-06-17T09:03:02Z</time>
      </trkpt>
      <trkpt lat="44.87231" lon="5.7045">
        <ele>545.984</ele>
        <time>2012-06-17T09:03:15Z</time>
      </trkpt>
      <trkpt lat="44.87259" lon="5.70428">
        <ele>548.529</ele>
        <time>2012-06-17T09:03:35Z</time>
      </trkpt>
      <trkpt lat="44.87284" lon="5.70425">
        <ele>551.003</ele>
        <time>2012-06-17T09:03:51Z</time>
      </trkpt>
      <trkpt lat="44.87294" lon="5.70423">
        <ele>551.619</ele>
        <time>2012-06-17T09:03:57Z</time>
      </trkpt>
      <trkpt lat="44.87311" lon="5.70422">
        <ele>552.904</ele>
        <time>2012-06-17T09:04:08Z</time>
      </trkpt>
      <trkpt lat="44.87314" lon="5.70419">
        <ele>553.477</ele>
        <time>2012-06-17T09:04:11Z</time>
      </trkpt>
      <trkpt lat="44.87316" lon="5.70412">
        <ele>554.965</ele>
        <time>2012-06-17T09:04:15Z</time>
      </trkpt>
      <trkpt lat="44.87312" lon="5.70402">
        <ele>556.103</ele>
        <time>2012-06-17T09:04:28Z</time>
      </trkpt>
      <trkpt lat="44.87311" lon="5.70403">
        <ele>555.937</ele>
        <time>2012-06-17T09:05:06Z</time>
      </trkpt>
      <trkpt lat="44.87316" lon="5.70408">
        <ele>555.231</ele>
        <time>2012-06-17T09:05:10Z</time>
      </trkpt>
      <trkpt lat="44.87317" lon="5.70437">
        <ele>556.249</ele>
        <time>2012-06-17T09:05:24Z</time>
      </trkpt>
      <trkpt lat="44.87306" lon="5.7047">
        <ele>559.092</ele>
        <time>2012-06-17T09:05:41Z</time>
      </trkpt>
      <trkpt lat="44.87294" lon="5.70505">
        <ele>562.157</ele>
        <time>2012-06-17T09:06:00Z</time>
      </trkpt>
      <trkpt lat="44.87299" lon="5.70531">
        <ele>564.8</ele>
        <time>2012-06-17T09:06:16Z</time>
      </trkpt>
      <trkpt lat="44.87323" lon="5.70556">
        <ele>567.879</ele>
        <time>2012-06-17T09:06:39Z</time>
      </trkpt>
      <trkpt lat="44.87324" lon="5.70558">
        <ele>568.553</ele>
        <time>2012-06-17T09:06:41Z</time>
      </trkpt>
      <trkpt lat="44.87333" lon="5.70588">
        <ele>571.836</ele>
        <time>2012-06-17T09:06:59Z</time>
      </trkpt>
      <trkpt lat="44.87322" lon="5.70611">
        <ele>574.668</ele>
        <time>2012-06-17T09:07:17Z</time>
      </trkpt>
      <trkpt lat="44.87306" lon="5.7062">
        <ele>578.35</ele>
        <time>2012-06-17T09:07:30Z</time>
      </trkpt>
      <trkpt lat="44.87299" lon="5.7064">
        <ele>581.447</ele>
        <time>2012-06-17T09:07:42Z</time>
      </trkpt>
      <trkpt lat="44.87306" lon="5.70664">
        <ele>583.631</ele>
        <time>2012-06-17T09:08:00Z</time>
      </trkpt>
      <trkpt lat="44.87327" lon="5.70649">
        <ele>585.342</ele>
        <time>2012-06-17T09:08:18Z</time>
      </trkpt>
      <trkpt lat="44.87347" lon="5.70646">
        <ele>588.431</ele>
        <time>2012-06-17T09:08:33Z</time>
      </trkpt>
      <trkpt lat="44.87361" lon="5.70649">
        <ele>590.692</ele>
        <time>2012-06-17T09:08:44Z</time>
      </trkpt>
      <trkpt lat="44.87374" lon="5.70645">
        <ele>593.856</ele>
        <time>2012-06-17T09:08:55Z</time>
      </trkpt>
      <trkpt lat="44.87382" lon="5.70627">
        <ele>596.944</ele>
        <time>2012-06-17T09:09:04Z</time>
      </trkpt>
      <trkpt lat="44.87386" lon="5.70608">
        <ele>599.995</ele>
        <time>2012-06-17T09:09:14Z</time>
      </trkpt>
      <trkpt lat="44.87388" lon="5.70601">
        <ele>601.334</ele>
        <time>2012-06-17T09:09:18Z</time>
      </trkpt>
      <trkpt lat="44.87389" lon="5.70598">
        <ele>602.097</ele>
        <time>2012-06-17T09:09:20Z</time>
      </trkpt>
      <trkpt lat="44.87394" lon="5.70587">
        <ele>603.341</ele>
        <time>2012-06-17T09:09:28Z</time>
      </trkpt>
      <trkpt lat="44.87404" lon="5.70585">
        <ele>606.006</ele>
        <time>2012-06-17T09:09:44Z</time>
      </trkpt>
      <trkpt lat="44.8741" lon="5.70574">
        <ele>603.072</ele>
        <time>2012-06-17T09:09:43Z</time>
      </trkpt>
      <trkpt lat="44.87423" lon="5.70619">
        <ele>604.503</ele>
        <time>2012-06-17T09:10:04Z</time>
      </trkpt>
      <trkpt lat="44.87427" lon="5.70649">
        <ele>607.615</ele>
        <time>2012-06-17T09:10:24Z</time>
      </trkpt>
      <trkpt lat="44.87432" lon="5.70677">
        <ele>610.738</ele>
        <time>2012-06-17T09:10:42Z</time>
      </trkpt>
      <trkpt lat="44.87429" lon="5.70713">
        <ele>613.985</ele>
        <time>2012-06-17T09:11:03Z</time>
      </trkpt>
      <trkpt lat="44.8742" lon="5.70751">
        <ele>617.189</ele>
        <time>2012-06-17T09:11:24Z</time>
      </trkpt>
      <trkpt lat="44.87422" lon="5.70792">
        <ele>619.943</ele>
        <time>2012-06-17T09:11:45Z</time>
      </trkpt>
      <trkpt lat="44.87445" lon="5.70816">
        <ele>620.702</ele>
        <time>2012-06-17T09:12:02Z</time>
      </trkpt>
      <trkpt lat="44.87468" lon="5.70839">
        <ele>621.551</ele>
        <time>2012-06-17T09:12:21Z</time>
      </trkpt>
      <trkpt lat="44.87481" lon="5.70851">
        <ele>624.639</ele>
        <time>2012-06-17T09:12:36Z</time>
      </trkpt>
      <trkpt lat="44.87487" lon="5.70853">
        <ele>626.742</ele>
        <time>2012-06-17T09:12:42Z</time>
      </trkpt>
      <trkpt lat="44.87503" lon="5.70853">
        <ele>629.805</ele>
        <time>2012-06-17T09:12:57Z</time>
      </trkpt>
      <trkpt lat="44.87512" lon="5.70851">
        <ele>633.005</ele>
        <time>2012-06-17T09:13:06Z</time>
      </trkpt>
      <trkpt lat="44.8752" lon="5.70845">
        <ele>636.601</ele>
        <time>2012-06-17T09:13:15Z</time>
      </trkpt>
      <trkpt lat="44.87522" lon="5.70842">
        <ele>639.94</ele>
        <time>2012-06-17T09:13:25Z</time>
      </trkpt>
      <trkpt lat="44.87528" lon="5.70842">
        <ele>643.326</ele>
        <time>2012-06-17T09:13:41Z</time>
      </trkpt>
      <trkpt lat="44.87529" lon="5.7084">
        <ele>646.53</ele>
        <time>2012-06-17T09:14:05Z</time>
      </trkpt>
      <trkpt lat="44.87529" lon="5.70839">
        <ele>648.09</ele>
        <time>2012-06-17T09:14:14Z</time>
      </trkpt>
      <trkpt lat="44.87529" lon="5.70839">
        <ele>648.145</ele>
        <time>2012-06-17T09:14:17Z</time>
      </trkpt>
      <trkpt lat="44.87526" lon="5.70834">
        <ele>648.68</ele>
        <time>2012-06-17T09:14:30Z</time>
      </trkpt>
      <trkpt lat="44.87527" lon="5.70833">
        <ele>645.546</ele>
        <time>2012-06-17T09:14:55Z</time>
      </trkpt>
      <trkpt lat="44.87527" lon="5.70833">
        <ele>645.576</ele>
        <time>2012-06-17T09:14:56Z</time>
      </trkpt>
      <trkpt lat="44.87527" lon="5.70833">
        <ele>646.944</ele>
        <time>2012-06-17T09:15:01Z</time>
      </trkpt>
      <trkpt lat="44.87525" lon="5.70835">
        <ele>649.946</ele>
        <time>2012-06-17T09:15:34Z</time>
      </trkpt>
      <trkpt lat="44.87523" lon="5.70835">
        <ele>651.248</ele>
        <time>2012-06-17T09:16:20Z</time>
      </trkpt>
      <trkpt lat="44.87521" lon="5.7083">
        <ele>653.158</ele>
        <time>2012-06-17T09:18:31Z</time>
      </trkpt>
      <trkpt lat="44.8752" lon="5.70819">
        <ele>654.34</ele>
        <time>2012-06-17T09:19:07Z</time>
      </trkpt>
      <trkpt lat="44.87524" lon="5.70835">
        <ele>652.011</ele>
        <time>2012-06-17T09:24:39Z</time>
      </trkpt>
      <trkpt lat="44.87524" lon="5.70833">
        <ele>651.285</ele>
        <time>2012-06-17T09:25:18Z</time>
      </trkpt>
      <trkpt lat="44.87525" lon="5.70835">
        <ele>650.362</ele>
        <time>2012-06-17T09:27:36Z</time>
      </trkpt>
      <trkpt lat="44.87524" lon="5.70836">
        <ele>649.618</ele>
        <time>2012-06-17T09:28:34Z</time>
      </trkpt>
      <trkpt lat="44.87524" lon="5.70836">
        <ele>649.144</ele>
        <time>2012-06-17T09:29:03Z</time>
      </trkpt>
      <trkpt lat="44.87524" lon="5.70834">
        <ele>648.49</ele>
        <time>2012-06-17T09:30:16Z</time>
      </trkpt>
      <trkpt lat="44.87524" lon="5.70813">
        <ele>648.316</ele>
        <time>2012-06-17T09:31:21Z</time>
      </trkpt>
      <trkpt lat="44.87526" lon="5.70825">
        <ele>648.352</ele>
        <time>2012-06-17T09:31:53Z</time>
      </trkpt>
      <trkpt lat="44.87525" lon="5.70834">
        <ele>648.8</ele>
        <time>2012-06-17T09:33:00Z</time>
      </trkpt>
      <trkpt lat="44.87524" lon="5.70824">
        <ele>648.318</ele>
        <time>2012-06-17T09:34:11Z</time>
      </trkpt>
      <trkpt lat="44.87527" lon="5.70834">
        <ele>647.754</ele>
        <time>2012-06-17T09:34:40Z</time>
      </trkpt>
      <trkpt lat="44.87532" lon="5.70851">
        <ele>646.606</ele>
        <time>2012-06-17T09:34:59Z</time>
      </trkpt>
      <trkpt lat="44.87531" lon="5.70877">
        <ele>646.037</ele>
        <time>2012-06-17T09:35:13Z</time>
      </trkpt>
      <trkpt lat="44.87525" lon="5.70914">
        <ele>646.865</ele>
        <time>2012-06-17T09:35:29Z</time>
      </trkpt>
      <trkpt lat="44.87505" lon="5.70946">
        <ele>648.756</ele>
        <time>2012-06-17T09:35:47Z</time>
      </trkpt>
      <trkpt lat="44.87473" lon="5.70972">
        <ele>650.938</ele>
        <time>2012-06-17T09:36:08Z</time>
      </trkpt>
      <trkpt lat="44.87441" lon="5.71">
        <ele>652.857</ele>
        <time>2012-06-17T09:36:27Z</time>
      </trkpt>
      <trkpt lat="44.87432" lon="5.71009">
        <ele>652.786</ele>
        <time>2012-06-17T09:36:36Z</time>
      </trkpt>
      <trkpt lat="44.87432" lon="5.7101">
        <ele>653.336</ele>
        <time>2012-06-17T09:36:37Z</time>
      </trkpt>
      <trkpt lat="44.87444" lon="5.71018">
        <ele>652.391</ele>
        <time>2012-06-17T09:36:44Z</time>
      </trkpt>
      <trkpt lat="44.87493" lon="5.70987">
        <ele>654.178</ele>
        <time>2012-06-17T09:37:05Z</time>
      </trkpt>
      <trkpt lat="44.87556" lon="5.70953">
        <ele>657.38</ele>
        <time>2012-06-17T09:37:32Z</time>
      </trkpt>
      <trkpt lat="44.87604" lon="5.70926">
        <ele>660.692</ele>
        <time>2012-06-17T09:37:53Z</time>
      </trkpt>
      <trkpt lat="44.87635" lon="5.709">
        <ele>664.369</ele>
        <time>2012-06-17T09:38:08Z</time>
      </trkpt>
      <trkpt lat="44.87661" lon="5.70862">
        <ele>667.55</ele>
        <time>2012-06-17T09:38:23Z</time>
      </trkpt>
      <trkpt lat="44.87663" lon="5.7086">
        <ele>667.853</ele>
        <time>2012-06-17T09:38:24Z</time>
      </trkpt>
      <trkpt lat="44.87683" lon="5.708">
        <ele>670.894</ele>
        <time>2012-06-17T09:38:43Z</time>
      </trkpt>
      <trkpt lat="44.87682" lon="5.70727">
        <ele>672.076</ele>
        <time>2012-06-17T09:39:03Z</time>
      </trkpt>
      <trkpt lat="44.87701" lon="5.70683">
        <ele>675.705</ele>
        <time>2012-06-17T09:39:18Z</time>
      </trkpt>
      <trkpt lat="44.87717" lon="5.70618">
        <ele>678.034</ele>
        <time>2012-06-17T09:39:39Z</time>
      </trkpt>
      <trkpt lat="44.87697" lon="5.70555">
        <ele>678.304</ele>
        <time>2012-06-17T09:39:58Z</time>
      </trkpt>
      <trkpt lat="44.87705" lon="5.705">
        <ele>681.014</ele>
        <time>2012-06-17T09:40:15Z</time>
      </trkpt>
      <trkpt lat="44.8775" lon="5.70466">
        <ele>683.413</ele>
        <time>2012-06-17T09:40:35Z</time>
      </trkpt>
      <trkpt lat="44.87815" lon="5.70438">
        <ele>685.111</ele>
        <time>2012-06-17T09:40:59Z</time>
      </trkpt>
      <trkpt lat="44.87882" lon="5.70415">
        <ele>688.206</ele>
        <time>2012-06-17T09:41:22Z</time>
      </trkpt>
      <trkpt lat="44.87942" lon="5.70394">
        <ele>690.555</ele>
        <time>2012-06-17T09:41:43Z</time>
      </trkpt>
      <trkpt lat="44.88015" lon="5.70383">
        <ele>693.7</ele>
        <time>2012-06-17T09:42:08Z</time>
      </trkpt>
      <trkpt lat="44.88065" lon="5.70403">
        <ele>696.417</ele>
        <time>2012-06-17T09:42:26Z</time>
      </trkpt>
      <trkpt lat="44.88108" lon="5.70429">
        <ele>699.424</ele>
        <time>2012-06-17T09:42:39Z</time>
      </trkpt>
      <trkpt lat="44.8817" lon="5.70463">
        <ele>699.788</ele>
        <time>2012-06-17T09:42:58Z</time>
      </trkpt>
      <trkpt lat="44.88239" lon="5.70454">
        <ele>699.729</ele>
        <time>2012-06-17T09:43:17Z</time>
      </trkpt>
      <trkpt lat="44.88287" lon="5.70411">
        <ele>702.834</ele>
        <time>2012-06-17T09:43:33Z</time>
      </trkpt>
      <trkpt lat="44.88293" lon="5.70357">
        <ele>704.375</ele>
        <time>2012-06-17T09:43:46Z</time>
      </trkpt>
      <trkpt lat="44.88291" lon="5.7029">
        <ele>707.327</ele>
        <time>2012-06-17T09:44:06Z</time>
      </trkpt>
      <trkpt lat="44.8834" lon="5.7024">
        <ele>709.574</ele>
        <time>2012-06-17T09:44:30Z</time>
      </trkpt>
      <trkpt lat="44.88392" lon="5.70209">
        <ele>711.284</ele>
        <time>2012-06-17T09:44:52Z</time>
      </trkpt>
      <trkpt lat="44.88445" lon="5.70172">
        <ele>714.008</ele>
        <time>2012-06-17T09:45:12Z</time>
      </trkpt>
      <trkpt lat="44.88464" lon="5.70126">
        <ele>715.905</ele>
        <time>2012-06-17T09:45:22Z</time>
      </trkpt>
      <trkpt lat="44.88494" lon="5.70052">
        <ele>718.456</ele>
        <time>2012-06-17T09:45:42Z</time>
      </trkpt>
      <trkpt lat="44.88533" lon="5.70002">
        <ele>720.898</ele>
        <time>2012-06-17T09:46:03Z</time>
      </trkpt>
      <trkpt lat="44.88587" lon="5.69999">
        <ele>722.218</ele>
        <time>2012-06-17T09:46:24Z</time>
      </trkpt>
      <trkpt lat="44.88652" lon="5.70002">
        <ele>723.885</ele>
        <time>2012-06-17T09:46:49Z</time>
      </trkpt>
      <trkpt lat="44.88711" lon="5.70006">
        <ele>725.842</ele>
        <time>2012-06-17T09:47:10Z</time>
      </trkpt>
      <trkpt lat="44.88762" lon="5.69998">
        <ele>728.941</ele>
        <time>2012-06-17T09:47:28Z</time>
      </trkpt>
      <trkpt lat="44.88829" lon="5.69954">
        <ele>729.984</ele>
        <time>2012-06-17T09:47:48Z</time>
      </trkpt>
      <trkpt lat="44.88886" lon="5.699">
        <ele>731.406</ele>
        <time>2012-06-17T09:48:05Z</time>
      </trkpt>
      <trkpt lat="44.88924" lon="5.698">
        <ele>731.475</ele>
        <time>2012-06-17T09:48:22Z</time>
      </trkpt>
      <trkpt lat="44.88971" lon="5.69671">
        <ele>732.177</ele>
        <time>2012-06-17T09:48:45Z</time>
      </trkpt>
      <trkpt lat="44.8899" lon="5.6964">
        <ele>731.878</ele>
        <time>2012-06-17T09:48:52Z</time>
      </trkpt>
      <trkpt lat="44.88986" lon="5.69615">
        <ele>730.509</ele>
        <time>2012-06-17T09:48:59Z</time>
      </trkpt>
      <trkpt lat="44.88971" lon="5.69588">
        <ele>728.964</ele>
        <time>2012-06-17T09:49:04Z</time>
      </trkpt>
      <trkpt lat="44.88962" lon="5.69562">
        <ele>727.187</ele>
        <time>2012-06-17T09:49:08Z</time>
      </trkpt>
      <trkpt lat="44.88961" lon="5.6954">
        <ele>725.898</ele>
        <time>2012-06-17T09:49:11Z</time>
      </trkpt>
      <trkpt lat="44.88963" lon="5.69532">
        <ele>724.727</ele>
        <time>2012-06-17T09:49:12Z</time>
      </trkpt>
      <trkpt lat="44.88963" lon="5.69491">
        <ele>720.461</ele>
        <time>2012-06-17T09:49:21Z</time>
      </trkpt>
      <trkpt lat="44.88961" lon="5.69486">
        <ele>719.923</ele>
        <time>2012-06-17T09:49:22Z</time>
      </trkpt>
      <trkpt lat="44.88956" lon="5.69474">
        <ele>718.544</ele>
        <time>2012-06-17T09:49:24Z</time>
      </trkpt>
      <trkpt lat="44.88942" lon="5.69429">
        <ele>714.506</ele>
        <time>2012-06-17T09:49:30Z</time>
      </trkpt>
      <trkpt lat="44.8894" lon="5.6942">
        <ele>713.866</ele>
        <time>2012-06-17T09:49:31Z</time>
      </trkpt>
      <trkpt lat="44.8894" lon="5.6938">
        <ele>711.47</ele>
        <time>2012-06-17T09:49:37Z</time>
      </trkpt>
      <trkpt lat="44.88943" lon="5.69366">
        <ele>709.891</ele>
        <time>2012-06-17T09:49:40Z</time>
      </trkpt>
      <trkpt lat="44.88957" lon="5.69361">
        <ele>706.015</ele>
        <time>2012-06-17T09:49:46Z</time>
      </trkpt>
      <trkpt lat="44.88967" lon="5.69357">
        <ele>704.916</ele>
        <time>2012-06-17T09:49:49Z</time>
      </trkpt>
      <trkpt lat="44.88977" lon="5.69338">
        <ele>702.745</ele>
        <time>2012-06-17T09:49:54Z</time>
      </trkpt>
      <trkpt lat="44.88977" lon="5.69335">
        <ele>702.376</ele>
        <time>2012-06-17T09:49:55Z</time>
      </trkpt>
      <trkpt lat="44.88975" lon="5.69314">
        <ele>699.261</ele>
        <time>2012-06-17T09:50:02Z</time>
      </trkpt>
      <trkpt lat="44.88969" lon="5.69287">
        <ele>695.757</ele>
        <time>2012-06-17T09:50:08Z</time>
      </trkpt>
      <trkpt lat="44.88968" lon="5.69282">
        <ele>695.806</ele>
        <time>2012-06-17T09:50:09Z</time>
      </trkpt>
      <trkpt lat="44.88962" lon="5.6927">
        <ele>692.473</ele>
        <time>2012-06-17T09:50:17Z</time>
      </trkpt>
      <trkpt lat="44.88961" lon="5.69271">
        <ele>689.183</ele>
        <time>2012-06-17T09:50:32Z</time>
      </trkpt>
      <trkpt lat="44.88965" lon="5.69252">
        <ele>687.127</ele>
        <time>2012-06-17T09:50:55Z</time>
      </trkpt>
      <trkpt lat="44.8897" lon="5.69241">
        <ele>687.393</ele>
        <time>2012-06-17T09:50:58Z</time>
      </trkpt>
      <trkpt lat="44.88981" lon="5.69231">
        <ele>686.499</ele>
        <time>2012-06-17T09:51:03Z</time>
      </trkpt>
      <trkpt lat="44.88996" lon="5.69225">
        <ele>683.705</ele>
        <time>2012-06-17T09:51:13Z</time>
      </trkpt>
      <trkpt lat="44.88994" lon="5.69203">
        <ele>681.701</ele>
        <time>2012-06-17T09:51:20Z</time>
      </trkpt>
      <trkpt lat="44.88993" lon="5.69202">
        <ele>681.318</ele>
        <time>2012-06-17T09:51:21Z</time>
      </trkpt>
      <trkpt lat="44.88965" lon="5.69195">
        <ele>679.258</ele>
        <time>2012-06-17T09:51:33Z</time>
      </trkpt>
      <trkpt lat="44.88945" lon="5.69183">
        <ele>675.994</ele>
        <time>2012-06-17T09:51:42Z</time>
      </trkpt>
      <trkpt lat="44.88943" lon="5.69184">
        <ele>675.699</ele>
        <time>2012-06-17T09:51:43Z</time>
      </trkpt>
      <trkpt lat="44.88935" lon="5.69165">
        <ele>671.789</ele>
        <time>2012-06-17T09:51:52Z</time>
      </trkpt>
      <trkpt lat="44.88931" lon="5.69163">
        <ele>671.821</ele>
        <time>2012-06-17T09:51:53Z</time>
      </trkpt>
      <trkpt lat="44.88903" lon="5.69159">
        <ele>668.696</ele>
        <time>2012-06-17T09:52:02Z</time>
      </trkpt>
      <trkpt lat="44.88901" lon="5.69157">
        <ele>668.073</ele>
        <time>2012-06-17T09:52:03Z</time>
      </trkpt>
      <trkpt lat="44.88914" lon="5.69139">
        <ele>666.028</ele>
        <time>2012-06-17T09:52:11Z</time>
      </trkpt>
      <trkpt lat="44.88922" lon="5.69129">
        <ele>666.028</ele>
        <time>2012-06-17T09:52:15Z</time>
      </trkpt>
      <trkpt lat="44.88927" lon="5.69108">
        <ele>664.863</ele>
        <time>2012-06-17T09:52:22Z</time>
      </trkpt>
      <trkpt lat="44.88925" lon="5.69095">
        <ele>662.727</ele>
        <time>2012-06-17T09:52:25Z</time>
      </trkpt>
      <trkpt lat="44.88925" lon="5.69075">
        <ele>661.66</ele>
        <time>2012-06-17T09:52:29Z</time>
      </trkpt>
      <trkpt lat="44.8892" lon="5.69052">
        <ele>659.66</ele>
        <time>2012-06-17T09:52:34Z</time>
      </trkpt>
      <trkpt lat="44.88908" lon="5.69024">
        <ele>656.555</ele>
        <time>2012-06-17T09:52:42Z</time>
      </trkpt>
      <trkpt lat="44.88901" lon="5.68992">
        <ele>653.73</ele>
        <time>2012-06-17T09:52:49Z</time>
      </trkpt>
      <trkpt lat="44.88885" lon="5.68976">
        <ele>652.438</ele>
        <time>2012-06-17T09:52:54Z</time>
      </trkpt>
      <trkpt lat="44.88863" lon="5.6897">
        <ele>651.338</ele>
        <time>2012-06-17T09:52:59Z</time>
      </trkpt>
      <trkpt lat="44.88821" lon="5.68965">
        <ele>649.651</ele>
        <time>2012-06-17T09:53:11Z</time>
      </trkpt>
      <trkpt lat="44.88801" lon="5.68959">
        <ele>647.74</ele>
        <time>2012-06-17T09:53:20Z</time>
      </trkpt>
      <trkpt lat="44.8878" lon="5.68962">
        <ele>644.446</ele>
        <time>2012-06-17T09:53:26Z</time>
      </trkpt>
      <trkpt lat="44.88754" lon="5.68966">
        <ele>642.702</ele>
        <time>2012-06-17T09:53:32Z</time>
      </trkpt>
      <trkpt lat="44.88725" lon="5.6896">
        <ele>639.105</ele>
        <time>2012-06-17T09:53:41Z</time>
      </trkpt>
      <trkpt lat="44.88717" lon="5.68956">
        <ele>636.535</ele>
        <time>2012-06-17T09:53:44Z</time>
      </trkpt>
      <trkpt lat="44.88692" lon="5.68943">
        <ele>633.794</ele>
        <time>2012-06-17T09:53:51Z</time>
      </trkpt>
      <trkpt lat="44.88672" lon="5.68935">
        <ele>631.128</ele>
        <time>2012-06-17T09:53:58Z</time>
      </trkpt>
      <trkpt lat="44.8866" lon="5.68921">
        <ele>629.627</ele>
        <time>2012-06-17T09:54:04Z</time>
      </trkpt>
      <trkpt lat="44.88643" lon="5.68914">
        <ele>627.233</ele>
        <time>2012-06-17T09:54:11Z</time>
      </trkpt>
      <trkpt lat="44.88634" lon="5.68897">
        <ele>625.912</ele>
        <time>2012-06-17T09:54:14Z</time>
      </trkpt>
      <trkpt lat="44.88625" lon="5.68889">
        <ele>624.649</ele>
        <time>2012-06-17T09:54:17Z</time>
      </trkpt>
      <trkpt lat="44.88612" lon="5.68891">
        <ele>621.145</ele>
        <time>2012-06-17T09:54:22Z</time>
      </trkpt>
      <trkpt lat="44.88603" lon="5.68909">
        <ele>618.107</ele>
        <time>2012-06-17T09:54:27Z</time>
      </trkpt>
      <trkpt lat="44.88589" lon="5.68914">
        <ele>614.622</ele>
        <time>2012-06-17T09:54:32Z</time>
      </trkpt>
      <trkpt lat="44.88584" lon="5.68914">
        <ele>613.377</ele>
        <time>2012-06-17T09:54:34Z</time>
      </trkpt>
      <trkpt lat="44.88563" lon="5.68926">
        <ele>610.276</ele>
        <time>2012-06-17T09:54:42Z</time>
      </trkpt>
      <trkpt lat="44.8855" lon="5.68927">
        <ele>609.065</ele>
        <time>2012-06-17T09:54:46Z</time>
      </trkpt>
      <trkpt lat="44.8851" lon="5.68912">
        <ele>604.642</ele>
        <time>2012-06-17T09:54:56Z</time>
      </trkpt>
      <trkpt lat="44.88506" lon="5.68912">
        <ele>604.172</ele>
        <time>2012-06-17T09:54:57Z</time>
      </trkpt>
      <trkpt lat="44.8848" lon="5.68908">
        <ele>601.11</ele>
        <time>2012-06-17T09:55:04Z</time>
      </trkpt>
      <trkpt lat="44.88461" lon="5.6891">
        <ele>598.33</ele>
        <time>2012-06-17T09:55:11Z</time>
      </trkpt>
      <trkpt lat="44.88453" lon="5.68912">
        <ele>596.807</ele>
        <time>2012-06-17T09:55:14Z</time>
      </trkpt>
      <trkpt lat="44.88442" lon="5.68919">
        <ele>593.743</ele>
        <time>2012-06-17T09:55:18Z</time>
      </trkpt>
      <trkpt lat="44.88436" lon="5.68917">
        <ele>591.615</ele>
        <time>2012-06-17T09:55:21Z</time>
      </trkpt>
      <trkpt lat="44.88433" lon="5.68912">
        <ele>589.542</ele>
        <time>2012-06-17T09:55:24Z</time>
      </trkpt>
      <trkpt lat="44.88431" lon="5.68904">
        <ele>587.117</ele>
        <time>2012-06-17T09:55:29Z</time>
      </trkpt>
      <trkpt lat="44.88426" lon="5.68904">
        <ele>585.419</ele>
        <time>2012-06-17T09:55:32Z</time>
      </trkpt>
      <trkpt lat="44.88423" lon="5.68908">
        <ele>584.017</ele>
        <time>2012-06-17T09:55:34Z</time>
      </trkpt>
      <trkpt lat="44.88416" lon="5.68932">
        <ele>581.233</ele>
        <time>2012-06-17T09:55:40Z</time>
      </trkpt>
      <trkpt lat="44.88417" lon="5.68941">
        <ele>580.173</ele>
        <time>2012-06-17T09:55:42Z</time>
      </trkpt>
      <trkpt lat="44.88421" lon="5.68952">
        <ele>579.132</ele>
        <time>2012-06-17T09:55:46Z</time>
      </trkpt>
      <trkpt lat="44.88421" lon="5.68987">
        <ele>577.284</ele>
        <time>2012-06-17T09:55:56Z</time>
      </trkpt>
      <trkpt lat="44.88418" lon="5.68996">
        <ele>576.104</ele>
        <time>2012-06-17T09:55:58Z</time>
      </trkpt>
      <trkpt lat="44.88425" lon="5.69015">
        <ele>574.721</ele>
        <time>2012-06-17T09:56:03Z</time>
      </trkpt>
      <trkpt lat="44.88433" lon="5.69043">
        <ele>572.152</ele>
        <time>2012-06-17T09:56:09Z</time>
      </trkpt>
      <trkpt lat="44.88422" lon="5.69054">
        <ele>570.53</ele>
        <time>2012-06-17T09:56:13Z</time>
      </trkpt>
      <trkpt lat="44.88416" lon="5.69057">
        <ele>570.043</ele>
        <time>2012-06-17T09:56:15Z</time>
      </trkpt>
      <trkpt lat="44.88411" lon="5.69059">
        <ele>568.847</ele>
        <time>2012-06-17T09:56:18Z</time>
      </trkpt>
      <trkpt lat="44.88405" lon="5.69053">
        <ele>566.898</ele>
        <time>2012-06-17T09:56:22Z</time>
      </trkpt>
      <trkpt lat="44.88405" lon="5.69053">
        <ele>565.573</ele>
        <time>2012-06-17T09:56:27Z</time>
      </trkpt>
      <trkpt lat="44.88402" lon="5.69055">
        <ele>564.986</ele>
        <time>2012-06-17T09:56:30Z</time>
      </trkpt>
      <trkpt lat="44.88391" lon="5.69065">
        <ele>561.217</ele>
        <time>2012-06-17T09:56:40Z</time>
      </trkpt>
      <trkpt lat="44.8839" lon="5.69069">
        <ele>561.333</ele>
        <time>2012-06-17T09:56:47Z</time>
      </trkpt>
      <trkpt lat="44.88394" lon="5.69079">
        <ele>560.512</ele>
        <time>2012-06-17T09:56:52Z</time>
      </trkpt>
      <trkpt lat="44.88416" lon="5.69109">
        <ele>559.009</ele>
        <time>2012-06-17T09:57:02Z</time>
      </trkpt>
      <trkpt lat="44.88425" lon="5.69112">
        <ele>557.698</ele>
        <time>2012-06-17T09:57:16Z</time>
      </trkpt>
      <trkpt lat="44.88426" lon="5.69116">
        <ele>556.586</ele>
        <time>2012-06-17T09:57:19Z</time>
      </trkpt>
      <trkpt lat="44.88424" lon="5.69127">
        <ele>557.521</ele>
        <time>2012-06-17T09:57:32Z</time>
      </trkpt>
      <trkpt lat="44.88421" lon="5.6913">
        <ele>556.848</ele>
        <time>2012-06-17T09:57:35Z</time>
      </trkpt>
      <trkpt lat="44.88408" lon="5.69135">
        <ele>558.018</ele>
        <time>2012-06-17T09:57:45Z</time>
      </trkpt>
      <trkpt lat="44.8839" lon="5.69138">
        <ele>560.177</ele>
        <time>2012-06-17T09:57:59Z</time>
      </trkpt>
      <trkpt lat="44.88376" lon="5.69161">
        <ele>561.339</ele>
        <time>2012-06-17T09:58:12Z</time>
      </trkpt>
      <trkpt lat="44.88367" lon="5.69184">
        <ele>561.406</ele>
        <time>2012-06-17T09:58:19Z</time>
      </trkpt>
      <trkpt lat="44.88359" lon="5.69182">
        <ele>561.434</ele>
        <time>2012-06-17T09:58:24Z</time>
      </trkpt>
      <trkpt lat="44.88347" lon="5.69174">
        <ele>564.117</ele>
        <time>2012-06-17T09:58:34Z</time>
      </trkpt>
      <trkpt lat="44.88344" lon="5.69173">
        <ele>564.26</ele>
        <time>2012-06-17T09:58:36Z</time>
      </trkpt>
      <trkpt lat="44.88332" lon="5.69174">
        <ele>566.685</ele>
        <time>2012-06-17T09:58:47Z</time>
      </trkpt>
      <trkpt lat="44.88323" lon="5.69171">
        <ele>568.602</ele>
        <time>2012-06-17T09:58:56Z</time>
      </trkpt>
      <trkpt lat="44.88307" lon="5.69178">
        <ele>571.416</ele>
        <time>2012-06-17T09:59:12Z</time>
      </trkpt>
      <trkpt lat="44.88292" lon="5.69181">
        <ele>574.332</ele>
        <time>2012-06-17T09:59:27Z</time>
      </trkpt>
      <trkpt lat="44.88277" lon="5.69194">
        <ele>576.672</ele>
        <time>2012-06-17T09:59:42Z</time>
      </trkpt>
      <trkpt lat="44.88276" lon="5.69203">
        <ele>578.994</ele>
        <time>2012-06-17T09:59:55Z</time>
      </trkpt>
      <trkpt lat="44.88276" lon="5.69219">
        <ele>582.173</ele>
        <time>2012-06-17T10:00:11Z</time>
      </trkpt>
      <trkpt lat="44.88279" lon="5.69233">
        <ele>584.396</ele>
        <time>2012-06-17T10:00:26Z</time>
      </trkpt>
      <trkpt lat="44.88273" lon="5.69244">
        <ele>585.086</ele>
        <time>2012-06-17T10:00:38Z</time>
      </trkpt>
      <trkpt lat="44.88265" lon="5.69257">
        <ele>585.155</ele>
        <time>2012-06-17T10:00:51Z</time>
      </trkpt>
      <trkpt lat="44.88254" lon="5.69258">
        <ele>583.989</ele>
        <time>2012-06-17T10:01:00Z</time>
      </trkpt>
      <trkpt lat="44.88251" lon="5.69257">
        <ele>584.51</ele>
        <time>2012-06-17T10:01:02Z</time>
      </trkpt>
      <trkpt lat="44.88241" lon="5.69249">
        <ele>585.022</ele>
        <time>2012-06-17T10:01:12Z</time>
      </trkpt>
      <trkpt lat="44.88229" lon="5.69239">
        <ele>585.03</ele>
        <time>2012-06-17T10:01:18Z</time>
      </trkpt>
      <trkpt lat="44.88229" lon="5.69207">
        <ele>585.248</ele>
        <time>2012-06-17T10:01:26Z</time>
      </trkpt>
      <trkpt lat="44.88218" lon="5.69191">
        <ele>584.988</ele>
        <time>2012-06-17T10:01:33Z</time>
      </trkpt>
      <trkpt lat="44.88181" lon="5.69171">
        <ele>584.579</ele>
        <time>2012-06-17T10:01:47Z</time>
      </trkpt>
      <trkpt lat="44.88179" lon="5.69166">
        <ele>583.775</ele>
        <time>2012-06-17T10:01:50Z</time>
      </trkpt>
      <trkpt lat="44.8819" lon="5.6916">
        <ele>582.42</ele>
        <time>2012-06-17T10:01:55Z</time>
      </trkpt>
      <trkpt lat="44.88205" lon="5.69157">
        <ele>580.7</ele>
        <time>2012-06-17T10:02:00Z</time>
      </trkpt>
      <trkpt lat="44.8822" lon="5.69156">
        <ele>579.037</ele>
        <time>2012-06-17T10:02:05Z</time>
      </trkpt>
      <trkpt lat="44.88228" lon="5.69158">
        <ele>575.408</ele>
        <time>2012-06-17T10:02:15Z</time>
      </trkpt>
      <trkpt lat="44.8823" lon="5.69157">
        <ele>574.785</ele>
        <time>2012-06-17T10:02:17Z</time>
      </trkpt>
      <trkpt lat="44.88232" lon="5.69156">
        <ele>574.069</ele>
        <time>2012-06-17T10:02:19Z</time>
      </trkpt>
      <trkpt lat="44.88235" lon="5.69149">
        <ele>571.152</ele>
        <time>2012-06-17T10:02:28Z</time>
      </trkpt>
      <trkpt lat="44.88229" lon="5.69127">
        <ele>567.862</ele>
        <time>2012-06-17T10:02:34Z</time>
      </trkpt>
      <trkpt lat="44.88227" lon="5.69123">
        <ele>567.619</ele>
        <time>2012-06-17T10:02:35Z</time>
      </trkpt>
      <trkpt lat="44.88206" lon="5.69111">
        <ele>564.183</ele>
        <time>2012-06-17T10:02:42Z</time>
      </trkpt>
      <trkpt lat="44.88192" lon="5.69097">
        <ele>561.12</ele>
        <time>2012-06-17T10:02:48Z</time>
      </trkpt>
      <trkpt lat="44.88177" lon="5.69086">
        <ele>557.759</ele>
        <time>2012-06-17T10:02:53Z</time>
      </trkpt>
      <trkpt lat="44.88166" lon="5.6908">
        <ele>554.503</ele>
        <time>2012-06-17T10:02:57Z</time>
      </trkpt>
      <trkpt lat="44.88171" lon="5.69071">
        <ele>551.638</ele>
        <time>2012-06-17T10:03:01Z</time>
      </trkpt>
      <trkpt lat="44.88176" lon="5.69068">
        <ele>550.579</ele>
        <time>2012-06-17T10:03:03Z</time>
      </trkpt>
      <trkpt lat="44.88191" lon="5.69068">
        <ele>547.389</ele>
        <time>2012-06-17T10:03:09Z</time>
      </trkpt>
      <trkpt lat="44.882" lon="5.69069">
        <ele>545.164</ele>
        <time>2012-06-17T10:03:13Z</time>
      </trkpt>
      <trkpt lat="44.88201" lon="5.69065">
        <ele>542.613</ele>
        <time>2012-06-17T10:03:18Z</time>
      </trkpt>
      <trkpt lat="44.88194" lon="5.69058">
        <ele>540.525</ele>
        <time>2012-06-17T10:03:22Z</time>
      </trkpt>
      <trkpt lat="44.8819" lon="5.69051">
        <ele>539.12</ele>
        <time>2012-06-17T10:03:25Z</time>
      </trkpt>
      <trkpt lat="44.88184" lon="5.69046">
        <ele>537.21</ele>
        <time>2012-06-17T10:03:28Z</time>
      </trkpt>
      <trkpt lat="44.88178" lon="5.6904">
        <ele>535.853</ele>
        <time>2012-06-17T10:03:31Z</time>
      </trkpt>
      <trkpt lat="44.88169" lon="5.69033">
        <ele>532.717</ele>
        <time>2012-06-17T10:03:36Z</time>
      </trkpt>
      <trkpt lat="44.88168" lon="5.69032">
        <ele>532.462</ele>
        <time>2012-06-17T10:03:37Z</time>
      </trkpt>
      <trkpt lat="44.88168" lon="5.69029">
        <ele>531.078</ele>
        <time>2012-06-17T10:03:40Z</time>
      </trkpt>
      <trkpt lat="44.88177" lon="5.69028">
        <ele>526.586</ele>
        <time>2012-06-17T10:03:45Z</time>
      </trkpt>
      <trkpt lat="44.88179" lon="5.69028">
        <ele>525.743</ele>
        <time>2012-06-17T10:03:46Z</time>
      </trkpt>
      <trkpt lat="44.88195" lon="5.69024">
        <ele>522.754</ele>
        <time>2012-06-17T10:03:52Z</time>
      </trkpt>
      <trkpt lat="44.88198" lon="5.69021">
        <ele>521.667</ele>
        <time>2012-06-17T10:03:54Z</time>
      </trkpt>
      <trkpt lat="44.882" lon="5.69018">
        <ele>521.345</ele>
        <time>2012-06-17T10:03:55Z</time>
      </trkpt>
      <trkpt lat="44.88198" lon="5.69002">
        <ele>517.343</ele>
        <time>2012-06-17T10:04:00Z</time>
      </trkpt>
      <trkpt lat="44.88196" lon="5.68994">
        <ele>515.842</ele>
        <time>2012-06-17T10:04:02Z</time>
      </trkpt>
      <trkpt lat="44.88182" lon="5.68984">
        <ele>512.004</ele>
        <time>2012-06-17T10:04:08Z</time>
      </trkpt>
      <trkpt lat="44.88179" lon="5.68983">
        <ele>510.679</ele>
        <time>2012-06-17T10:04:10Z</time>
      </trkpt>
      <trkpt lat="44.88173" lon="5.6898">
        <ele>509.156</ele>
        <time>2012-06-17T10:04:13Z</time>
      </trkpt>
      <trkpt lat="44.88169" lon="5.68982">
        <ele>508.319</ele>
        <time>2012-06-17T10:04:15Z</time>
      </trkpt>
      <trkpt lat="44.88156" lon="5.68985">
        <ele>506.914</ele>
        <time>2012-06-17T10:04:21Z</time>
      </trkpt>
      <trkpt lat="44.88113" lon="5.68992">
        <ele>504.738</ele>
        <time>2012-06-17T10:04:38Z</time>
      </trkpt>
      <trkpt lat="44.88061" lon="5.68994">
        <ele>504.044</ele>
        <time>2012-06-17T10:04:53Z</time>
      </trkpt>
      <trkpt lat="44.87996" lon="5.69009">
        <ele>502.835</ele>
        <time>2012-06-17T10:05:08Z</time>
      </trkpt>
      <trkpt lat="44.8792" lon="5.69052">
        <ele>502.587</ele>
        <time>2012-06-17T10:05:26Z</time>
      </trkpt>
      <trkpt lat="44.87838" lon="5.69106">
        <ele>503.2</ele>
        <time>2012-06-17T10:05:47Z</time>
      </trkpt>
      <trkpt lat="44.87773" lon="5.69149">
        <ele>503.546</ele>
        <time>2012-06-17T10:06:04Z</time>
      </trkpt>
      <trkpt lat="44.87766" lon="5.69154">
        <ele>503.822</ele>
        <time>2012-06-17T10:06:06Z</time>
      </trkpt>
      <trkpt lat="44.87751" lon="5.69166">
        <ele>503.331</ele>
        <time>2012-06-17T10:06:10Z</time>
      </trkpt>
      <trkpt lat="44.87728" lon="5.69201">
        <ele>503.204</ele>
        <time>2012-06-17T10:06:18Z</time>
      </trkpt>
      <trkpt lat="44.87707" lon="5.69307">
        <ele>501.545</ele>
        <time>2012-06-17T10:06:33Z</time>
      </trkpt>
      <trkpt lat="44.87692" lon="5.69381">
        <ele>501.952</ele>
        <time>2012-06-17T10:06:44Z</time>
      </trkpt>
      <trkpt lat="44.87717" lon="5.69457">
        <ele>503.016</ele>
        <time>2012-06-17T10:07:00Z</time>
      </trkpt>
      <trkpt lat="44.87747" lon="5.69527">
        <ele>504.589</ele>
        <time>2012-06-17T10:07:17Z</time>
      </trkpt>
      <trkpt lat="44.87731" lon="5.6955">
        <ele>505.523</ele>
        <time>2012-06-17T10:07:25Z</time>
      </trkpt>
      <trkpt lat="44.8772" lon="5.69552">
        <ele>507.365</ele>
        <time>2012-06-17T10:07:33Z</time>
      </trkpt>
      <trkpt lat="44.87719" lon="5.69552">
        <ele>507.016</ele>
        <time>2012-06-17T10:07:34Z</time>
      </trkpt>
      <trkpt lat="44.87691" lon="5.6955">
        <ele>506.154</ele>
        <time>2012-06-17T10:07:47Z</time>
      </trkpt>
      <trkpt lat="44.87686" lon="5.69549">
        <ele>509.216</ele>
        <time>2012-06-17T10:07:49Z</time>
      </trkpt>
      <trkpt lat="44.87662" lon="5.6954">
        <ele>510.836</ele>
        <time>2012-06-17T10:08:01Z</time>
      </trkpt>
      <trkpt lat="44.8764" lon="5.69544">
        <ele>510.362</ele>
        <time>2012-06-17T10:08:11Z</time>
      </trkpt>
      <trkpt lat="44.87635" lon="5.6956">
        <ele>508.726</ele>
        <time>2012-06-17T10:08:15Z</time>
      </trkpt>
      <trkpt lat="44.87629" lon="5.69577">
        <ele>508.335</ele>
        <time>2012-06-17T10:08:20Z</time>
      </trkpt>
      <trkpt lat="44.87618" lon="5.69589">
        <ele>506.887</ele>
        <time>2012-06-17T10:08:24Z</time>
      </trkpt>
      <trkpt lat="44.8761" lon="5.696">
        <ele>505.945</ele>
        <time>2012-06-17T10:08:26Z</time>
      </trkpt>
      <trkpt lat="44.8759" lon="5.69648">
        <ele>505.348</ele>
        <time>2012-06-17T10:08:35Z</time>
      </trkpt>
      <trkpt lat="44.87588" lon="5.69655">
        <ele>505.007</ele>
        <time>2012-06-17T10:08:37Z</time>
      </trkpt>
      <trkpt lat="44.87594" lon="5.69669">
        <ele>504.593</ele>
        <time>2012-06-17T10:08:42Z</time>
      </trkpt>
      <trkpt lat="44.87595" lon="5.69674">
        <ele>503.699</ele>
        <time>2012-06-17T10:08:44Z</time>
      </trkpt>
      <trkpt lat="44.87586" lon="5.69681">
        <ele>503.773</ele>
        <time>2012-06-17T10:08:48Z</time>
      </trkpt>
      <trkpt lat="44.87579" lon="5.69693">
        <ele>503.053</ele>
        <time>2012-06-17T10:08:59Z</time>
      </trkpt>
      <trkpt lat="44.87571" lon="5.697">
        <ele>500.999</ele>
        <time>2012-06-17T10:09:10Z</time>
      </trkpt>
      <trkpt lat="44.87555" lon="5.69689">
        <ele>501.121</ele>
        <time>2012-06-17T10:09:17Z</time>
      </trkpt>
      <trkpt lat="44.87549" lon="5.69681">
        <ele>501.437</ele>
        <time>2012-06-17T10:09:33Z</time>
      </trkpt>
      <trkpt lat="44.87541" lon="5.69679">
        <ele>504.666</ele>
        <time>2012-06-17T10:09:47Z</time>
      </trkpt>
      <trkpt lat="44.87536" lon="5.69678">
        <ele>506.035</ele>
        <time>2012-06-17T10:09:55Z</time>
      </trkpt>
      <trkpt lat="44.87514" lon="5.69682">
        <ele>505.352</ele>
        <time>2012-06-17T10:10:08Z</time>
      </trkpt>
      <trkpt lat="44.87496" lon="5.69685">
        <ele>504.02</ele>
        <time>2012-06-17T10:10:12Z</time>
      </trkpt>
      <trkpt lat="44.87471" lon="5.697">
        <ele>503.034</ele>
        <time>2012-06-17T10:10:21Z</time>
      </trkpt>
      <trkpt lat="44.87449" lon="5.6972">
        <ele>503.393</ele>
        <time>2012-06-17T10:10:40Z</time>
      </trkpt>
      <trkpt lat="44.87438" lon="5.69731">
        <ele>504.772</ele>
        <time>2012-06-17T10:10:51Z</time>
      </trkpt>
      <trkpt lat="44.8743" lon="5.69761">
        <ele>507.97</ele>
        <time>2012-06-17T10:11:10Z</time>
      </trkpt>
      <trkpt lat="44.87423" lon="5.69787">
        <ele>509.916</ele>
        <time>2012-06-17T10:11:27Z</time>
      </trkpt>
      <trkpt lat="44.87413" lon="5.69807">
        <ele>511.608</ele>
        <time>2012-06-17T10:11:40Z</time>
      </trkpt>
      <trkpt lat="44.8742" lon="5.69811">
        <ele>513.243</ele>
        <time>2012-06-17T10:11:49Z</time>
      </trkpt>
      <trkpt lat="44.87445" lon="5.69798">
        <ele>516.6</ele>
        <time>2012-06-17T10:12:10Z</time>
      </trkpt>
      <trkpt lat="44.87448" lon="5.69797">
        <ele>517.482</ele>
        <time>2012-06-17T10:12:12Z</time>
      </trkpt>
      <trkpt lat="44.87467" lon="5.69787">
        <ele>518.734</ele>
        <time>2012-06-17T10:12:28Z</time>
      </trkpt>
      <trkpt lat="44.87462" lon="5.69805">
        <ele>522.007</ele>
        <time>2012-06-17T10:12:41Z</time>
      </trkpt>
      <trkpt lat="44.87449" lon="5.69832">
        <ele>525.128</ele>
        <time>2012-06-17T10:12:59Z</time>
      </trkpt>
      <trkpt lat="44.87435" lon="5.69866">
        <ele>527.264</ele>
        <time>2012-06-17T10:13:18Z</time>
      </trkpt>
      <trkpt lat="44.87425" lon="5.69885">
        <ele>530.324</ele>
        <time>2012-06-17T10:13:31Z</time>
      </trkpt>
      <trkpt lat="44.87411" lon="5.6991">
        <ele>533.331</ele>
        <time>2012-06-17T10:13:48Z</time>
      </trkpt>
      <trkpt lat="44.87398" lon="5.69937">
        <ele>535.441</ele>
        <time>2012-06-17T10:14:05Z</time>
      </trkpt>
      <trkpt lat="44.87393" lon="5.69949">
        <ele>535.727</ele>
        <time>2012-06-17T10:14:12Z</time>
      </trkpt>
      <trkpt lat="44.87389" lon="5.69956">
        <ele>537.002</ele>
        <time>2012-06-17T10:14:16Z</time>
      </trkpt>
      <trkpt lat="44.87366" lon="5.6999">
        <ele>539.938</ele>
        <time>2012-06-17T10:14:36Z</time>
      </trkpt>
      <trkpt lat="44.87356" lon="5.70001">
        <ele>541.805</ele>
        <time>2012-06-17T10:14:44Z</time>
      </trkpt>
      <trkpt lat="44.87351" lon="5.70006">
        <ele>540.491</ele>
        <time>2012-06-17T10:14:48Z</time>
      </trkpt>
      <trkpt lat="44.87319" lon="5.70016">
        <ele>545.262</ele>
        <time>2012-06-17T10:15:04Z</time>
      </trkpt>
      <trkpt lat="44.87284" lon="5.70022">
        <ele>546.554</ele>
        <time>2012-06-17T10:15:21Z</time>
      </trkpt>
      <trkpt lat="44.87239" lon="5.70035">
        <ele>548.364</ele>
        <time>2012-06-17T10:15:44Z</time>
      </trkpt>
      <trkpt lat="44.8721" lon="5.70046">
        <ele>550.848</ele>
        <time>2012-06-17T10:16:01Z</time>
      </trkpt>
      <trkpt lat="44.87202" lon="5.7005">
        <ele>551.381</ele>
        <time>2012-06-17T10:16:25Z</time>
      </trkpt>
      <trkpt lat="44.87201" lon="5.70074">
        <ele>551.362</ele>
        <time>2012-06-17T10:16:33Z</time>
      </trkpt>
      <trkpt lat="44.87234" lon="5.70153">
        <ele>551.323</ele>
        <time>2012-06-17T10:16:54Z</time>
      </trkpt>
      <trkpt lat="44.87241" lon="5.70221">
        <ele>552.75</ele>
        <time>2012-06-17T10:17:10Z</time>
      </trkpt>
      <trkpt lat="44.87258" lon="5.70292">
        <ele>553.015</ele>
        <time>2012-06-17T10:17:28Z</time>
      </trkpt>
      <trkpt lat="44.87293" lon="5.70359">
        <ele>554.056</ele>
        <time>2012-06-17T10:17:49Z</time>
      </trkpt>
      <trkpt lat="44.87315" lon="5.70408">
        <ele>555.192</ele>
        <time>2012-06-17T10:18:04Z</time>
      </trkpt>
      <trkpt lat="44.87307" lon="5.70421">
        <ele>553.878</ele>
        <time>2012-06-17T10:18:10Z</time>
      </trkpt>
      <trkpt lat="44.87297" lon="5.70421">
        <ele>553.638</ele>
        <time>2012-06-17T10:18:13Z</time>
      </trkpt>
      <trkpt lat="44.87285" lon="5.70422">
        <ele>552.598</ele>
        <time>2012-06-17T10:18:17Z</time>
      </trkpt>
      <trkpt lat="44.87271" lon="5.70423">
        <ele>551.586</ele>
        <time>2012-06-17T10:18:20Z</time>
      </trkpt>
      <trkpt lat="44.87256" lon="5.70428">
        <ele>551.252</ele>
        <time>2012-06-17T10:18:23Z</time>
      </trkpt>
      <trkpt lat="44.87231" lon="5.70449">
        <ele>549.374</ele>
        <time>2012-06-17T10:18:29Z</time>
      </trkpt>
      <trkpt lat="44.87221" lon="5.70488">
        <ele>545.778</ele>
        <time>2012-06-17T10:18:37Z</time>
      </trkpt>
      <trkpt lat="44.87229" lon="5.70508">
        <ele>544.841</ele>
        <time>2012-06-17T10:18:41Z</time>
      </trkpt>
      <trkpt lat="44.87226" lon="5.70531">
        <ele>543.534</ele>
        <time>2012-06-17T10:18:45Z</time>
      </trkpt>
      <trkpt lat="44.87221" lon="5.7054">
        <ele>543.481</ele>
        <time>2012-06-17T10:18:47Z</time>
      </trkpt>
      <trkpt lat="44.87199" lon="5.70598">
        <ele>542.772</ele>
        <time>2012-06-17T10:19:01Z</time>
      </trkpt>
      <trkpt lat="44.8717" lon="5.70645">
        <ele>540.549</ele>
        <time>2012-06-17T10:19:13Z</time>
      </trkpt>
      <trkpt lat="44.87155" lon="5.70661">
        <ele>539.813</ele>
        <time>2012-06-17T10:19:17Z</time>
      </trkpt>
      <trkpt lat="44.87143" lon="5.70676">
        <ele>538.835</ele>
        <time>2012-06-17T10:19:20Z</time>
      </trkpt>
      <trkpt lat="44.87147" lon="5.70714">
        <ele>535.723</ele>
        <time>2012-06-17T10:19:28Z</time>
      </trkpt>
      <trkpt lat="44.87168" lon="5.70742">
        <ele>532.231</ele>
        <time>2012-06-17T10:19:34Z</time>
      </trkpt>
      <trkpt lat="44.87171" lon="5.70764">
        <ele>530.59</ele>
        <time>2012-06-17T10:19:37Z</time>
      </trkpt>
      <trkpt lat="44.87169" lon="5.70786">
        <ele>528.817</ele>
        <time>2012-06-17T10:19:40Z</time>
      </trkpt>
      <trkpt lat="44.87166" lon="5.708">
        <ele>528.181</ele>
        <time>2012-06-17T10:19:43Z</time>
      </trkpt>
      <trkpt lat="44.8714" lon="5.70796">
        <ele>527.522</ele>
        <time>2012-06-17T10:19:54Z</time>
      </trkpt>
      <trkpt lat="44.8711" lon="5.70811">
        <ele>529.756</ele>
        <time>2012-06-17T10:20:09Z</time>
      </trkpt>
      <trkpt lat="44.87109" lon="5.70831">
        <ele>530.168</ele>
        <time>2012-06-17T10:20:14Z</time>
      </trkpt>
      <trkpt lat="44.87107" lon="5.70851">
        <ele>529.444</ele>
        <time>2012-06-17T10:20:21Z</time>
      </trkpt>
      <trkpt lat="44.87091" lon="5.70855">
        <ele>529.369</ele>
        <time>2012-06-17T10:20:27Z</time>
      </trkpt>
      <trkpt lat="44.87064" lon="5.70836">
        <ele>531.794</ele>
        <time>2012-06-17T10:20:40Z</time>
      </trkpt>
      <trkpt lat="44.8704" lon="5.70833">
        <ele>533.059</ele>
        <time>2012-06-17T10:20:49Z</time>
      </trkpt>
      <trkpt lat="44.87032" lon="5.70872">
        <ele>533.785</ele>
        <time>2012-06-17T10:21:01Z</time>
      </trkpt>
      <trkpt lat="44.87021" lon="5.70903">
        <ele>534.888</ele>
        <time>2012-06-17T10:21:11Z</time>
      </trkpt>
      <trkpt lat="44.87015" lon="5.70914">
        <ele>536.709</ele>
        <time>2012-06-17T10:21:18Z</time>
      </trkpt>
      <trkpt lat="44.87012" lon="5.70917">
        <ele>536.866</ele>
        <time>2012-06-17T10:21:21Z</time>
      </trkpt>
      <trkpt lat="44.87003" lon="5.70943">
        <ele>539.397</ele>
        <time>2012-06-17T10:21:37Z</time>
      </trkpt>
      <trkpt lat="44.86977" lon="5.70945">
        <ele>542.295</ele>
        <time>2012-06-17T10:21:55Z</time>
      </trkpt>
      <trkpt lat="44.8697" lon="5.7094">
        <ele>542.053</ele>
        <time>2012-06-17T10:21:59Z</time>
      </trkpt>
      <trkpt lat="44.86954" lon="5.70927">
        <ele>539.656</ele>
        <time>2012-06-17T10:22:09Z</time>
      </trkpt>
      <trkpt lat="44.86926" lon="5.70904">
        <ele>536.574</ele>
        <time>2012-06-17T10:22:17Z</time>
      </trkpt>
      <trkpt lat="44.86885" lon="5.7087">
        <ele>533.031</ele>
        <time>2012-06-17T10:22:25Z</time>
      </trkpt>
      <trkpt lat="44.86843" lon="5.70836">
        <ele>533.518</ele>
        <time>2012-06-17T10:22:37Z</time>
      </trkpt>
      <trkpt lat="44.86815" lon="5.70812">
        <ele>536.243</ele>
        <time>2012-06-17T10:22:53Z</time>
      </trkpt>
      <trkpt lat="44.86792" lon="5.70792">
        <ele>536.452</ele>
        <time>2012-06-17T10:23:12Z</time>
      </trkpt>
      <trkpt lat="44.86788" lon="5.7079">
        <ele>536.807</ele>
        <time>2012-06-17T10:23:15Z</time>
      </trkpt>
      <trkpt lat="44.86787" lon="5.7078">
        <ele>537.753</ele>
        <time>2012-06-17T10:23:22Z</time>
      </trkpt>
      <trkpt lat="44.86784" lon="5.70776">
        <ele>539.433</ele>
        <time>2012-06-17T10:23:27Z</time>
      </trkpt>
      <trkpt lat="44.86778" lon="5.70769">
        <ele>542.473</ele>
        <time>2012-06-17T10:23:41Z</time>
      </trkpt>
      <trkpt lat="44.86775" lon="5.70764">
        <ele>544.286</ele>
        <time>2012-06-17T10:23:47Z</time>
      </trkpt>
      <trkpt lat="44.86768" lon="5.7075">
        <ele>547.4</ele>
        <time>2012-06-17T10:24:01Z</time>
      </trkpt>
      <trkpt lat="44.86764" lon="5.70744">
        <ele>549.159</ele>
        <time>2012-06-17T10:24:07Z</time>
      </trkpt>
      <trkpt lat="44.86756" lon="5.70727">
        <ele>552.528</ele>
        <time>2012-06-17T10:24:25Z</time>
      </trkpt>
      <trkpt lat="44.86751" lon="5.70715">
        <ele>555.812</ele>
        <time>2012-06-17T10:24:37Z</time>
      </trkpt>
      <trkpt lat="44.86748" lon="5.70702">
        <ele>558.919</ele>
        <time>2012-06-17T10:24:54Z</time>
      </trkpt>
      <trkpt lat="44.86743" lon="5.70692">
        <ele>562.09</ele>
        <time>2012-06-17T10:25:10Z</time>
      </trkpt>
      <trkpt lat="44.86735" lon="5.70677">
        <ele>565.499</ele>
        <time>2012-06-17T10:25:26Z</time>
      </trkpt>
      <trkpt lat="44.86732" lon="5.70662">
        <ele>568.441</ele>
        <time>2012-06-17T10:25:41Z</time>
      </trkpt>
      <trkpt lat="44.8673" lon="5.70645">
        <ele>570.666</ele>
        <time>2012-06-17T10:25:55Z</time>
      </trkpt>
      <trkpt lat="44.86726" lon="5.70619">
        <ele>574.496</ele>
        <time>2012-06-17T10:26:13Z</time>
      </trkpt>
      <trkpt lat="44.8672" lon="5.70594">
        <ele>576.369</ele>
        <time>2012-06-17T10:26:34Z</time>
      </trkpt>
      <trkpt lat="44.86716" lon="5.70599">
        <ele>576.78</ele>
        <time>2012-06-17T10:26:46Z</time>
      </trkpt>
      <trkpt lat="44.86714" lon="5.70606">
        <ele>575.96</ele>
        <time>2012-06-17T10:26:50Z</time>
      </trkpt>
      <trkpt lat="44.86717" lon="5.70619">
        <ele>577.195</ele>
        <time>2012-06-17T10:27:02Z</time>
      </trkpt>
      <trkpt lat="44.86724" lon="5.70618">
        <ele>577.152</ele>
        <time>2012-06-17T10:28:08Z</time>
      </trkpt>
      <trkpt lat="44.86724" lon="5.70619">
        <ele>579.068</ele>
        <time>2012-06-17T10:28:12Z</time>
      </trkpt>
      <trkpt lat="44.8672" lon="5.70621">
        <ele>579.237</ele>
        <time>2012-06-17T10:28:35Z</time>
      </trkpt>
      <trkpt lat="44.86721" lon="5.70631">
        <ele>578.838</ele>
        <time>2012-06-17T10:28:41Z</time>
      </trkpt>
      <trkpt lat="44.86722" lon="5.70637">
        <ele>579.306</ele>
        <time>2012-06-17T10:28:44Z</time>
      </trkpt>
      <trkpt lat="44.86722" lon="5.70646">
        <ele>579.176</ele>
        <time>2012-06-17T10:28:48Z</time>
      </trkpt>
      <trkpt lat="44.86729" lon="5.70697">
        <ele>580.125</ele>
        <time>2012-06-17T10:29:02Z</time>
      </trkpt>
      <trkpt lat="44.8673" lon="5.70712">
        <ele>580.377</ele>
        <time>2012-06-17T10:29:07Z</time>
      </trkpt>
      <trkpt lat="44.8672" lon="5.70717">
        <ele>580.875</ele>
        <time>2012-06-17T10:29:12Z</time>
      </trkpt>
      <trkpt lat="44.86707" lon="5.70704">
        <ele>582.363</ele>
        <time>2012-06-17T10:29:22Z</time>
      </trkpt>
      <trkpt lat="44.867" lon="5.70687">
        <ele>584.906</ele>
        <time>2012-06-17T10:29:34Z</time>
      </trkpt>
      <trkpt lat="44.867" lon="5.70683">
        <ele>586.244</ele>
        <time>2012-06-17T10:29:38Z</time>
      </trkpt>
      <trkpt lat="44.86696" lon="5.70665">
        <ele>589.023</ele>
        <time>2012-06-17T10:29:53Z</time>
      </trkpt>
      <trkpt lat="44.86692" lon="5.70647">
        <ele>591.609</ele>
        <time>2012-06-17T10:30:05Z</time>
      </trkpt>
      <trkpt lat="44.86688" lon="5.70633">
        <ele>592.756</ele>
        <time>2012-06-17T10:30:14Z</time>
      </trkpt>
      <trkpt lat="44.86684" lon="5.70605">
        <ele>593.646</ele>
        <time>2012-06-17T10:30:32Z</time>
      </trkpt>
      <trkpt lat="44.8668" lon="5.70589">
        <ele>595.913</ele>
        <time>2012-06-17T10:30:45Z</time>
      </trkpt>
      <trkpt lat="44.86678" lon="5.70583">
        <ele>596.39</ele>
        <time>2012-06-17T10:30:48Z</time>
      </trkpt>
      <trkpt lat="44.86675" lon="5.70558">
        <ele>600.033</ele>
        <time>2012-06-17T10:31:02Z</time>
      </trkpt>
      <trkpt lat="44.86657" lon="5.70538">
        <ele>601.106</ele>
        <time>2012-06-17T10:31:15Z</time>
      </trkpt>
      <trkpt lat="44.86631" lon="5.70544">
        <ele>603.208</ele>
        <time>2012-06-17T10:31:31Z</time>
      </trkpt>
      <trkpt lat="44.86627" lon="5.70546">
        <ele>603.205</ele>
        <time>2012-06-17T10:31:34Z</time>
      </trkpt>
      <trkpt lat="44.86613" lon="5.70556">
        <ele>604.472</ele>
        <time>2012-06-17T10:31:50Z</time>
      </trkpt>
      <trkpt lat="44.866" lon="5.70569">
        <ele>606.087</ele>
        <time>2012-06-17T10:32:06Z</time>
      </trkpt>
      <trkpt lat="44.86587" lon="5.70583">
        <ele>608.255</ele>
        <time>2012-06-17T10:32:22Z</time>
      </trkpt>
      <trkpt lat="44.86577" lon="5.70598">
        <ele>611.003</ele>
        <time>2012-06-17T10:32:39Z</time>
      </trkpt>
      <trkpt lat="44.86568" lon="5.70607">
        <ele>612.886</ele>
        <time>2012-06-17T10:32:52Z</time>
      </trkpt>
      <trkpt lat="44.86563" lon="5.70621">
        <ele>615.887</ele>
        <time>2012-06-17T10:33:08Z</time>
      </trkpt>
      <trkpt lat="44.86559" lon="5.70632">
        <ele>619.094</ele>
        <time>2012-06-17T10:33:21Z</time>
      </trkpt>
      <trkpt lat="44.86556" lon="5.70642">
        <ele>622.161</ele>
        <time>2012-06-17T10:33:32Z</time>
      </trkpt>
      <trkpt lat="44.86552" lon="5.70657">
        <ele>625.703</ele>
        <time>2012-06-17T10:33:46Z</time>
      </trkpt>
      <trkpt lat="44.86548" lon="5.70675">
        <ele>629.221</ele>
        <time>2012-06-17T10:34:03Z</time>
      </trkpt>
      <trkpt lat="44.86541" lon="5.70684">
        <ele>632.085</ele>
        <time>2012-06-17T10:34:18Z</time>
      </trkpt>
      <trkpt lat="44.8654" lon="5.70696">
        <ele>634.56</ele>
        <time>2012-06-17T10:34:33Z</time>
      </trkpt>
      <trkpt lat="44.86527" lon="5.70713">
        <ele>635.55</ele>
        <time>2012-06-17T10:34:48Z</time>
      </trkpt>
      <trkpt lat="44.86518" lon="5.70717">
        <ele>635.511</ele>
        <time>2012-06-17T10:34:52Z</time>
      </trkpt>
      <trkpt lat="44.86507" lon="5.7072">
        <ele>635.523</ele>
        <time>2012-06-17T10:34:57Z</time>
      </trkpt>
      <trkpt lat="44.86498" lon="5.70722">
        <ele>635.591</ele>
        <time>2012-06-17T10:35:02Z</time>
      </trkpt>
      <trkpt lat="44.86476" lon="5.70713">
        <ele>636.115</ele>
        <time>2012-06-17T10:35:15Z</time>
      </trkpt>
      <trkpt lat="44.86461" lon="5.70686">
        <ele>638.592</ele>
        <time>2012-06-17T10:35:30Z</time>
      </trkpt>
      <trkpt lat="44.86452" lon="5.70641">
        <ele>641.488</ele>
        <time>2012-06-17T10:35:44Z</time>
      </trkpt>
      <trkpt lat="44.86446" lon="5.7062">
        <ele>643.102</ele>
        <time>2012-06-17T10:35:52Z</time>
      </trkpt>
      <trkpt lat="44.86428" lon="5.70584">
        <ele>644.707</ele>
        <time>2012-06-17T10:36:05Z</time>
      </trkpt>
      <trkpt lat="44.86401" lon="5.70544">
        <ele>645.477</ele>
        <time>2012-06-17T10:36:14Z</time>
      </trkpt>
      <trkpt lat="44.86382" lon="5.70504">
        <ele>646.341</ele>
        <time>2012-06-17T10:36:27Z</time>
      </trkpt>
      <trkpt lat="44.86371" lon="5.70482">
        <ele>647.624</ele>
        <time>2012-06-17T10:36:39Z</time>
      </trkpt>
      <trkpt lat="44.8637" lon="5.70464">
        <ele>648.226</ele>
        <time>2012-06-17T10:36:48Z</time>
      </trkpt>
      <trkpt lat="44.86374" lon="5.70456">
        <ele>649.011</ele>
        <time>2012-06-17T10:36:53Z</time>
      </trkpt>
      <trkpt lat="44.8639" lon="5.70425">
        <ele>652.242</ele>
        <time>2012-06-17T10:37:17Z</time>
      </trkpt>
      <trkpt lat="44.86401" lon="5.70408">
        <ele>655.273</ele>
        <time>2012-06-17T10:37:33Z</time>
      </trkpt>
      <trkpt lat="44.86404" lon="5.70397">
        <ele>656.069</ele>
        <time>2012-06-17T10:37:41Z</time>
      </trkpt>
      <trkpt lat="44.86392" lon="5.70366">
        <ele>659.499</ele>
        <time>2012-06-17T10:38:00Z</time>
      </trkpt>
      <trkpt lat="44.86377" lon="5.70327">
        <ele>662.286</ele>
        <time>2012-06-17T10:38:23Z</time>
      </trkpt>
      <trkpt lat="44.86373" lon="5.70301">
        <ele>663.717</ele>
        <time>2012-06-17T10:38:39Z</time>
      </trkpt>
      <trkpt lat="44.86396" lon="5.7028">
        <ele>666.922</ele>
        <time>2012-06-17T10:38:55Z</time>
      </trkpt>
      <trkpt lat="44.86405" lon="5.7027">
        <ele>667.831</ele>
        <time>2012-06-17T10:39:02Z</time>
      </trkpt>
      <trkpt lat="44.86395" lon="5.70254">
        <ele>667.713</ele>
        <time>2012-06-17T10:39:08Z</time>
      </trkpt>
      <trkpt lat="44.8638" lon="5.70248">
        <ele>667.425</ele>
        <time>2012-06-17T10:39:11Z</time>
      </trkpt>
      <trkpt lat="44.86365" lon="5.70242">
        <ele>666.969</ele>
        <time>2012-06-17T10:39:14Z</time>
      </trkpt>
      <trkpt lat="44.8635" lon="5.7022">
        <ele>665.843</ele>
        <time>2012-06-17T10:39:18Z</time>
      </trkpt>
      <trkpt lat="44.86343" lon="5.70206">
        <ele>665.263</ele>
        <time>2012-06-17T10:39:20Z</time>
      </trkpt>
      <trkpt lat="44.86346" lon="5.70172">
        <ele>663.751</ele>
        <time>2012-06-17T10:39:24Z</time>
      </trkpt>
      <trkpt lat="44.86341" lon="5.70133">
        <ele>662.049</ele>
        <time>2012-06-17T10:39:28Z</time>
      </trkpt>
      <trkpt lat="44.8634" lon="5.70125">
        <ele>661.743</ele>
        <time>2012-06-17T10:39:29Z</time>
      </trkpt>
      <trkpt lat="44.86333" lon="5.70099">
        <ele>660.177</ele>
        <time>2012-06-17T10:39:32Z</time>
      </trkpt>
      <trkpt lat="44.86336" lon="5.70056">
        <ele>658.527</ele>
        <time>2012-06-17T10:39:36Z</time>
      </trkpt>
      <trkpt lat="44.86343" lon="5.70034">
        <ele>657.85</ele>
        <time>2012-06-17T10:39:38Z</time>
      </trkpt>
      <trkpt lat="44.86365" lon="5.69995">
        <ele>654.339</ele>
        <time>2012-06-17T10:39:42Z</time>
      </trkpt>
      <trkpt lat="44.86369" lon="5.69986">
        <ele>654.19</ele>
        <time>2012-06-17T10:39:43Z</time>
      </trkpt>
      <trkpt lat="44.86389" lon="5.69944">
        <ele>654.336</ele>
        <time>2012-06-17T10:39:53Z</time>
      </trkpt>
      <trkpt lat="44.86398" lon="5.69917">
        <ele>654.017</ele>
        <time>2012-06-17T10:40:07Z</time>
      </trkpt>
      <trkpt lat="44.86392" lon="5.69906">
        <ele>654.473</ele>
        <time>2012-06-17T10:40:14Z</time>
      </trkpt>
      <trkpt lat="44.86369" lon="5.69912">
        <ele>656.327</ele>
        <time>2012-06-17T10:40:30Z</time>
      </trkpt>
      <trkpt lat="44.86342" lon="5.69918">
        <ele>657.531</ele>
        <time>2012-06-17T10:40:46Z</time>
      </trkpt>
      <trkpt lat="44.86332" lon="5.69914">
        <ele>657.435</ele>
        <time>2012-06-17T10:40:50Z</time>
      </trkpt>
      <trkpt lat="44.86301" lon="5.69828">
        <ele>656.063</ele>
        <time>2012-06-17T10:41:01Z</time>
      </trkpt>
      <trkpt lat="44.86278" lon="5.69762">
        <ele>657.237</ele>
        <time>2012-06-17T10:41:12Z</time>
      </trkpt>
      <trkpt lat="44.8627" lon="5.69733">
        <ele>659.501</ele>
        <time>2012-06-17T10:41:30Z</time>
      </trkpt>
      <trkpt lat="44.86272" lon="5.69709">
        <ele>662.404</ele>
        <time>2012-06-17T10:41:48Z</time>
      </trkpt>
      <trkpt lat="44.86273" lon="5.69685">
        <ele>665.43</ele>
        <time>2012-06-17T10:42:07Z</time>
      </trkpt>
      <trkpt lat="44.86275" lon="5.69672">
        <ele>666.928</ele>
        <time>2012-06-17T10:42:16Z</time>
      </trkpt>
      <trkpt lat="44.86275" lon="5.69671">
        <ele>667.281</ele>
        <time>2012-06-17T10:42:17Z</time>
      </trkpt>
      <trkpt lat="44.86285" lon="5.69619">
        <ele>670.374</ele>
        <time>2012-06-17T10:42:44Z</time>
      </trkpt>
      <trkpt lat="44.86301" lon="5.69557">
        <ele>671.582</ele>
        <time>2012-06-17T10:43:08Z</time>
      </trkpt>
      <trkpt lat="44.86305" lon="5.6954">
        <ele>671.242</ele>
        <time>2012-06-17T10:43:13Z</time>
      </trkpt>
      <trkpt lat="44.86309" lon="5.69522">
        <ele>671.098</ele>
        <time>2012-06-17T10:43:16Z</time>
      </trkpt>
      <trkpt lat="44.86325" lon="5.69493">
        <ele>671.131</ele>
        <time>2012-06-17T10:43:21Z</time>
      </trkpt>
      <trkpt lat="44.86337" lon="5.69484">
        <ele>671.42</ele>
        <time>2012-06-17T10:43:24Z</time>
      </trkpt>
      <trkpt lat="44.86365" lon="5.69433">
        <ele>669.794</ele>
        <time>2012-06-17T10:43:31Z</time>
      </trkpt>
      <trkpt lat="44.86368" lon="5.69411">
        <ele>670.265</ele>
        <time>2012-06-17T10:43:35Z</time>
      </trkpt>
      <trkpt lat="44.86347" lon="5.69382">
        <ele>670.57</ele>
        <time>2012-06-17T10:43:51Z</time>
      </trkpt>
      <trkpt lat="44.86346" lon="5.69343">
        <ele>671.13</ele>
        <time>2012-06-17T10:44:10Z</time>
      </trkpt>
      <trkpt lat="44.8635" lon="5.69295">
        <ele>673.127</ele>
        <time>2012-06-17T10:44:24Z</time>
      </trkpt>
      <trkpt lat="44.86359" lon="5.69272">
        <ele>673.118</ele>
        <time>2012-06-17T10:44:28Z</time>
      </trkpt>
      <trkpt lat="44.86381" lon="5.69238">
        <ele>672.524</ele>
        <time>2012-06-17T10:44:33Z</time>
      </trkpt>
      <trkpt lat="44.86461" lon="5.69169">
        <ele>669.509</ele>
        <time>2012-06-17T10:44:45Z</time>
      </trkpt>
      <trkpt lat="44.86488" lon="5.6915">
        <ele>668.346</ele>
        <time>2012-06-17T10:44:49Z</time>
      </trkpt>
      <trkpt lat="44.86513" lon="5.69108">
        <ele>666.685</ele>
        <time>2012-06-17T10:44:54Z</time>
      </trkpt>
      <trkpt lat="44.86523" lon="5.69084">
        <ele>664.57</ele>
        <time>2012-06-17T10:44:57Z</time>
      </trkpt>
      <trkpt lat="44.86526" lon="5.69079">
        <ele>663.612</ele>
        <time>2012-06-17T10:44:58Z</time>
      </trkpt>
      <trkpt lat="44.86538" lon="5.69055">
        <ele>664.934</ele>
        <time>2012-06-17T10:45:02Z</time>
      </trkpt>
      <trkpt lat="44.86557" lon="5.69037">
        <ele>663.186</ele>
        <time>2012-06-17T10:45:06Z</time>
      </trkpt>
      <trkpt lat="44.86579" lon="5.69024">
        <ele>661.841</ele>
        <time>2012-06-17T10:45:10Z</time>
      </trkpt>
      <trkpt lat="44.86608" lon="5.69023">
        <ele>660.643</ele>
        <time>2012-06-17T10:45:14Z</time>
      </trkpt>
      <trkpt lat="44.8664" lon="5.68985">
        <ele>659.355</ele>
        <time>2012-06-17T10:45:20Z</time>
      </trkpt>
      <trkpt lat="44.86648" lon="5.68942">
        <ele>658.133</ele>
        <time>2012-06-17T10:45:29Z</time>
      </trkpt>
      <trkpt lat="44.86651" lon="5.68938">
        <ele>658.391</ele>
        <time>2012-06-17T10:45:30Z</time>
      </trkpt>
      <trkpt lat="44.86678" lon="5.68906">
        <ele>657.967</ele>
        <time>2012-06-17T10:45:42Z</time>
      </trkpt>
      <trkpt lat="44.86684" lon="5.68897">
        <ele>657.956</ele>
        <time>2012-06-17T10:45:46Z</time>
      </trkpt>
      <trkpt lat="44.86691" lon="5.68888">
        <ele>659.1</ele>
        <time>2012-06-17T10:45:51Z</time>
      </trkpt>
      <trkpt lat="44.86696" lon="5.68872">
        <ele>660.106</ele>
        <time>2012-06-17T10:45:59Z</time>
      </trkpt>
      <trkpt lat="44.86701" lon="5.68865">
        <ele>660.386</ele>
        <time>2012-06-17T10:46:03Z</time>
      </trkpt>
      <trkpt lat="44.86715" lon="5.68827">
        <ele>662.43</ele>
        <time>2012-06-17T10:46:19Z</time>
      </trkpt>
      <trkpt lat="44.86701" lon="5.68788">
        <ele>663.071</ele>
        <time>2012-06-17T10:46:34Z</time>
      </trkpt>
      <trkpt lat="44.86691" lon="5.6876">
        <ele>664.92</ele>
        <time>2012-06-17T10:46:47Z</time>
      </trkpt>
      <trkpt lat="44.86672" lon="5.68756">
        <ele>666.539</ele>
        <time>2012-06-17T10:47:00Z</time>
      </trkpt>
      <trkpt lat="44.86644" lon="5.68762">
        <ele>667.179</ele>
        <time>2012-06-17T10:47:15Z</time>
      </trkpt>
      <trkpt lat="44.86606" lon="5.68775">
        <ele>668.318</ele>
        <time>2012-06-17T10:47:33Z</time>
      </trkpt>
      <trkpt lat="44.86573" lon="5.68791">
        <ele>669.499</ele>
        <time>2012-06-17T10:47:51Z</time>
      </trkpt>
      <trkpt lat="44.86539" lon="5.68805">
        <ele>671.881</ele>
        <time>2012-06-17T10:48:11Z</time>
      </trkpt>
      <trkpt lat="44.86513" lon="5.68819">
        <ele>674.959</ele>
        <time>2012-06-17T10:48:28Z</time>
      </trkpt>
      <trkpt lat="44.86475" lon="5.68839">
        <ele>677.983</ele>
        <time>2012-06-17T10:48:52Z</time>
      </trkpt>
      <trkpt lat="44.86441" lon="5.6885">
        <ele>680.742</ele>
        <time>2012-06-17T10:49:14Z</time>
      </trkpt>
      <trkpt lat="44.86405" lon="5.68856">
        <ele>684</ele>
        <time>2012-06-17T10:49:36Z</time>
      </trkpt>
      <trkpt lat="44.86398" lon="5.68859">
        <ele>684.445</ele>
        <time>2012-06-17T10:49:40Z</time>
      </trkpt>
      <trkpt lat="44.86373" lon="5.68874">
        <ele>686.843</ele>
        <time>2012-06-17T10:49:56Z</time>
      </trkpt>
      <trkpt lat="44.86341" lon="5.68904">
        <ele>688.734</ele>
        <time>2012-06-17T10:50:14Z</time>
      </trkpt>
      <trkpt lat="44.86324" lon="5.68916">
        <ele>690.679</ele>
        <time>2012-06-17T10:50:23Z</time>
      </trkpt>
      <trkpt lat="44.86303" lon="5.68928">
        <ele>693.685</ele>
        <time>2012-06-17T10:50:34Z</time>
      </trkpt>
      <trkpt lat="44.86299" lon="5.68929">
        <ele>694.305</ele>
        <time>2012-06-17T10:50:36Z</time>
      </trkpt>
      <trkpt lat="44.86293" lon="5.6893">
        <ele>695.583</ele>
        <time>2012-06-17T10:50:39Z</time>
      </trkpt>
      <trkpt lat="44.86259" lon="5.68933">
        <ele>696.917</ele>
        <time>2012-06-17T10:50:53Z</time>
      </trkpt>
      <trkpt lat="44.8624" lon="5.6893">
        <ele>697.066</ele>
        <time>2012-06-17T10:51:01Z</time>
      </trkpt>
      <trkpt lat="44.86239" lon="5.68927">
        <ele>696.383</ele>
        <time>2012-06-17T10:51:04Z</time>
      </trkpt>
      <trkpt lat="44.86251" lon="5.68917">
        <ele>695.349</ele>
        <time>2012-06-17T10:51:10Z</time>
      </trkpt>
      <trkpt lat="44.86252" lon="5.68907">
        <ele>694.739</ele>
        <time>2012-06-17T10:51:13Z</time>
      </trkpt>
      <trkpt lat="44.86258" lon="5.68899">
        <ele>694.45</ele>
        <time>2012-06-17T10:51:19Z</time>
      </trkpt>
      <trkpt lat="44.8624" lon="5.68881">
        <ele>692.143</ele>
        <time>2012-06-17T10:51:31Z</time>
      </trkpt>
      <trkpt lat="44.86242" lon="5.68879">
        <ele>691.46</ele>
        <time>2012-06-17T10:51:34Z</time>
      </trkpt>
      <trkpt lat="44.86259" lon="5.68884">
        <ele>690.15</ele>
        <time>2012-06-17T10:51:44Z</time>
      </trkpt>
      <trkpt lat="44.86286" lon="5.68866">
        <ele>688.841</ele>
        <time>2012-06-17T10:51:55Z</time>
      </trkpt>
      <trkpt lat="44.86324" lon="5.68839">
        <ele>686.92</ele>
        <time>2012-06-17T10:52:07Z</time>
      </trkpt>
      <trkpt lat="44.86347" lon="5.68818">
        <ele>684.765</ele>
        <time>2012-06-17T10:52:16Z</time>
      </trkpt>
      <trkpt lat="44.8635" lon="5.68816">
        <ele>684.399</ele>
        <time>2012-06-17T10:52:17Z</time>
      </trkpt>
      <trkpt lat="44.86361" lon="5.68791">
        <ele>683.123</ele>
        <time>2012-06-17T10:52:25Z</time>
      </trkpt>
      <trkpt lat="44.8637" lon="5.68779">
        <ele>682.106</ele>
        <time>2012-06-17T10:52:29Z</time>
      </trkpt>
      <trkpt lat="44.86376" lon="5.68774">
        <ele>682.068</ele>
        <time>2012-06-17T10:52:31Z</time>
      </trkpt>
      <trkpt lat="44.86386" lon="5.68772">
        <ele>681.643</ele>
        <time>2012-06-17T10:52:35Z</time>
      </trkpt>
      <trkpt lat="44.86392" lon="5.68747">
        <ele>679.735</ele>
        <time>2012-06-17T10:52:44Z</time>
      </trkpt>
      <trkpt lat="44.86405" lon="5.68741">
        <ele>678.163</ele>
        <time>2012-06-17T10:52:50Z</time>
      </trkpt>
      <trkpt lat="44.86418" lon="5.68722">
        <ele>676.389</ele>
        <time>2012-06-17T10:52:55Z</time>
      </trkpt>
      <trkpt lat="44.86423" lon="5.68708">
        <ele>675.52</ele>
        <time>2012-06-17T10:52:57Z</time>
      </trkpt>
      <trkpt lat="44.86445" lon="5.6866">
        <ele>672.055</ele>
        <time>2012-06-17T10:53:06Z</time>
      </trkpt>
      <trkpt lat="44.86445" lon="5.68649">
        <ele>671.349</ele>
        <time>2012-06-17T10:53:08Z</time>
      </trkpt>
      <trkpt lat="44.86457" lon="5.68587">
        <ele>667.199</ele>
        <time>2012-06-17T10:53:17Z</time>
      </trkpt>
      <trkpt lat="44.86454" lon="5.68562">
        <ele>664.311</ele>
        <time>2012-06-17T10:53:22Z</time>
      </trkpt>
      <trkpt lat="44.86465" lon="5.68509">
        <ele>660.286</ele>
        <time>2012-06-17T10:53:29Z</time>
      </trkpt>
      <trkpt lat="44.86469" lon="5.68507">
        <ele>659.396</ele>
        <time>2012-06-17T10:53:30Z</time>
      </trkpt>
      <trkpt lat="44.86487" lon="5.68483">
        <ele>655.936</ele>
        <time>2012-06-17T10:53:39Z</time>
      </trkpt>
      <trkpt lat="44.86509" lon="5.68441">
        <ele>653.984</ele>
        <time>2012-06-17T10:53:51Z</time>
      </trkpt>
      <trkpt lat="44.86518" lon="5.68403">
        <ele>652.746</ele>
        <time>2012-06-17T10:54:03Z</time>
      </trkpt>
      <trkpt lat="44.86539" lon="5.6839">
        <ele>654.33</ele>
        <time>2012-06-17T10:54:15Z</time>
      </trkpt>
      <trkpt lat="44.86545" lon="5.68383">
        <ele>654.407</ele>
        <time>2012-06-17T10:54:18Z</time>
      </trkpt>
      <trkpt lat="44.86558" lon="5.68369">
        <ele>655.322</ele>
        <time>2012-06-17T10:54:26Z</time>
      </trkpt>
      <trkpt lat="44.86566" lon="5.68336">
        <ele>653.258</ele>
        <time>2012-06-17T10:54:35Z</time>
      </trkpt>
      <trkpt lat="44.86596" lon="5.68317">
        <ele>651.965</ele>
        <time>2012-06-17T10:54:44Z</time>
      </trkpt>
      <trkpt lat="44.86613" lon="5.68313">
        <ele>652.185</ele>
        <time>2012-06-17T10:54:47Z</time>
      </trkpt>
      <trkpt lat="44.86642" lon="5.68283">
        <ele>652.643</ele>
        <time>2012-06-17T10:54:58Z</time>
      </trkpt>
      <trkpt lat="44.86649" lon="5.68265">
        <ele>652.327</ele>
        <time>2012-06-17T10:55:03Z</time>
      </trkpt>
      <trkpt lat="44.86661" lon="5.6824">
        <ele>653.596</ele>
        <time>2012-06-17T10:55:12Z</time>
      </trkpt>
      <trkpt lat="44.86672" lon="5.68233">
        <ele>654.819</ele>
        <time>2012-06-17T10:55:26Z</time>
      </trkpt>
      <trkpt lat="44.86675" lon="5.68229">
        <ele>654.709</ele>
        <time>2012-06-17T10:55:29Z</time>
      </trkpt>
      <trkpt lat="44.86678" lon="5.68207">
        <ele>654.012</ele>
        <time>2012-06-17T10:55:35Z</time>
      </trkpt>
      <trkpt lat="44.86684" lon="5.68188">
        <ele>652.448</ele>
        <time>2012-06-17T10:55:38Z</time>
      </trkpt>
      <trkpt lat="44.86687" lon="5.68173">
        <ele>651.702</ele>
        <time>2012-06-17T10:55:40Z</time>
      </trkpt>
      <trkpt lat="44.86699" lon="5.68134">
        <ele>650.115</ele>
        <time>2012-06-17T10:55:48Z</time>
      </trkpt>
      <trkpt lat="44.86711" lon="5.6812">
        <ele>648.813</ele>
        <time>2012-06-17T10:55:52Z</time>
      </trkpt>
      <trkpt lat="44.86719" lon="5.68088">
        <ele>645.232</ele>
        <time>2012-06-17T10:55:58Z</time>
      </trkpt>
      <trkpt lat="44.86725" lon="5.68077">
        <ele>643.29</ele>
        <time>2012-06-17T10:56:01Z</time>
      </trkpt>
      <trkpt lat="44.86726" lon="5.68067">
        <ele>641.978</ele>
        <time>2012-06-17T10:56:04Z</time>
      </trkpt>
      <trkpt lat="44.86739" lon="5.6804">
        <ele>638.033</ele>
        <time>2012-06-17T10:56:11Z</time>
      </trkpt>
      <trkpt lat="44.86749" lon="5.68012">
        <ele>635.43</ele>
        <time>2012-06-17T10:56:16Z</time>
      </trkpt>
      <trkpt lat="44.86755" lon="5.68">
        <ele>634.659</ele>
        <time>2012-06-17T10:56:18Z</time>
      </trkpt>
      <trkpt lat="44.86766" lon="5.67984">
        <ele>633.608</ele>
        <time>2012-06-17T10:56:21Z</time>
      </trkpt>
      <trkpt lat="44.86783" lon="5.67956">
        <ele>632.145</ele>
        <time>2012-06-17T10:56:26Z</time>
      </trkpt>
      <trkpt lat="44.86804" lon="5.67918">
        <ele>630.326</ele>
        <time>2012-06-17T10:56:32Z</time>
      </trkpt>
      <trkpt lat="44.86818" lon="5.67889">
        <ele>629.345</ele>
        <time>2012-06-17T10:56:36Z</time>
      </trkpt>
      <trkpt lat="44.86828" lon="5.67872">
        <ele>627.911</ele>
        <time>2012-06-17T10:56:39Z</time>
      </trkpt>
      <trkpt lat="44.86842" lon="5.67843">
        <ele>626.103</ele>
        <time>2012-06-17T10:56:44Z</time>
      </trkpt>
      <trkpt lat="44.86865" lon="5.678">
        <ele>623.586</ele>
        <time>2012-06-17T10:56:53Z</time>
      </trkpt>
      <trkpt lat="44.8687" lon="5.67787">
        <ele>622.626</ele>
        <time>2012-06-17T10:56:55Z</time>
      </trkpt>
      <trkpt lat="44.86885" lon="5.67749">
        <ele>619.726</ele>
        <time>2012-06-17T10:57:04Z</time>
      </trkpt>
      <trkpt lat="44.86885" lon="5.67746">
        <ele>619.05</ele>
        <time>2012-06-17T10:57:05Z</time>
      </trkpt>
      <trkpt lat="44.8689" lon="5.67732">
        <ele>616.732</ele>
        <time>2012-06-17T10:57:09Z</time>
      </trkpt>
      <trkpt lat="44.86902" lon="5.67699">
        <ele>613.996</ele>
        <time>2012-06-17T10:57:14Z</time>
      </trkpt>
      <trkpt lat="44.86929" lon="5.67649">
        <ele>611.858</ele>
        <time>2012-06-17T10:57:22Z</time>
      </trkpt>
      <trkpt lat="44.86953" lon="5.67612">
        <ele>609.164</ele>
        <time>2012-06-17T10:57:35Z</time>
      </trkpt>
      <trkpt lat="44.86959" lon="5.6759">
        <ele>608.187</ele>
        <time>2012-06-17T10:57:38Z</time>
      </trkpt>
      <trkpt lat="44.86958" lon="5.67563">
        <ele>606.874</ele>
        <time>2012-06-17T10:57:41Z</time>
      </trkpt>
      <trkpt lat="44.8695" lon="5.67536">
        <ele>606.528</ele>
        <time>2012-06-17T10:57:46Z</time>
      </trkpt>
      <trkpt lat="44.86975" lon="5.67497">
        <ele>604.439</ele>
        <time>2012-06-17T10:57:55Z</time>
      </trkpt>
      <trkpt lat="44.86984" lon="5.67484">
        <ele>603.811</ele>
        <time>2012-06-17T10:57:57Z</time>
      </trkpt>
      <trkpt lat="44.86989" lon="5.67475">
        <ele>603.287</ele>
        <time>2012-06-17T10:57:59Z</time>
      </trkpt>
      <trkpt lat="44.87005" lon="5.67443">
        <ele>600.466</ele>
        <time>2012-06-17T10:58:05Z</time>
      </trkpt>
      <trkpt lat="44.87013" lon="5.67411">
        <ele>599.023</ele>
        <time>2012-06-17T10:58:10Z</time>
      </trkpt>
      <trkpt lat="44.87023" lon="5.67397">
        <ele>587.767</ele>
        <time>2012-06-17T10:58:19Z</time>
      </trkpt>
      <trkpt lat="44.87024" lon="5.67396">
        <ele>588.057</ele>
        <time>2012-06-17T10:58:20Z</time>
      </trkpt>
      <trkpt lat="44.87024" lon="5.67396">
        <ele>592.882</ele>
        <time>2012-06-17T10:58:21Z</time>
      </trkpt>
      <trkpt lat="44.87025" lon="5.67396">
        <ele>597.079</ele>
        <time>2012-06-17T10:58:22Z</time>
      </trkpt>
      <trkpt lat="44.87025" lon="5.67396">
        <ele>597.318</ele>
        <time>2012-06-17T10:58:23Z</time>
      </trkpt>
      <trkpt lat="44.87025" lon="5.67398">
        <ele>597.195</ele>
        <time>2012-06-17T10:58:26Z</time>
      </trkpt>
      <trkpt lat="44.87031" lon="5.67405">
        <ele>596.205</ele>
        <time>2012-06-17T10:58:30Z</time>
      </trkpt>
      <trkpt lat="44.87042" lon="5.67433">
        <ele>592.446</ele>
        <time>2012-06-17T10:58:38Z</time>
      </trkpt>
      <trkpt lat="44.87025" lon="5.67469">
        <ele>588.936</ele>
        <time>2012-06-17T10:58:44Z</time>
      </trkpt>
      <trkpt lat="44.87025" lon="5.67489">
        <ele>586.894</ele>
        <time>2012-06-17T10:58:48Z</time>
      </trkpt>
      <trkpt lat="44.87028" lon="5.67504">
        <ele>585.33</ele>
        <time>2012-06-17T10:58:51Z</time>
      </trkpt>
      <trkpt lat="44.87033" lon="5.67519">
        <ele>584.11</ele>
        <time>2012-06-17T10:58:54Z</time>
      </trkpt>
      <trkpt lat="44.87035" lon="5.67525">
        <ele>583.418</ele>
        <time>2012-06-17T10:58:55Z</time>
      </trkpt>
      <trkpt lat="44.87038" lon="5.67542">
        <ele>580.647</ele>
        <time>2012-06-17T10:59:03Z</time>
      </trkpt>
      <trkpt lat="44.87035" lon="5.67547">
        <ele>579.297</ele>
        <time>2012-06-17T10:59:06Z</time>
      </trkpt>
      <trkpt lat="44.87034" lon="5.67555">
        <ele>577.58</ele>
        <time>2012-06-17T10:59:09Z</time>
      </trkpt>
      <trkpt lat="44.87035" lon="5.67572">
        <ele>575.913</ele>
        <time>2012-06-17T10:59:13Z</time>
      </trkpt>
      <trkpt lat="44.8704" lon="5.67581">
        <ele>574.731</ele>
        <time>2012-06-17T10:59:16Z</time>
      </trkpt>
      <trkpt lat="44.87048" lon="5.67597">
        <ele>572.689</ele>
        <time>2012-06-17T10:59:27Z</time>
      </trkpt>
      <trkpt lat="44.87054" lon="5.67595">
        <ele>571.311</ele>
        <time>2012-06-17T10:59:33Z</time>
      </trkpt>
      <trkpt lat="44.87076" lon="5.67611">
        <ele>569.054</ele>
        <time>2012-06-17T10:59:43Z</time>
      </trkpt>
      <trkpt lat="44.8708" lon="5.67636">
        <ele>565.711</ele>
        <time>2012-06-17T10:59:52Z</time>
      </trkpt>
      <trkpt lat="44.87082" lon="5.67643">
        <ele>562.54</ele>
        <time>2012-06-17T10:59:59Z</time>
      </trkpt>
      <trkpt lat="44.87085" lon="5.6764">
        <ele>559.546</ele>
        <time>2012-06-17T11:00:06Z</time>
      </trkpt>
      <trkpt lat="44.87087" lon="5.6764">
        <ele>558.964</ele>
        <time>2012-06-17T11:00:10Z</time>
      </trkpt>
      <trkpt lat="44.87087" lon="5.67649">
        <ele>555.154</ele>
        <time>2012-06-17T11:00:19Z</time>
      </trkpt>
      <trkpt lat="44.87088" lon="5.67649">
        <ele>554.821</ele>
        <time>2012-06-17T11:00:21Z</time>
      </trkpt>
      <trkpt lat="44.87093" lon="5.67647">
        <ele>553.506</ele>
        <time>2012-06-17T11:00:26Z</time>
      </trkpt>
      <trkpt lat="44.87093" lon="5.6765">
        <ele>551.675</ele>
        <time>2012-06-17T11:00:31Z</time>
      </trkpt>
      <trkpt lat="44.87081" lon="5.67655">
        <ele>548.373</ele>
        <time>2012-06-17T11:00:44Z</time>
      </trkpt>
      <trkpt lat="44.87083" lon="5.67658">
        <ele>547.755</ele>
        <time>2012-06-17T11:00:55Z</time>
      </trkpt>
      <trkpt lat="44.87106" lon="5.67655">
        <ele>546.096</ele>
        <time>2012-06-17T11:01:08Z</time>
      </trkpt>
      <trkpt lat="44.87117" lon="5.67647">
        <ele>542.971</ele>
        <time>2012-06-17T11:01:19Z</time>
      </trkpt>
      <trkpt lat="44.87117" lon="5.67648">
        <ele>542.753</ele>
        <time>2012-06-17T11:01:20Z</time>
      </trkpt>
      <trkpt lat="44.87118" lon="5.67648">
        <ele>541.785</ele>
        <time>2012-06-17T11:01:21Z</time>
      </trkpt>
      <trkpt lat="44.8713" lon="5.67655">
        <ele>538.509</ele>
        <time>2012-06-17T11:01:33Z</time>
      </trkpt>
      <trkpt lat="44.87145" lon="5.67661">
        <ele>535.471</ele>
        <time>2012-06-17T11:01:47Z</time>
      </trkpt>
      <trkpt lat="44.87155" lon="5.67666">
        <ele>533.948</ele>
        <time>2012-06-17T11:02:02Z</time>
      </trkpt>
      <trkpt lat="44.8718" lon="5.67678">
        <ele>531.376</ele>
        <time>2012-06-17T11:02:24Z</time>
      </trkpt>
      <trkpt lat="44.87211" lon="5.67692">
        <ele>531.51</ele>
        <time>2012-06-17T11:02:47Z</time>
      </trkpt>
      <trkpt lat="44.87237" lon="5.67704">
        <ele>533.828</ele>
        <time>2012-06-17T11:03:07Z</time>
      </trkpt>
      <trkpt lat="44.87261" lon="5.67714">
        <ele>536.126</ele>
        <time>2012-06-17T11:03:28Z</time>
      </trkpt>
      <trkpt lat="44.87278" lon="5.67724">
        <ele>539.227</ele>
        <time>2012-06-17T11:03:47Z</time>
      </trkpt>
      <trkpt lat="44.87289" lon="5.67731">
        <ele>540.469</ele>
        <time>2012-06-17T11:04:03Z</time>
      </trkpt>
      <trkpt lat="44.87294" lon="5.6774">
        <ele>541.051</ele>
        <time>2012-06-17T11:04:20Z</time>
      </trkpt>
      <trkpt lat="44.87296" lon="5.67736">
        <ele>540.364</ele>
        <time>2012-06-17T11:04:40Z</time>
      </trkpt>
      <trkpt lat="44.87294" lon="5.67706">
        <ele>541.307</ele>
        <time>2012-06-17T11:04:56Z</time>
      </trkpt>
      <trkpt lat="44.87289" lon="5.67688">
        <ele>544.734</ele>
        <time>2012-06-17T11:05:07Z</time>
      </trkpt>
      <trkpt lat="44.87288" lon="5.67687">
        <ele>544.825</ele>
        <time>2012-06-17T11:05:08Z</time>
      </trkpt>
      <trkpt lat="44.87285" lon="5.67681">
        <ele>545.872</ele>
        <time>2012-06-17T11:05:13Z</time>
      </trkpt>
      <trkpt lat="44.87287" lon="5.67669">
        <ele>549.379</ele>
        <time>2012-06-17T11:05:22Z</time>
      </trkpt>
      <trkpt lat="44.87293" lon="5.67663">
        <ele>552.392</ele>
        <time>2012-06-17T11:05:32Z</time>
      </trkpt>
      <trkpt lat="44.87294" lon="5.67662">
        <ele>552.061</ele>
        <time>2012-06-17T11:05:33Z</time>
      </trkpt>
      <trkpt lat="44.87297" lon="5.67661">
        <ele>553.307</ele>
        <time>2012-06-17T11:05:36Z</time>
      </trkpt>
      <trkpt lat="44.87305" lon="5.67662">
        <ele>555.16</ele>
        <time>2012-06-17T11:05:44Z</time>
      </trkpt>
      <trkpt lat="44.87316" lon="5.67657">
        <ele>558.322</ele>
        <time>2012-06-17T11:05:57Z</time>
      </trkpt>
      <trkpt lat="44.87334" lon="5.67662">
        <ele>560.355</ele>
        <time>2012-06-17T11:06:11Z</time>
      </trkpt>
      <trkpt lat="44.87357" lon="5.6767">
        <ele>561.415</ele>
        <time>2012-06-17T11:06:24Z</time>
      </trkpt>
      <trkpt lat="44.87371" lon="5.67674">
        <ele>563.653</ele>
        <time>2012-06-17T11:06:30Z</time>
      </trkpt>
      <trkpt lat="44.87396" lon="5.67686">
        <ele>564.499</ele>
        <time>2012-06-17T11:06:42Z</time>
      </trkpt>
      <trkpt lat="44.87427" lon="5.677">
        <ele>566.109</ele>
        <time>2012-06-17T11:06:54Z</time>
      </trkpt>
      <trkpt lat="44.87453" lon="5.67705">
        <ele>567.313</ele>
        <time>2012-06-17T11:07:05Z</time>
      </trkpt>
      <trkpt lat="44.87477" lon="5.67703">
        <ele>568.767</ele>
        <time>2012-06-17T11:07:16Z</time>
      </trkpt>
      <trkpt lat="44.87486" lon="5.67701">
        <ele>568.836</ele>
        <time>2012-06-17T11:07:19Z</time>
      </trkpt>
      <trkpt lat="44.87506" lon="5.67702">
        <ele>568.068</ele>
        <time>2012-06-17T11:07:23Z</time>
      </trkpt>
      <trkpt lat="44.8755" lon="5.67711">
        <ele>568.464</ele>
        <time>2012-06-17T11:07:34Z</time>
      </trkpt>
      <trkpt lat="44.87568" lon="5.67717">
        <ele>568.348</ele>
        <time>2012-06-17T11:07:38Z</time>
      </trkpt>
      <trkpt lat="44.8759" lon="5.67722">
        <ele>567.122</ele>
        <time>2012-06-17T11:07:42Z</time>
      </trkpt>
      <trkpt lat="44.87607" lon="5.67724">
        <ele>566.873</ele>
        <time>2012-06-17T11:07:45Z</time>
      </trkpt>
      <trkpt lat="44.87632" lon="5.67726">
        <ele>566.804</ele>
        <time>2012-06-17T11:07:49Z</time>
      </trkpt>
      <trkpt lat="44.87705" lon="5.6772">
        <ele>566.217</ele>
        <time>2012-06-17T11:08:00Z</time>
      </trkpt>
      <trkpt lat="44.87724" lon="5.67718">
        <ele>566.332</ele>
        <time>2012-06-17T11:08:04Z</time>
      </trkpt>
      <trkpt lat="44.87775" lon="5.6771">
        <ele>566.662</ele>
        <time>2012-06-17T11:08:13Z</time>
      </trkpt>
      <trkpt lat="44.8783" lon="5.67702">
        <ele>566.639</ele>
        <time>2012-06-17T11:08:24Z</time>
      </trkpt>
      <trkpt lat="44.87864" lon="5.67699">
        <ele>567.329</ele>
        <time>2012-06-17T11:08:33Z</time>
      </trkpt>
      <trkpt lat="44.87906" lon="5.67692">
        <ele>567.039</ele>
        <time>2012-06-17T11:08:43Z</time>
      </trkpt>
      <trkpt lat="44.87917" lon="5.67688">
        <ele>567.032</ele>
        <time>2012-06-17T11:08:45Z</time>
      </trkpt>
      <trkpt lat="44.87932" lon="5.67684">
        <ele>565.985</ele>
        <time>2012-06-17T11:08:48Z</time>
      </trkpt>
      <trkpt lat="44.87953" lon="5.67674">
        <ele>566.797</ele>
        <time>2012-06-17T11:08:52Z</time>
      </trkpt>
      <trkpt lat="44.8799" lon="5.67653">
        <ele>568.387</ele>
        <time>2012-06-17T11:09:03Z</time>
      </trkpt>
      <trkpt lat="44.88018" lon="5.67632">
        <ele>569.484</ele>
        <time>2012-06-17T11:09:15Z</time>
      </trkpt>
      <trkpt lat="44.88052" lon="5.67612">
        <ele>569.799</ele>
        <time>2012-06-17T11:09:24Z</time>
      </trkpt>
      <trkpt lat="44.88108" lon="5.67584">
        <ele>567.894</ele>
        <time>2012-06-17T11:09:35Z</time>
      </trkpt>
      <trkpt lat="44.88123" lon="5.6758">
        <ele>567.421</ele>
        <time>2012-06-17T11:09:38Z</time>
      </trkpt>
      <trkpt lat="44.88201" lon="5.67572">
        <ele>563.164</ele>
        <time>2012-06-17T11:09:48Z</time>
      </trkpt>
      <trkpt lat="44.88222" lon="5.67571">
        <ele>562.206</ele>
        <time>2012-06-17T11:09:50Z</time>
      </trkpt>
      <trkpt lat="44.88264" lon="5.67565">
        <ele>558.846</ele>
        <time>2012-06-17T11:09:54Z</time>
      </trkpt>
      <trkpt lat="44.88275" lon="5.67562">
        <ele>558.569</ele>
        <time>2012-06-17T11:09:55Z</time>
      </trkpt>
      <trkpt lat="44.88319" lon="5.6754">
        <ele>555.275</ele>
        <time>2012-06-17T11:10:00Z</time>
      </trkpt>
      <trkpt lat="44.88359" lon="5.675">
        <ele>552.698</ele>
        <time>2012-06-17T11:10:06Z</time>
      </trkpt>
      <trkpt lat="44.88388" lon="5.67486">
        <ele>551.426</ele>
        <time>2012-06-17T11:10:10Z</time>
      </trkpt>
      <trkpt lat="44.88463" lon="5.6747">
        <ele>547.083</ele>
        <time>2012-06-17T11:10:20Z</time>
      </trkpt>
      <trkpt lat="44.8847" lon="5.67468">
        <ele>547.083</ele>
        <time>2012-06-17T11:10:21Z</time>
      </trkpt>
      <trkpt lat="44.88509" lon="5.67455">
        <ele>545.758</ele>
        <time>2012-06-17T11:10:27Z</time>
      </trkpt>
      <trkpt lat="44.88531" lon="5.67436">
        <ele>545.018</ele>
        <time>2012-06-17T11:10:31Z</time>
      </trkpt>
      <trkpt lat="44.8861" lon="5.67419">
        <ele>543.046</ele>
        <time>2012-06-17T11:10:44Z</time>
      </trkpt>
      <trkpt lat="44.88693" lon="5.67406">
        <ele>540.64</ele>
        <time>2012-06-17T11:10:57Z</time>
      </trkpt>
      <trkpt lat="44.88714" lon="5.67397">
        <ele>540.872</ele>
        <time>2012-06-17T11:11:01Z</time>
      </trkpt>
      <trkpt lat="44.88763" lon="5.6738">
        <ele>540.915</ele>
        <time>2012-06-17T11:11:13Z</time>
      </trkpt>
      <trkpt lat="44.88853" lon="5.6736">
        <ele>539.324</ele>
        <time>2012-06-17T11:11:31Z</time>
      </trkpt>
      <trkpt lat="44.88883" lon="5.67356">
        <ele>538.451</ele>
        <time>2012-06-17T11:11:37Z</time>
      </trkpt>
      <trkpt lat="44.88921" lon="5.67327">
        <ele>537.712</ele>
        <time>2012-06-17T11:11:45Z</time>
      </trkpt>
      <trkpt lat="44.88943" lon="5.67332">
        <ele>537.799</ele>
        <time>2012-06-17T11:11:51Z</time>
      </trkpt>
      <trkpt lat="44.88994" lon="5.67327">
        <ele>537.438</ele>
        <time>2012-06-17T11:12:05Z</time>
      </trkpt>
      <trkpt lat="44.89062" lon="5.67326">
        <ele>538.178</ele>
        <time>2012-06-17T11:12:23Z</time>
      </trkpt>
      <trkpt lat="44.89109" lon="5.67325">
        <ele>539.173</ele>
        <time>2012-06-17T11:12:39Z</time>
      </trkpt>
      <trkpt lat="44.89143" lon="5.67313">
        <ele>541.794</ele>
        <time>2012-06-17T11:12:56Z</time>
      </trkpt>
      <trkpt lat="44.89177" lon="5.67304">
        <ele>544.44</ele>
        <time>2012-06-17T11:13:10Z</time>
      </trkpt>
      <trkpt lat="44.89218" lon="5.67296">
        <ele>546.028</ele>
        <time>2012-06-17T11:13:23Z</time>
      </trkpt>
      <trkpt lat="44.89263" lon="5.67303">
        <ele>545.606</ele>
        <time>2012-06-17T11:13:35Z</time>
      </trkpt>
      <trkpt lat="44.89321" lon="5.67296">
        <ele>546.057</ele>
        <time>2012-06-17T11:13:49Z</time>
      </trkpt>
      <trkpt lat="44.8939" lon="5.67274">
        <ele>546.173</ele>
        <time>2012-06-17T11:14:06Z</time>
      </trkpt>
      <trkpt lat="44.89412" lon="5.6727">
        <ele>546.273</ele>
        <time>2012-06-17T11:14:11Z</time>
      </trkpt>
      <trkpt lat="44.89496" lon="5.67244">
        <ele>545.715</ele>
        <time>2012-06-17T11:14:28Z</time>
      </trkpt>
      <trkpt lat="44.89524" lon="5.67242">
        <ele>544.272</ele>
        <time>2012-06-17T11:14:38Z</time>
      </trkpt>
      <trkpt lat="44.89563" lon="5.67218">
        <ele>543.916</ele>
        <time>2012-06-17T11:14:51Z</time>
      </trkpt>
      <trkpt lat="44.89573" lon="5.67209">
        <ele>544.134</ele>
        <time>2012-06-17T11:14:54Z</time>
      </trkpt>
      <trkpt lat="44.89603" lon="5.67209">
        <ele>543.444</ele>
        <time>2012-06-17T11:15:01Z</time>
      </trkpt>
      <trkpt lat="44.89618" lon="5.67221">
        <ele>541.96</ele>
        <time>2012-06-17T11:15:04Z</time>
      </trkpt>
      <trkpt lat="44.89653" lon="5.67226">
        <ele>540.099</ele>
        <time>2012-06-17T11:15:09Z</time>
      </trkpt>
      <trkpt lat="44.89697" lon="5.67203">
        <ele>539.222</ele>
        <time>2012-06-17T11:15:17Z</time>
      </trkpt>
      <trkpt lat="44.89751" lon="5.67177">
        <ele>540.346</ele>
        <time>2012-06-17T11:15:32Z</time>
      </trkpt>
      <trkpt lat="44.89813" lon="5.67156">
        <ele>541.323</ele>
        <time>2012-06-17T11:15:49Z</time>
      </trkpt>
      <trkpt lat="44.89887" lon="5.67121">
        <ele>542.687</ele>
        <time>2012-06-17T11:16:10Z</time>
      </trkpt>
      <trkpt lat="44.89959" lon="5.67086">
        <ele>543.71</ele>
        <time>2012-06-17T11:16:29Z</time>
      </trkpt>
      <trkpt lat="44.89991" lon="5.6707">
        <ele>544.357</ele>
        <time>2012-06-17T11:16:37Z</time>
      </trkpt>
      <trkpt lat="44.90055" lon="5.67049">
        <ele>544.828</ele>
        <time>2012-06-17T11:16:53Z</time>
      </trkpt>
      <trkpt lat="44.90059" lon="5.67047">
        <ele>544.455</ele>
        <time>2012-06-17T11:16:54Z</time>
      </trkpt>
      <trkpt lat="44.90092" lon="5.67039">
        <ele>545.5</ele>
        <time>2012-06-17T11:17:04Z</time>
      </trkpt>
      <trkpt lat="44.90137" lon="5.66998">
        <ele>546.576</ele>
        <time>2012-06-17T11:17:21Z</time>
      </trkpt>
      <trkpt lat="44.90191" lon="5.66966">
        <ele>548.248</ele>
        <time>2012-06-17T11:17:39Z</time>
      </trkpt>
      <trkpt lat="44.90266" lon="5.66973">
        <ele>549.758</ele>
        <time>2012-06-17T11:18:01Z</time>
      </trkpt>
      <trkpt lat="44.90312" lon="5.66924">
        <ele>551.383</ele>
        <time>2012-06-17T11:18:17Z</time>
      </trkpt>
      <trkpt lat="44.90369" lon="5.66886">
        <ele>553.452</ele>
        <time>2012-06-17T11:18:34Z</time>
      </trkpt>
      <trkpt lat="44.90419" lon="5.66882">
        <ele>554.645</ele>
        <time>2012-06-17T11:18:48Z</time>
      </trkpt>
      <trkpt lat="44.90479" lon="5.66875">
        <ele>556.12</ele>
        <time>2012-06-17T11:19:04Z</time>
      </trkpt>
      <trkpt lat="44.9055" lon="5.6685">
        <ele>558.646</ele>
        <time>2012-06-17T11:19:23Z</time>
      </trkpt>
      <trkpt lat="44.90616" lon="5.66826">
        <ele>560.361</ele>
        <time>2012-06-17T11:19:42Z</time>
      </trkpt>
      <trkpt lat="44.90672" lon="5.66811">
        <ele>562.411</ele>
        <time>2012-06-17T11:19:57Z</time>
      </trkpt>
      <trkpt lat="44.90727" lon="5.668">
        <ele>563.494</ele>
        <time>2012-06-17T11:20:12Z</time>
      </trkpt>
      <trkpt lat="44.90809" lon="5.66799">
        <ele>565.461</ele>
        <time>2012-06-17T11:20:36Z</time>
      </trkpt>
      <trkpt lat="44.90861" lon="5.66791">
        <ele>567.092</ele>
        <time>2012-06-17T11:20:52Z</time>
      </trkpt>
      <trkpt lat="44.90923" lon="5.66755">
        <ele>569.922</ele>
        <time>2012-06-17T11:21:15Z</time>
      </trkpt>
      <trkpt lat="44.90973" lon="5.6673">
        <ele>572.111</ele>
        <time>2012-06-17T11:21:32Z</time>
      </trkpt>
      <trkpt lat="44.91025" lon="5.66707">
        <ele>574.833</ele>
        <time>2012-06-17T11:21:49Z</time>
      </trkpt>
      <trkpt lat="44.91061" lon="5.66671">
        <ele>576.839</ele>
        <time>2012-06-17T11:22:04Z</time>
      </trkpt>
      <trkpt lat="44.91076" lon="5.66661">
        <ele>577.592</ele>
        <time>2012-06-17T11:22:12Z</time>
      </trkpt>
      <trkpt lat="44.91077" lon="5.66665">
        <ele>576.293</ele>
        <time>2012-06-17T11:22:15Z</time>
      </trkpt>
      <trkpt lat="44.91074" lon="5.66665">
        <ele>576.253</ele>
        <time>2012-06-17T11:22:21Z</time>
      </trkpt>
      <trkpt lat="44.91083" lon="5.66646">
        <ele>576.282</ele>
        <time>2012-06-17T11:22:30Z</time>
      </trkpt>
      <trkpt lat="44.9109" lon="5.66641">
        <ele>576.419</ele>
        <time>2012-06-17T11:22:33Z</time>
      </trkpt>
      <trkpt lat="44.91138" lon="5.66611">
        <ele>578.722</ele>
        <time>2012-06-17T11:22:53Z</time>
      </trkpt>
      <trkpt lat="44.91143" lon="5.66601">
        <ele>579.033</ele>
        <time>2012-06-17T11:22:57Z</time>
      </trkpt>
      <trkpt lat="44.91148" lon="5.6661">
        <ele>579.097</ele>
        <time>2012-06-17T11:23:02Z</time>
      </trkpt>
      <trkpt lat="44.91147" lon="5.66617">
        <ele>578.803</ele>
        <time>2012-06-17T11:23:04Z</time>
      </trkpt>
      <trkpt lat="44.91141" lon="5.66628">
        <ele>578.176</ele>
        <time>2012-06-17T11:23:16Z</time>
      </trkpt>
      <trkpt lat="44.91138" lon="5.66624">
        <ele>575.121</ele>
        <time>2012-06-17T11:23:56Z</time>
      </trkpt>
      <trkpt lat="44.91137" lon="5.66626">
        <ele>575.341</ele>
        <time>2012-06-17T11:24:05Z</time>
      </trkpt>
      <trkpt lat="44.91128" lon="5.66617">
        <ele>574.293</ele>
        <time>2012-06-17T11:24:10Z</time>
      </trkpt>
      <trkpt lat="44.91113" lon="5.66604">
        <ele>575.233</ele>
        <time>2012-06-17T11:24:20Z</time>
      </trkpt>
      <trkpt lat="44.91108" lon="5.66601">
        <ele>576.449</ele>
        <time>2012-06-17T11:24:31Z</time>
      </trkpt>
      <trkpt lat="44.91107" lon="5.66601">
        <ele>579.509</ele>
        <time>2012-06-17T11:24:46Z</time>
      </trkpt>
      <trkpt lat="44.91103" lon="5.66595">
        <ele>582.698</ele>
        <time>2012-06-17T11:25:57Z</time>
      </trkpt>
      <trkpt lat="44.9111" lon="5.66612">
        <ele>582.755</ele>
        <time>2012-06-17T11:27:31Z</time>
      </trkpt>
      <trkpt lat="44.91111" lon="5.66605">
        <ele>584.795</ele>
        <time>2012-06-17T11:28:40Z</time>
      </trkpt>
      <trkpt lat="44.91115" lon="5.6661">
        <ele>584.873</ele>
        <time>2012-06-17T11:31:00Z</time>
      </trkpt>
      <trkpt lat="44.91113" lon="5.66608">
        <ele>585.72</ele>
        <time>2012-06-17T11:31:41Z</time>
      </trkpt>
      <trkpt lat="44.91123" lon="5.66614">
        <ele>585.905</ele>
        <time>2012-06-17T11:32:24Z</time>
      </trkpt>
      <trkpt lat="44.91119" lon="5.66613">
        <ele>586.188</ele>
        <time>2012-06-17T11:33:18Z</time>
      </trkpt>
      <trkpt lat="44.91112" lon="5.66609">
        <ele>586.471</ele>
        <time>2012-06-17T11:33:46Z</time>
      </trkpt>
      <trkpt lat="44.91111" lon="5.66609">
        <ele>586.116</ele>
        <time>2012-06-17T11:34:48Z</time>
      </trkpt>
      <trkpt lat="44.91112" lon="5.66607">
        <ele>586.154</ele>
        <time>2012-06-17T11:35:15Z</time>
      </trkpt>
      <trkpt lat="44.91113" lon="5.66607">
        <ele>586.055</ele>
        <time>2012-06-17T11:35:57Z</time>
      </trkpt>
      <trkpt lat="44.91109" lon="5.66605">
        <ele>585.935</ele>
        <time>2012-06-17T11:38:25Z</time>
      </trkpt>
      <trkpt lat="44.91111" lon="5.66604">
        <ele>586.348</ele>
        <time>2012-06-17T11:39:08Z</time>
      </trkpt>
      <trkpt lat="44.91123" lon="5.66605">
        <ele>586.467</ele>
        <time>2012-06-17T11:39:47Z</time>
      </trkpt>
      <trkpt lat="44.91118" lon="5.66605">
        <ele>586.224</ele>
        <time>2012-06-17T11:40:39Z</time>
      </trkpt>
      <trkpt lat="44.91114" lon="5.66602">
        <ele>586.242</ele>
        <time>2012-06-17T11:42:03Z</time>
      </trkpt>
      <trkpt lat="44.91111" lon="5.66606">
        <ele>586.708</ele>
        <time>2012-06-17T11:43:37Z</time>
      </trkpt>
      <trkpt lat="44.91111" lon="5.66604">
        <ele>586.342</ele>
        <time>2012-06-17T11:45:06Z</time>
      </trkpt>
      <trkpt lat="44.91114" lon="5.66607">
        <ele>585.811</ele>
        <time>2012-06-17T11:46:31Z</time>
      </trkpt>
      <trkpt lat="44.91116" lon="5.6661">
        <ele>584.707</ele>
        <time>2012-06-17T11:46:45Z</time>
      </trkpt>
      <trkpt lat="44.91118" lon="5.66611">
        <ele>584.292</ele>
        <time>2012-06-17T11:46:47Z</time>
      </trkpt>
      <trkpt lat="44.91138" lon="5.666">
        <ele>583.502</ele>
        <time>2012-06-17T11:46:57Z</time>
      </trkpt>
      <trkpt lat="44.9115" lon="5.66559">
        <ele>582.54</ele>
        <time>2012-06-17T11:47:09Z</time>
      </trkpt>
      <trkpt lat="44.91162" lon="5.66476">
        <ele>580.495</ele>
        <time>2012-06-17T11:47:29Z</time>
      </trkpt>
      <trkpt lat="44.91193" lon="5.66413">
        <ele>581.639</ele>
        <time>2012-06-17T11:47:49Z</time>
      </trkpt>
      <trkpt lat="44.91228" lon="5.66345">
        <ele>582.503</ele>
        <time>2012-06-17T11:48:10Z</time>
      </trkpt>
      <trkpt lat="44.9127" lon="5.66296">
        <ele>584.192</ele>
        <time>2012-06-17T11:48:30Z</time>
      </trkpt>
      <trkpt lat="44.91304" lon="5.6624">
        <ele>586.247</ele>
        <time>2012-06-17T11:48:49Z</time>
      </trkpt>
      <trkpt lat="44.91319" lon="5.66166">
        <ele>589.451</ele>
        <time>2012-06-17T11:49:09Z</time>
      </trkpt>
      <trkpt lat="44.91314" lon="5.66086">
        <ele>590.689</ele>
        <time>2012-06-17T11:49:30Z</time>
      </trkpt>
      <trkpt lat="44.91292" lon="5.66019">
        <ele>593.885</ele>
        <time>2012-06-17T11:49:49Z</time>
      </trkpt>
      <trkpt lat="44.91263" lon="5.65956">
        <ele>596.039</ele>
        <time>2012-06-17T11:50:08Z</time>
      </trkpt>
      <trkpt lat="44.91238" lon="5.65912">
        <ele>599.128</ele>
        <time>2012-06-17T11:50:24Z</time>
      </trkpt>
      <trkpt lat="44.91215" lon="5.65857">
        <ele>601.158</ele>
        <time>2012-06-17T11:50:41Z</time>
      </trkpt>
      <trkpt lat="44.91228" lon="5.65802">
        <ele>602.95</ele>
        <time>2012-06-17T11:50:58Z</time>
      </trkpt>
      <trkpt lat="44.91267" lon="5.65747">
        <ele>604.882</ele>
        <time>2012-06-17T11:51:18Z</time>
      </trkpt>
      <trkpt lat="44.91301" lon="5.65715">
        <ele>608.101</ele>
        <time>2012-06-17T11:51:35Z</time>
      </trkpt>
      <trkpt lat="44.91304" lon="5.65711">
        <ele>608.797</ele>
        <time>2012-06-17T11:51:37Z</time>
      </trkpt>
      <trkpt lat="44.91311" lon="5.65681">
        <ele>611.965</ele>
        <time>2012-06-17T11:51:48Z</time>
      </trkpt>
      <trkpt lat="44.91268" lon="5.65655">
        <ele>613.364</ele>
        <time>2012-06-17T11:52:07Z</time>
      </trkpt>
      <trkpt lat="44.9122" lon="5.65688">
        <ele>614.295</ele>
        <time>2012-06-17T11:52:22Z</time>
      </trkpt>
      <trkpt lat="44.91196" lon="5.6566">
        <ele>615.876</ele>
        <time>2012-06-17T11:52:33Z</time>
      </trkpt>
      <trkpt lat="44.9116" lon="5.65603">
        <ele>618.85</ele>
        <time>2012-06-17T11:52:55Z</time>
      </trkpt>
      <trkpt lat="44.91118" lon="5.65591">
        <ele>622.254</ele>
        <time>2012-06-17T11:53:13Z</time>
      </trkpt>
      <trkpt lat="44.91076" lon="5.6558">
        <ele>623.942</ele>
        <time>2012-06-17T11:53:35Z</time>
      </trkpt>
      <trkpt lat="44.91051" lon="5.65574">
        <ele>626.944</ele>
        <time>2012-06-17T11:53:51Z</time>
      </trkpt>
      <trkpt lat="44.91024" lon="5.65573">
        <ele>630.244</ele>
        <time>2012-06-17T11:54:08Z</time>
      </trkpt>
      <trkpt lat="44.91015" lon="5.65573">
        <ele>632.054</ele>
        <time>2012-06-17T11:54:14Z</time>
      </trkpt>
      <trkpt lat="44.90976" lon="5.65568">
        <ele>634.84</ele>
        <time>2012-06-17T11:54:33Z</time>
      </trkpt>
      <trkpt lat="44.90939" lon="5.65582">
        <ele>636.869</ele>
        <time>2012-06-17T11:54:47Z</time>
      </trkpt>
      <trkpt lat="44.90912" lon="5.656">
        <ele>639.894</ele>
        <time>2012-06-17T11:55:02Z</time>
      </trkpt>
      <trkpt lat="44.90883" lon="5.65603">
        <ele>642.32</ele>
        <time>2012-06-17T11:55:20Z</time>
      </trkpt>
      <trkpt lat="44.90854" lon="5.65592">
        <ele>645.843</ele>
        <time>2012-06-17T11:55:37Z</time>
      </trkpt>
      <trkpt lat="44.90837" lon="5.65608">
        <ele>646.964</ele>
        <time>2012-06-17T11:55:51Z</time>
      </trkpt>
      <trkpt lat="44.90837" lon="5.6562">
        <ele>648.394</ele>
        <time>2012-06-17T11:55:56Z</time>
      </trkpt>
      <trkpt lat="44.90838" lon="5.65639">
        <ele>650.671</ele>
        <time>2012-06-17T11:56:04Z</time>
      </trkpt>
      <trkpt lat="44.90841" lon="5.65648">
        <ele>652</ele>
        <time>2012-06-17T11:56:09Z</time>
      </trkpt>
      <trkpt lat="44.90859" lon="5.65672">
        <ele>655.028</ele>
        <time>2012-06-17T11:56:21Z</time>
      </trkpt>
      <trkpt lat="44.90862" lon="5.65675">
        <ele>655.553</ele>
        <time>2012-06-17T11:56:23Z</time>
      </trkpt>
      <trkpt lat="44.90881" lon="5.6569">
        <ele>659.178</ele>
        <time>2012-06-17T11:56:38Z</time>
      </trkpt>
      <trkpt lat="44.90897" lon="5.65707">
        <ele>662.208</ele>
        <time>2012-06-17T11:56:51Z</time>
      </trkpt>
      <trkpt lat="44.90919" lon="5.65735">
        <ele>664.102</ele>
        <time>2012-06-17T11:57:10Z</time>
      </trkpt>
      <trkpt lat="44.90935" lon="5.65761">
        <ele>666.953</ele>
        <time>2012-06-17T11:57:27Z</time>
      </trkpt>
      <trkpt lat="44.90959" lon="5.65779">
        <ele>669.83</ele>
        <time>2012-06-17T11:57:45Z</time>
      </trkpt>
      <trkpt lat="44.90971" lon="5.65795">
        <ele>671.925</ele>
        <time>2012-06-17T11:57:56Z</time>
      </trkpt>
      <trkpt lat="44.90989" lon="5.65821">
        <ele>674.829</ele>
        <time>2012-06-17T11:58:12Z</time>
      </trkpt>
      <trkpt lat="44.90997" lon="5.65828">
        <ele>675.864</ele>
        <time>2012-06-17T11:58:17Z</time>
      </trkpt>
      <trkpt lat="44.91013" lon="5.65846">
        <ele>679.016</ele>
        <time>2012-06-17T11:58:30Z</time>
      </trkpt>
      <trkpt lat="44.91034" lon="5.65872">
        <ele>680.709</ele>
        <time>2012-06-17T11:58:46Z</time>
      </trkpt>
      <trkpt lat="44.91052" lon="5.65894">
        <ele>682.433</ele>
        <time>2012-06-17T11:59:01Z</time>
      </trkpt>
      <trkpt lat="44.91068" lon="5.65916">
        <ele>685.74</ele>
        <time>2012-06-17T11:59:16Z</time>
      </trkpt>
      <trkpt lat="44.91071" lon="5.65921">
        <ele>686.224</ele>
        <time>2012-06-17T11:59:20Z</time>
      </trkpt>
      <trkpt lat="44.91081" lon="5.65932">
        <ele>687.973</ele>
        <time>2012-06-17T11:59:29Z</time>
      </trkpt>
      <trkpt lat="44.91089" lon="5.65942">
        <ele>689.197</ele>
        <time>2012-06-17T11:59:35Z</time>
      </trkpt>
      <trkpt lat="44.91094" lon="5.65952">
        <ele>690.353</ele>
        <time>2012-06-17T11:59:41Z</time>
      </trkpt>
      <trkpt lat="44.91108" lon="5.65979">
        <ele>693.933</ele>
        <time>2012-06-17T11:59:57Z</time>
      </trkpt>
      <trkpt lat="44.91122" lon="5.66007">
        <ele>696.825</ele>
        <time>2012-06-17T12:00:14Z</time>
      </trkpt>
      <trkpt lat="44.91118" lon="5.66036">
        <ele>696.485</ele>
        <time>2012-06-17T12:00:31Z</time>
      </trkpt>
      <trkpt lat="44.91095" lon="5.66042">
        <ele>698.24</ele>
        <time>2012-06-17T12:00:47Z</time>
      </trkpt>
      <trkpt lat="44.91071" lon="5.66052">
        <ele>700.056</ele>
        <time>2012-06-17T12:01:03Z</time>
      </trkpt>
      <trkpt lat="44.91037" lon="5.66066">
        <ele>702.664</ele>
        <time>2012-06-17T12:01:26Z</time>
      </trkpt>
      <trkpt lat="44.91029" lon="5.66071">
        <ele>705.273</ele>
        <time>2012-06-17T12:01:36Z</time>
      </trkpt>
      <trkpt lat="44.91029" lon="5.6607">
        <ele>706.478</ele>
        <time>2012-06-17T12:01:38Z</time>
      </trkpt>
      <trkpt lat="44.91026" lon="5.66081">
        <ele>708.678</ele>
        <time>2012-06-17T12:02:07Z</time>
      </trkpt>
      <trkpt lat="44.91025" lon="5.66084">
        <ele>709.093</ele>
        <time>2012-06-17T12:02:19Z</time>
      </trkpt>
      <trkpt lat="44.91012" lon="5.66107">
        <ele>710.815</ele>
        <time>2012-06-17T12:02:35Z</time>
      </trkpt>
      <trkpt lat="44.90996" lon="5.6614">
        <ele>713.346</ele>
        <time>2012-06-17T12:02:53Z</time>
      </trkpt>
      <trkpt lat="44.90973" lon="5.66175">
        <ele>713.884</ele>
        <time>2012-06-17T12:03:13Z</time>
      </trkpt>
      <trkpt lat="44.90962" lon="5.66174">
        <ele>714.18</ele>
        <time>2012-06-17T12:03:20Z</time>
      </trkpt>
      <trkpt lat="44.90966" lon="5.66164">
        <ele>714.125</ele>
        <time>2012-06-17T12:03:26Z</time>
      </trkpt>
      <trkpt lat="44.90986" lon="5.6613">
        <ele>716.595</ele>
        <time>2012-06-17T12:03:49Z</time>
      </trkpt>
      <trkpt lat="44.9099" lon="5.66099">
        <ele>719.689</ele>
        <time>2012-06-17T12:04:06Z</time>
      </trkpt>
      <trkpt lat="44.9099" lon="5.66073">
        <ele>722.689</ele>
        <time>2012-06-17T12:04:19Z</time>
      </trkpt>
      <trkpt lat="44.90992" lon="5.66054">
        <ele>725.753</ele>
        <time>2012-06-17T12:04:31Z</time>
      </trkpt>
      <trkpt lat="44.90994" lon="5.6605">
        <ele>726.516</ele>
        <time>2012-06-17T12:04:34Z</time>
      </trkpt>
      <trkpt lat="44.90997" lon="5.66044">
        <ele>726.591</ele>
        <time>2012-06-17T12:04:38Z</time>
      </trkpt>
      <trkpt lat="44.9101" lon="5.66016">
        <ele>729.143</ele>
        <time>2012-06-17T12:04:57Z</time>
      </trkpt>
      <trkpt lat="44.90999" lon="5.6599">
        <ele>729.646</ele>
        <time>2012-06-17T12:05:14Z</time>
      </trkpt>
      <trkpt lat="44.90973" lon="5.65966">
        <ele>732.659</ele>
        <time>2012-06-17T12:05:33Z</time>
      </trkpt>
      <trkpt lat="44.90953" lon="5.65958">
        <ele>735.883</ele>
        <time>2012-06-17T12:05:52Z</time>
      </trkpt>
      <trkpt lat="44.90925" lon="5.65939">
        <ele>738.933</ele>
        <time>2012-06-17T12:06:16Z</time>
      </trkpt>
      <trkpt lat="44.90906" lon="5.65933">
        <ele>741.987</ele>
        <time>2012-06-17T12:06:30Z</time>
      </trkpt>
      <trkpt lat="44.90891" lon="5.65924">
        <ele>745.056</ele>
        <time>2012-06-17T12:06:44Z</time>
      </trkpt>
      <trkpt lat="44.90888" lon="5.65921">
        <ele>745.6</ele>
        <time>2012-06-17T12:06:47Z</time>
      </trkpt>
      <trkpt lat="44.90869" lon="5.65906">
        <ele>749.061</ele>
        <time>2012-06-17T12:07:04Z</time>
      </trkpt>
      <trkpt lat="44.90845" lon="5.65884">
        <ele>751.586</ele>
        <time>2012-06-17T12:07:24Z</time>
      </trkpt>
      <trkpt lat="44.90829" lon="5.65869">
        <ele>754.883</ele>
        <time>2012-06-17T12:07:39Z</time>
      </trkpt>
      <trkpt lat="44.90806" lon="5.65845">
        <ele>757.91</ele>
        <time>2012-06-17T12:08:00Z</time>
      </trkpt>
      <trkpt lat="44.90781" lon="5.65813">
        <ele>759.949</ele>
        <time>2012-06-17T12:08:23Z</time>
      </trkpt>
      <trkpt lat="44.90757" lon="5.65793">
        <ele>762.455</ele>
        <time>2012-06-17T12:08:46Z</time>
      </trkpt>
      <trkpt lat="44.90736" lon="5.65777">
        <ele>764.42</ele>
        <time>2012-06-17T12:09:03Z</time>
      </trkpt>
      <trkpt lat="44.9071" lon="5.65773">
        <ele>766.95</ele>
        <time>2012-06-17T12:09:21Z</time>
      </trkpt>
      <trkpt lat="44.90685" lon="5.65781">
        <ele>768.938</ele>
        <time>2012-06-17T12:09:38Z</time>
      </trkpt>
      <trkpt lat="44.90656" lon="5.65801">
        <ele>770.798</ele>
        <time>2012-06-17T12:09:57Z</time>
      </trkpt>
      <trkpt lat="44.90632" lon="5.6579">
        <ele>772.708</ele>
        <time>2012-06-17T12:10:14Z</time>
      </trkpt>
      <trkpt lat="44.90619" lon="5.65767">
        <ele>776.623</ele>
        <time>2012-06-17T12:10:27Z</time>
      </trkpt>
      <trkpt lat="44.90619" lon="5.65766">
        <ele>776.814</ele>
        <time>2012-06-17T12:10:28Z</time>
      </trkpt>
      <trkpt lat="44.90621" lon="5.65764">
        <ele>779.958</ele>
        <time>2012-06-17T12:10:45Z</time>
      </trkpt>
      <trkpt lat="44.9062" lon="5.65762">
        <ele>779.998</ele>
        <time>2012-06-17T12:10:47Z</time>
      </trkpt>
      <trkpt lat="44.90615" lon="5.65752">
        <ele>780.216</ele>
        <time>2012-06-17T12:10:53Z</time>
      </trkpt>
      <trkpt lat="44.90588" lon="5.65732">
        <ele>782.872</ele>
        <time>2012-06-17T12:11:13Z</time>
      </trkpt>
      <trkpt lat="44.90566" lon="5.65715">
        <ele>784.518</ele>
        <time>2012-06-17T12:11:33Z</time>
      </trkpt>
      <trkpt lat="44.90554" lon="5.65702">
        <ele>785.814</ele>
        <time>2012-06-17T12:11:43Z</time>
      </trkpt>
      <trkpt lat="44.90549" lon="5.65695">
        <ele>786.012</ele>
        <time>2012-06-17T12:11:48Z</time>
      </trkpt>
      <trkpt lat="44.90524" lon="5.65679">
        <ele>787.817</ele>
        <time>2012-06-17T12:12:08Z</time>
      </trkpt>
      <trkpt lat="44.90501" lon="5.65674">
        <ele>790.844</ele>
        <time>2012-06-17T12:12:25Z</time>
      </trkpt>
      <trkpt lat="44.90476" lon="5.65671">
        <ele>793.259</ele>
        <time>2012-06-17T12:12:43Z</time>
      </trkpt>
      <trkpt lat="44.90449" lon="5.6568">
        <ele>796.009</ele>
        <time>2012-06-17T12:13:05Z</time>
      </trkpt>
      <trkpt lat="44.9042" lon="5.65692">
        <ele>798.63</ele>
        <time>2012-06-17T12:13:27Z</time>
      </trkpt>
      <trkpt lat="44.90398" lon="5.65696">
        <ele>801.657</ele>
        <time>2012-06-17T12:13:43Z</time>
      </trkpt>
      <trkpt lat="44.90372" lon="5.65703">
        <ele>804.686</ele>
        <time>2012-06-17T12:14:02Z</time>
      </trkpt>
      <trkpt lat="44.90344" lon="5.65714">
        <ele>807.884</ele>
        <time>2012-06-17T12:14:24Z</time>
      </trkpt>
      <trkpt lat="44.90313" lon="5.65739">
        <ele>810.607</ele>
        <time>2012-06-17T12:14:47Z</time>
      </trkpt>
      <trkpt lat="44.90282" lon="5.65743">
        <ele>812.064</ele>
        <time>2012-06-17T12:15:04Z</time>
      </trkpt>
      <trkpt lat="44.90261" lon="5.65698">
        <ele>813.993</ele>
        <time>2012-06-17T12:15:22Z</time>
      </trkpt>
      <trkpt lat="44.90227" lon="5.65626">
        <ele>814.925</ele>
        <time>2012-06-17T12:15:36Z</time>
      </trkpt>
      <trkpt lat="44.90176" lon="5.65549">
        <ele>815.182</ele>
        <time>2012-06-17T12:15:47Z</time>
      </trkpt>
      <trkpt lat="44.90141" lon="5.65528">
        <ele>813.891</ele>
        <time>2012-06-17T12:15:51Z</time>
      </trkpt>
      <trkpt lat="44.90121" lon="5.65524">
        <ele>813.823</ele>
        <time>2012-06-17T12:15:53Z</time>
      </trkpt>
      <trkpt lat="44.90068" lon="5.65462">
        <ele>813.151</ele>
        <time>2012-06-17T12:16:00Z</time>
      </trkpt>
      <trkpt lat="44.90052" lon="5.65419">
        <ele>814.062</ele>
        <time>2012-06-17T12:16:04Z</time>
      </trkpt>
      <trkpt lat="44.9003" lon="5.65391">
        <ele>814.465</ele>
        <time>2012-06-17T12:16:08Z</time>
      </trkpt>
      <trkpt lat="44.89995" lon="5.65373">
        <ele>814.584</ele>
        <time>2012-06-17T12:16:14Z</time>
      </trkpt>
      <trkpt lat="44.89984" lon="5.65372">
        <ele>814.72</ele>
        <time>2012-06-17T12:16:16Z</time>
      </trkpt>
      <trkpt lat="44.89942" lon="5.65375">
        <ele>814.872</ele>
        <time>2012-06-17T12:16:24Z</time>
      </trkpt>
      <trkpt lat="44.89872" lon="5.65342">
        <ele>813.09</ele>
        <time>2012-06-17T12:16:39Z</time>
      </trkpt>
      <trkpt lat="44.89795" lon="5.65294">
        <ele>813.625</ele>
        <time>2012-06-17T12:16:57Z</time>
      </trkpt>
      <trkpt lat="44.89778" lon="5.65281">
        <ele>814.237</ele>
        <time>2012-06-17T12:17:07Z</time>
      </trkpt>
      <trkpt lat="44.89778" lon="5.6528">
        <ele>815.279</ele>
        <time>2012-06-17T12:17:15Z</time>
      </trkpt>
      <trkpt lat="44.89786" lon="5.65251">
        <ele>813.179</ele>
        <time>2012-06-17T12:17:26Z</time>
      </trkpt>
      <trkpt lat="44.89819" lon="5.65204">
        <ele>811.263</ele>
        <time>2012-06-17T12:17:40Z</time>
      </trkpt>
      <trkpt lat="44.89844" lon="5.65141">
        <ele>810.902</ele>
        <time>2012-06-17T12:17:55Z</time>
      </trkpt>
      <trkpt lat="44.89853" lon="5.6509">
        <ele>810.835</ele>
        <time>2012-06-17T12:18:08Z</time>
      </trkpt>
      <trkpt lat="44.89857" lon="5.6505">
        <ele>811.222</ele>
        <time>2012-06-17T12:18:23Z</time>
      </trkpt>
      <trkpt lat="44.89858" lon="5.65023">
        <ele>807.85</ele>
        <time>2012-06-17T12:18:33Z</time>
      </trkpt>
      <trkpt lat="44.89859" lon="5.6502">
        <ele>783.59</ele>
        <time>2012-06-17T12:18:34Z</time>
      </trkpt>
      <trkpt lat="44.89859" lon="5.65017">
        <ele>810.838</ele>
        <time>2012-06-17T12:18:35Z</time>
      </trkpt>
      <trkpt lat="44.89859" lon="5.65015">
        <ele>810.383</ele>
        <time>2012-06-17T12:18:36Z</time>
      </trkpt>
      <trkpt lat="44.89859" lon="5.64986">
        <ele>813.576</ele>
        <time>2012-06-17T12:18:47Z</time>
      </trkpt>
      <trkpt lat="44.89861" lon="5.64936">
        <ele>814.761</ele>
        <time>2012-06-17T12:19:07Z</time>
      </trkpt>
      <trkpt lat="44.89865" lon="5.6488">
        <ele>814.395</ele>
        <time>2012-06-17T12:19:25Z</time>
      </trkpt>
      <trkpt lat="44.89875" lon="5.64815">
        <ele>816.404</ele>
        <time>2012-06-17T12:19:47Z</time>
      </trkpt>
      <trkpt lat="44.89898" lon="5.64794">
        <ele>815.834</ele>
        <time>2012-06-17T12:20:01Z</time>
      </trkpt>
      <trkpt lat="44.89927" lon="5.64783">
        <ele>816.629</ele>
        <time>2012-06-17T12:20:19Z</time>
      </trkpt>
      <trkpt lat="44.89938" lon="5.64785">
        <ele>819.744</ele>
        <time>2012-06-17T12:20:27Z</time>
      </trkpt>
      <trkpt lat="44.89948" lon="5.64794">
        <ele>822.361</ele>
        <time>2012-06-17T12:20:36Z</time>
      </trkpt>
      <trkpt lat="44.89958" lon="5.64813">
        <ele>824.764</ele>
        <time>2012-06-17T12:20:47Z</time>
      </trkpt>
      <trkpt lat="44.89977" lon="5.64843">
        <ele>828.283</ele>
        <time>2012-06-17T12:21:03Z</time>
      </trkpt>
      <trkpt lat="44.89992" lon="5.64865">
        <ele>831.464</ele>
        <time>2012-06-17T12:21:17Z</time>
      </trkpt>
      <trkpt lat="44.90008" lon="5.64883">
        <ele>834.524</ele>
        <time>2012-06-17T12:21:30Z</time>
      </trkpt>
      <trkpt lat="44.90018" lon="5.64888">
        <ele>835.77</ele>
        <time>2012-06-17T12:21:36Z</time>
      </trkpt>
      <trkpt lat="44.90022" lon="5.6489">
        <ele>836.755</ele>
        <time>2012-06-17T12:21:38Z</time>
      </trkpt>
      <trkpt lat="44.90027" lon="5.64894">
        <ele>838.567</ele>
        <time>2012-06-17T12:21:42Z</time>
      </trkpt>
      <trkpt lat="44.90052" lon="5.64904">
        <ele>841.402</ele>
        <time>2012-06-17T12:21:58Z</time>
      </trkpt>
      <trkpt lat="44.90069" lon="5.64909">
        <ele>844.555</ele>
        <time>2012-06-17T12:22:09Z</time>
      </trkpt>
      <trkpt lat="44.90086" lon="5.64915">
        <ele>846.222</ele>
        <time>2012-06-17T12:22:18Z</time>
      </trkpt>
      <trkpt lat="44.90096" lon="5.64925">
        <ele>848.12</ele>
        <time>2012-06-17T12:22:24Z</time>
      </trkpt>
      <trkpt lat="44.90116" lon="5.64931">
        <ele>850.766</ele>
        <time>2012-06-17T12:22:38Z</time>
      </trkpt>
      <trkpt lat="44.90122" lon="5.64931">
        <ele>851.36</ele>
        <time>2012-06-17T12:22:41Z</time>
      </trkpt>
      <trkpt lat="44.9014" lon="5.64936">
        <ele>853.573</ele>
        <time>2012-06-17T12:22:52Z</time>
      </trkpt>
      <trkpt lat="44.90156" lon="5.64949">
        <ele>856.043</ele>
        <time>2012-06-17T12:23:03Z</time>
      </trkpt>
      <trkpt lat="44.90171" lon="5.6495">
        <ele>857.43</ele>
        <time>2012-06-17T12:23:13Z</time>
      </trkpt>
      <trkpt lat="44.90186" lon="5.6495">
        <ele>860.121</ele>
        <time>2012-06-17T12:23:23Z</time>
      </trkpt>
      <trkpt lat="44.9021" lon="5.64939">
        <ele>861.831</ele>
        <time>2012-06-17T12:23:36Z</time>
      </trkpt>
      <trkpt lat="44.90212" lon="5.64937">
        <ele>861.757</ele>
        <time>2012-06-17T12:23:37Z</time>
      </trkpt>
      <trkpt lat="44.9023" lon="5.64926">
        <ele>864.185</ele>
        <time>2012-06-17T12:23:49Z</time>
      </trkpt>
      <trkpt lat="44.90233" lon="5.64917">
        <ele>864.644</ele>
        <time>2012-06-17T12:23:52Z</time>
      </trkpt>
      <trkpt lat="44.9023" lon="5.64913">
        <ele>865.086</ele>
        <time>2012-06-17T12:23:55Z</time>
      </trkpt>
      <trkpt lat="44.902" lon="5.64915">
        <ele>864.212</ele>
        <time>2012-06-17T12:24:09Z</time>
      </trkpt>
      <trkpt lat="44.90186" lon="5.64913">
        <ele>865.271</ele>
        <time>2012-06-17T12:24:18Z</time>
      </trkpt>
      <trkpt lat="44.90164" lon="5.64903">
        <ele>865.752</ele>
        <time>2012-06-17T12:24:30Z</time>
      </trkpt>
      <trkpt lat="44.90134" lon="5.64884">
        <ele>866.437</ele>
        <time>2012-06-17T12:24:46Z</time>
      </trkpt>
      <trkpt lat="44.90108" lon="5.64863">
        <ele>868.09</ele>
        <time>2012-06-17T12:25:04Z</time>
      </trkpt>
      <trkpt lat="44.90084" lon="5.64839">
        <ele>869.028</ele>
        <time>2012-06-17T12:25:21Z</time>
      </trkpt>
      <trkpt lat="44.90058" lon="5.64799">
        <ele>870.075</ele>
        <time>2012-06-17T12:25:42Z</time>
      </trkpt>
      <trkpt lat="44.90042" lon="5.6476">
        <ele>872.742</ele>
        <time>2012-06-17T12:26:00Z</time>
      </trkpt>
      <trkpt lat="44.90039" lon="5.64729">
        <ele>875.522</ele>
        <time>2012-06-17T12:26:15Z</time>
      </trkpt>
      <trkpt lat="44.90029" lon="5.64698">
        <ele>877.26</ele>
        <time>2012-06-17T12:26:29Z</time>
      </trkpt>
      <trkpt lat="44.9001" lon="5.64663">
        <ele>878.74</ele>
        <time>2012-06-17T12:26:47Z</time>
      </trkpt>
      <trkpt lat="44.89999" lon="5.64626">
        <ele>880.442</ele>
        <time>2012-06-17T12:27:03Z</time>
      </trkpt>
      <trkpt lat="44.89987" lon="5.64587">
        <ele>883.415</ele>
        <time>2012-06-17T12:27:21Z</time>
      </trkpt>
      <trkpt lat="44.8998" lon="5.64545">
        <ele>886.969</ele>
        <time>2012-06-17T12:27:39Z</time>
      </trkpt>
      <trkpt lat="44.89969" lon="5.64494">
        <ele>888.606</ele>
        <time>2012-06-17T12:27:58Z</time>
      </trkpt>
      <trkpt lat="44.89971" lon="5.6446">
        <ele>890.887</ele>
        <time>2012-06-17T12:28:11Z</time>
      </trkpt>
      <trkpt lat="44.89981" lon="5.64439">
        <ele>893.349</ele>
        <time>2012-06-17T12:28:23Z</time>
      </trkpt>
      <trkpt lat="44.89982" lon="5.64437">
        <ele>893.16</ele>
        <time>2012-06-17T12:28:24Z</time>
      </trkpt>
      <trkpt lat="44.90004" lon="5.64407">
        <ele>895.88</ele>
        <time>2012-06-17T12:28:40Z</time>
      </trkpt>
      <trkpt lat="44.90026" lon="5.64377">
        <ele>897.756</ele>
        <time>2012-06-17T12:28:58Z</time>
      </trkpt>
      <trkpt lat="44.90027" lon="5.64375">
        <ele>897.84</ele>
        <time>2012-06-17T12:28:59Z</time>
      </trkpt>
      <trkpt lat="44.90008" lon="5.64344">
        <ele>900.946</ele>
        <time>2012-06-17T12:29:17Z</time>
      </trkpt>
      <trkpt lat="44.89994" lon="5.64307">
        <ele>904.409</ele>
        <time>2012-06-17T12:29:35Z</time>
      </trkpt>
      <trkpt lat="44.89988" lon="5.64282">
        <ele>907.43</ele>
        <time>2012-06-17T12:29:47Z</time>
      </trkpt>
      <trkpt lat="44.89989" lon="5.64237">
        <ele>909.714</ele>
        <time>2012-06-17T12:30:05Z</time>
      </trkpt>
      <trkpt lat="44.89989" lon="5.64235">
        <ele>909.571</ele>
        <time>2012-06-17T12:30:06Z</time>
      </trkpt>
      <trkpt lat="44.89987" lon="5.64195">
        <ele>912.641</ele>
        <time>2012-06-17T12:30:20Z</time>
      </trkpt>
      <trkpt lat="44.89983" lon="5.64185">
        <ele>913.973</ele>
        <time>2012-06-17T12:30:26Z</time>
      </trkpt>
      <trkpt lat="44.89969" lon="5.64164">
        <ele>916.145</ele>
        <time>2012-06-17T12:30:40Z</time>
      </trkpt>
      <trkpt lat="44.89952" lon="5.6414">
        <ele>919.427</ele>
        <time>2012-06-17T12:30:54Z</time>
      </trkpt>
      <trkpt lat="44.89935" lon="5.64116">
        <ele>921.531</ele>
        <time>2012-06-17T12:31:07Z</time>
      </trkpt>
      <trkpt lat="44.89921" lon="5.64097">
        <ele>923.793</ele>
        <time>2012-06-17T12:31:19Z</time>
      </trkpt>
      <trkpt lat="44.89913" lon="5.64089">
        <ele>924.36</ele>
        <time>2012-06-17T12:31:24Z</time>
      </trkpt>
      <trkpt lat="44.89899" lon="5.64069">
        <ele>926.359</ele>
        <time>2012-06-17T12:31:36Z</time>
      </trkpt>
      <trkpt lat="44.89887" lon="5.64041">
        <ele>929.565</ele>
        <time>2012-06-17T12:31:49Z</time>
      </trkpt>
      <trkpt lat="44.89877" lon="5.64026">
        <ele>931.451</ele>
        <time>2012-06-17T12:31:58Z</time>
      </trkpt>
      <trkpt lat="44.89856" lon="5.64006">
        <ele>933.581</ele>
        <time>2012-06-17T12:32:12Z</time>
      </trkpt>
      <trkpt lat="44.89845" lon="5.63995">
        <ele>935.574</ele>
        <time>2012-06-17T12:32:19Z</time>
      </trkpt>
      <trkpt lat="44.8982" lon="5.63971">
        <ele>938.183</ele>
        <time>2012-06-17T12:32:37Z</time>
      </trkpt>
      <trkpt lat="44.89792" lon="5.63954">
        <ele>941.523</ele>
        <time>2012-06-17T12:32:54Z</time>
      </trkpt>
      <trkpt lat="44.89762" lon="5.6394">
        <ele>942.289</ele>
        <time>2012-06-17T12:33:11Z</time>
      </trkpt>
      <trkpt lat="44.89729" lon="5.63912">
        <ele>944.205</ele>
        <time>2012-06-17T12:33:32Z</time>
      </trkpt>
      <trkpt lat="44.89724" lon="5.63901">
        <ele>946.124</ele>
        <time>2012-06-17T12:33:45Z</time>
      </trkpt>
      <trkpt lat="44.89726" lon="5.63898">
        <ele>947.575</ele>
        <time>2012-06-17T12:34:05Z</time>
      </trkpt>
      <trkpt lat="44.89732" lon="5.63895">
        <ele>946.557</ele>
        <time>2012-06-17T12:34:09Z</time>
      </trkpt>
      <trkpt lat="44.89764" lon="5.63874">
        <ele>947.56</ele>
        <time>2012-06-17T12:34:26Z</time>
      </trkpt>
      <trkpt lat="44.89784" lon="5.6385">
        <ele>947.254</ele>
        <time>2012-06-17T12:34:39Z</time>
      </trkpt>
      <trkpt lat="44.8979" lon="5.63853">
        <ele>947.508</ele>
        <time>2012-06-17T12:34:44Z</time>
      </trkpt>
      <trkpt lat="44.89795" lon="5.639">
        <ele>948.184</ele>
        <time>2012-06-17T12:35:00Z</time>
      </trkpt>
      <trkpt lat="44.89815" lon="5.63908">
        <ele>950.47</ele>
        <time>2012-06-17T12:35:12Z</time>
      </trkpt>
      <trkpt lat="44.89839" lon="5.63908">
        <ele>953.04</ele>
        <time>2012-06-17T12:35:33Z</time>
      </trkpt>
      <trkpt lat="44.8986" lon="5.63908">
        <ele>956.41</ele>
        <time>2012-06-17T12:35:51Z</time>
      </trkpt>
      <trkpt lat="44.89877" lon="5.63913">
        <ele>958.532</ele>
        <time>2012-06-17T12:36:07Z</time>
      </trkpt>
      <trkpt lat="44.89891" lon="5.63916">
        <ele>961.549</ele>
        <time>2012-06-17T12:36:19Z</time>
      </trkpt>
      <trkpt lat="44.89906" lon="5.6392">
        <ele>964.921</ele>
        <time>2012-06-17T12:36:32Z</time>
      </trkpt>
      <trkpt lat="44.89922" lon="5.63924">
        <ele>968.455</ele>
        <time>2012-06-17T12:36:44Z</time>
      </trkpt>
      <trkpt lat="44.89933" lon="5.6393">
        <ele>971.275</ele>
        <time>2012-06-17T12:36:53Z</time>
      </trkpt>
      <trkpt lat="44.89949" lon="5.63942">
        <ele>974.436</ele>
        <time>2012-06-17T12:37:08Z</time>
      </trkpt>
      <trkpt lat="44.89965" lon="5.63955">
        <ele>977.667</ele>
        <time>2012-06-17T12:37:23Z</time>
      </trkpt>
      <trkpt lat="44.89978" lon="5.63969">
        <ele>980.766</ele>
        <time>2012-06-17T12:37:38Z</time>
      </trkpt>
      <trkpt lat="44.89992" lon="5.63981">
        <ele>983.465</ele>
        <time>2012-06-17T12:37:53Z</time>
      </trkpt>
      <trkpt lat="44.90012" lon="5.63988">
        <ele>986.299</ele>
        <time>2012-06-17T12:38:11Z</time>
      </trkpt>
      <trkpt lat="44.90013" lon="5.63989">
        <ele>974.44</ele>
        <time>2012-06-17T12:38:15Z</time>
      </trkpt>
      <trkpt lat="44.90013" lon="5.63989">
        <ele>977.672</ele>
        <time>2012-06-17T12:38:17Z</time>
      </trkpt>
      <trkpt lat="44.90013" lon="5.63989">
        <ele>961.778</ele>
        <time>2012-06-17T12:38:18Z</time>
      </trkpt>
      <trkpt lat="44.90013" lon="5.63989">
        <ele>987.569</ele>
        <time>2012-06-17T12:38:19Z</time>
      </trkpt>
      <trkpt lat="44.90013" lon="5.63989">
        <ele>985.144</ele>
        <time>2012-06-17T12:38:20Z</time>
      </trkpt>
      <trkpt lat="44.90013" lon="5.63989">
        <ele>987.035</ele>
        <time>2012-06-17T12:38:23Z</time>
      </trkpt>
      <trkpt lat="44.90027" lon="5.63999">
        <ele>988.657</ele>
        <time>2012-06-17T12:38:40Z</time>
      </trkpt>
      <trkpt lat="44.9004" lon="5.6401">
        <ele>990.35</ele>
        <time>2012-06-17T12:38:55Z</time>
      </trkpt>
      <trkpt lat="44.90047" lon="5.64016">
        <ele>989.954</ele>
        <time>2012-06-17T12:39:03Z</time>
      </trkpt>
      <trkpt lat="44.90049" lon="5.64018">
        <ele>990.813</ele>
        <time>2012-06-17T12:39:05Z</time>
      </trkpt>
      <trkpt lat="44.90067" lon="5.64025">
        <ele>993.237</ele>
        <time>2012-06-17T12:39:21Z</time>
      </trkpt>
      <trkpt lat="44.90084" lon="5.64036">
        <ele>994.079</ele>
        <time>2012-06-17T12:39:37Z</time>
      </trkpt>
      <trkpt lat="44.90104" lon="5.64055">
        <ele>992.859</ele>
        <time>2012-06-17T12:39:57Z</time>
      </trkpt>
      <trkpt lat="44.90118" lon="5.64069">
        <ele>993.234</ele>
        <time>2012-06-17T12:40:14Z</time>
      </trkpt>
      <trkpt lat="44.90141" lon="5.64092">
        <ele>996.016</ele>
        <time>2012-06-17T12:40:38Z</time>
      </trkpt>
      <trkpt lat="44.90154" lon="5.641">
        <ele>999.164</ele>
        <time>2012-06-17T12:40:53Z</time>
      </trkpt>
      <trkpt lat="44.90157" lon="5.64102">
        <ele>999.903</ele>
        <time>2012-06-17T12:40:57Z</time>
      </trkpt>
      <trkpt lat="44.90159" lon="5.64106">
        <ele>1000.387</ele>
        <time>2012-06-17T12:41:00Z</time>
      </trkpt>
      <trkpt lat="44.9017" lon="5.64128">
        <ele>1002.517</ele>
        <time>2012-06-17T12:41:14Z</time>
      </trkpt>
      <trkpt lat="44.90185" lon="5.6415">
        <ele>1005.98</ele>
        <time>2012-06-17T12:41:27Z</time>
      </trkpt>
      <trkpt lat="44.90189" lon="5.64151">
        <ele>1006.036</ele>
        <time>2012-06-17T12:41:29Z</time>
      </trkpt>
      <trkpt lat="44.90196" lon="5.64155">
        <ele>1006.759</ele>
        <time>2012-06-17T12:41:33Z</time>
      </trkpt>
      <trkpt lat="44.90217" lon="5.6417">
        <ele>1010.239</ele>
        <time>2012-06-17T12:41:47Z</time>
      </trkpt>
      <trkpt lat="44.90233" lon="5.64184">
        <ele>1013.369</ele>
        <time>2012-06-17T12:41:58Z</time>
      </trkpt>
      <trkpt lat="44.90246" lon="5.64197">
        <ele>1016.676</ele>
        <time>2012-06-17T12:42:09Z</time>
      </trkpt>
      <trkpt lat="44.90254" lon="5.64203">
        <ele>1017.326</ele>
        <time>2012-06-17T12:42:14Z</time>
      </trkpt>
      <trkpt lat="44.90277" lon="5.64215">
        <ele>1020.174</ele>
        <time>2012-06-17T12:42:28Z</time>
      </trkpt>
      <trkpt lat="44.90278" lon="5.64216">
        <ele>1020.231</ele>
        <time>2012-06-17T12:42:29Z</time>
      </trkpt>
      <trkpt lat="44.90287" lon="5.64226">
        <ele>1021.395</ele>
        <time>2012-06-17T12:42:36Z</time>
      </trkpt>
      <trkpt lat="44.90295" lon="5.64238">
        <ele>1022.346</ele>
        <time>2012-06-17T12:42:44Z</time>
      </trkpt>
      <trkpt lat="44.90298" lon="5.64248">
        <ele>1023.6</ele>
        <time>2012-06-17T12:42:50Z</time>
      </trkpt>
      <trkpt lat="44.9031" lon="5.6426">
        <ele>1025.767</ele>
        <time>2012-06-17T12:43:00Z</time>
      </trkpt>
      <trkpt lat="44.90324" lon="5.64266">
        <ele>1027.996</ele>
        <time>2012-06-17T12:43:10Z</time>
      </trkpt>
      <trkpt lat="44.90341" lon="5.64258">
        <ele>1028.493</ele>
        <time>2012-06-17T12:43:25Z</time>
      </trkpt>
      <trkpt lat="44.90355" lon="5.64237">
        <ele>1030.384</ele>
        <time>2012-06-17T12:43:38Z</time>
      </trkpt>
      <trkpt lat="44.90365" lon="5.6422">
        <ele>1031.385</ele>
        <time>2012-06-17T12:43:48Z</time>
      </trkpt>
      <trkpt lat="44.90374" lon="5.64208">
        <ele>1033.079</ele>
        <time>2012-06-17T12:43:57Z</time>
      </trkpt>
      <trkpt lat="44.90385" lon="5.64186">
        <ele>1035.558</ele>
        <time>2012-06-17T12:44:11Z</time>
      </trkpt>
      <trkpt lat="44.9039" lon="5.64173">
        <ele>1037.113</ele>
        <time>2012-06-17T12:44:18Z</time>
      </trkpt>
      <trkpt lat="44.90393" lon="5.64145">
        <ele>1040.071</ele>
        <time>2012-06-17T12:44:33Z</time>
      </trkpt>
      <trkpt lat="44.90392" lon="5.64133">
        <ele>1040.931</ele>
        <time>2012-06-17T12:44:38Z</time>
      </trkpt>
      <trkpt lat="44.90387" lon="5.64108">
        <ele>1043.127</ele>
        <time>2012-06-17T12:44:54Z</time>
      </trkpt>
      <trkpt lat="44.90382" lon="5.64073">
        <ele>1045.632</ele>
        <time>2012-06-17T12:45:14Z</time>
      </trkpt>
      <trkpt lat="44.90373" lon="5.6404">
        <ele>1045.741</ele>
        <time>2012-06-17T12:45:33Z</time>
      </trkpt>
      <trkpt lat="44.90375" lon="5.64039">
        <ele>1047.857</ele>
        <time>2012-06-17T12:45:55Z</time>
      </trkpt>
      <trkpt lat="44.90379" lon="5.64038">
        <ele>1049.533</ele>
        <time>2012-06-17T12:46:27Z</time>
      </trkpt>
      <trkpt lat="44.90379" lon="5.64045">
        <ele>1050.003</ele>
        <time>2012-06-17T12:46:58Z</time>
      </trkpt>
      <trkpt lat="44.90379" lon="5.64042">
        <ele>1051.157</ele>
        <time>2012-06-17T12:47:32Z</time>
      </trkpt>
      <trkpt lat="44.90379" lon="5.64042">
        <ele>1049.78</ele>
        <time>2012-06-17T12:47:59Z</time>
      </trkpt>
      <trkpt lat="44.9038" lon="5.64039">
        <ele>1049.094</ele>
        <time>2012-06-17T12:48:05Z</time>
      </trkpt>
      <trkpt lat="44.90392" lon="5.64031">
        <ele>1048.298</ele>
        <time>2012-06-17T12:48:11Z</time>
      </trkpt>
      <trkpt lat="44.90414" lon="5.64026">
        <ele>1045.731</ele>
        <time>2012-06-17T12:48:24Z</time>
      </trkpt>
      <trkpt lat="44.9042" lon="5.64024">
        <ele>1044.777</ele>
        <time>2012-06-17T12:48:26Z</time>
      </trkpt>
      <trkpt lat="44.90439" lon="5.64017">
        <ele>1043.117</ele>
        <time>2012-06-17T12:48:36Z</time>
      </trkpt>
      <trkpt lat="44.90452" lon="5.64017">
        <ele>1039.605</ele>
        <time>2012-06-17T12:48:46Z</time>
      </trkpt>
      <trkpt lat="44.90468" lon="5.64018">
        <ele>1036.595</ele>
        <time>2012-06-17T12:48:55Z</time>
      </trkpt>
      <trkpt lat="44.90472" lon="5.64021">
        <ele>1035.888</ele>
        <time>2012-06-17T12:48:57Z</time>
      </trkpt>
      <trkpt lat="44.90476" lon="5.64022">
        <ele>1035.227</ele>
        <time>2012-06-17T12:48:59Z</time>
      </trkpt>
      <trkpt lat="44.90496" lon="5.64029">
        <ele>1031.917</ele>
        <time>2012-06-17T12:49:09Z</time>
      </trkpt>
      <trkpt lat="44.90507" lon="5.64029">
        <ele>1029.258</ele>
        <time>2012-06-17T12:49:17Z</time>
      </trkpt>
      <trkpt lat="44.90514" lon="5.64028">
        <ele>1026.162</ele>
        <time>2012-06-17T12:49:29Z</time>
      </trkpt>
      <trkpt lat="44.90516" lon="5.64026">
        <ele>1024.64</ele>
        <time>2012-06-17T12:49:35Z</time>
      </trkpt>
      <trkpt lat="44.9052" lon="5.64023">
        <ele>1023.005</ele>
        <time>2012-06-17T12:49:38Z</time>
      </trkpt>
      <trkpt lat="44.90532" lon="5.64021">
        <ele>1019.797</ele>
        <time>2012-06-17T12:49:47Z</time>
      </trkpt>
      <trkpt lat="44.90534" lon="5.64023">
        <ele>1018.007</ele>
        <time>2012-06-17T12:49:52Z</time>
      </trkpt>
      <trkpt lat="44.90536" lon="5.64026">
        <ele>1017.54</ele>
        <time>2012-06-17T12:49:57Z</time>
      </trkpt>
      <trkpt lat="44.90532" lon="5.64032">
        <ele>1015.225</ele>
        <time>2012-06-17T12:50:01Z</time>
      </trkpt>
      <trkpt lat="44.90529" lon="5.6403">
        <ele>1013.76</ele>
        <time>2012-06-17T12:50:05Z</time>
      </trkpt>
      <trkpt lat="44.90538" lon="5.64004">
        <ele>1010.947</ele>
        <time>2012-06-17T12:50:18Z</time>
      </trkpt>
      <trkpt lat="44.90541" lon="5.64002">
        <ele>1010.068</ele>
        <time>2012-06-17T12:50:21Z</time>
      </trkpt>
      <trkpt lat="44.90546" lon="5.63986">
        <ele>1008.236</ele>
        <time>2012-06-17T12:50:29Z</time>
      </trkpt>
      <trkpt lat="44.90536" lon="5.63975">
        <ele>1007.217</ele>
        <time>2012-06-17T12:50:40Z</time>
      </trkpt>
      <trkpt lat="44.90537" lon="5.63973">
        <ele>1006.603</ele>
        <time>2012-06-17T12:50:42Z</time>
      </trkpt>
      <trkpt lat="44.90539" lon="5.63964">
        <ele>1005.689</ele>
        <time>2012-06-17T12:50:52Z</time>
      </trkpt>
      <trkpt lat="44.9053" lon="5.63953">
        <ele>1002.687</ele>
        <time>2012-06-17T12:51:07Z</time>
      </trkpt>
      <trkpt lat="44.9054" lon="5.63945">
        <ele>1001.071</ele>
        <time>2012-06-17T12:51:17Z</time>
      </trkpt>
      <trkpt lat="44.90555" lon="5.6394">
        <ele>999.619</ele>
        <time>2012-06-17T12:51:25Z</time>
      </trkpt>
      <trkpt lat="44.90568" lon="5.63937">
        <ele>999.525</ele>
        <time>2012-06-17T12:51:32Z</time>
      </trkpt>
      <trkpt lat="44.90574" lon="5.63938">
        <ele>999.617</ele>
        <time>2012-06-17T12:51:35Z</time>
      </trkpt>
      <trkpt lat="44.90585" lon="5.63933">
        <ele>998.769</ele>
        <time>2012-06-17T12:51:39Z</time>
      </trkpt>
      <trkpt lat="44.90621" lon="5.63917">
        <ele>998.472</ele>
        <time>2012-06-17T12:51:46Z</time>
      </trkpt>
      <trkpt lat="44.90654" lon="5.6391">
        <ele>999.588</ele>
        <time>2012-06-17T12:51:55Z</time>
      </trkpt>
      <trkpt lat="44.90659" lon="5.63911">
        <ele>999.532</ele>
        <time>2012-06-17T12:51:59Z</time>
      </trkpt>
      <trkpt lat="44.90682" lon="5.63899">
        <ele>999.44</ele>
        <time>2012-06-17T12:52:09Z</time>
      </trkpt>
      <trkpt lat="44.90712" lon="5.63882">
        <ele>999.372</ele>
        <time>2012-06-17T12:52:19Z</time>
      </trkpt>
      <trkpt lat="44.90736" lon="5.6387">
        <ele>997.058</ele>
        <time>2012-06-17T12:52:29Z</time>
      </trkpt>
      <trkpt lat="44.9075" lon="5.6386">
        <ele>996.126</ele>
        <time>2012-06-17T12:52:33Z</time>
      </trkpt>
      <trkpt lat="44.90761" lon="5.63856">
        <ele>995.081</ele>
        <time>2012-06-17T12:52:38Z</time>
      </trkpt>
      <trkpt lat="44.90769" lon="5.63841">
        <ele>993.824</ele>
        <time>2012-06-17T12:52:42Z</time>
      </trkpt>
      <trkpt lat="44.90785" lon="5.63822">
        <ele>992.174</ele>
        <time>2012-06-17T12:52:48Z</time>
      </trkpt>
      <trkpt lat="44.9079" lon="5.63816">
        <ele>991.146</ele>
        <time>2012-06-17T12:52:51Z</time>
      </trkpt>
      <trkpt lat="44.90815" lon="5.63793">
        <ele>987.932</ele>
        <time>2012-06-17T12:53:01Z</time>
      </trkpt>
      <trkpt lat="44.9083" lon="5.63771">
        <ele>985.283</ele>
        <time>2012-06-17T12:53:11Z</time>
      </trkpt>
      <trkpt lat="44.90835" lon="5.63769">
        <ele>982.075</ele>
        <time>2012-06-17T12:53:19Z</time>
      </trkpt>
      <trkpt lat="44.90845" lon="5.63764">
        <ele>978.993</ele>
        <time>2012-06-17T12:53:32Z</time>
      </trkpt>
      <trkpt lat="44.90842" lon="5.63766">
        <ele>976.429</ele>
        <time>2012-06-17T12:53:42Z</time>
      </trkpt>
      <trkpt lat="44.90835" lon="5.63768">
        <ele>975.545</ele>
        <time>2012-06-17T12:53:46Z</time>
      </trkpt>
      <trkpt lat="44.90805" lon="5.63775">
        <ele>972.46</ele>
        <time>2012-06-17T12:53:57Z</time>
      </trkpt>
      <trkpt lat="44.9078" lon="5.63782">
        <ele>969.142</ele>
        <time>2012-06-17T12:54:07Z</time>
      </trkpt>
      <trkpt lat="44.90771" lon="5.63789">
        <ele>966.072</ele>
        <time>2012-06-17T12:54:19Z</time>
      </trkpt>
      <trkpt lat="44.90759" lon="5.63788">
        <ele>962.929</ele>
        <time>2012-06-17T12:54:34Z</time>
      </trkpt>
      <trkpt lat="44.90755" lon="5.63789">
        <ele>961.746</ele>
        <time>2012-06-17T12:54:39Z</time>
      </trkpt>
      <trkpt lat="44.9075" lon="5.63774">
        <ele>960.58</ele>
        <time>2012-06-17T12:54:49Z</time>
      </trkpt>
      <trkpt lat="44.90751" lon="5.63772">
        <ele>959.95</ele>
        <time>2012-06-17T12:54:50Z</time>
      </trkpt>
      <trkpt lat="44.90761" lon="5.63767">
        <ele>958.704</ele>
        <time>2012-06-17T12:54:55Z</time>
      </trkpt>
      <trkpt lat="44.90764" lon="5.6376">
        <ele>957.626</ele>
        <time>2012-06-17T12:55:00Z</time>
      </trkpt>
      <trkpt lat="44.90767" lon="5.63749">
        <ele>956.812</ele>
        <time>2012-06-17T12:55:04Z</time>
      </trkpt>
      <trkpt lat="44.90772" lon="5.63741">
        <ele>956.401</ele>
        <time>2012-06-17T12:55:07Z</time>
      </trkpt>
      <trkpt lat="44.9079" lon="5.6373">
        <ele>954.277</ele>
        <time>2012-06-17T12:55:15Z</time>
      </trkpt>
      <trkpt lat="44.90814" lon="5.63712">
        <ele>951.98</ele>
        <time>2012-06-17T12:55:23Z</time>
      </trkpt>
      <trkpt lat="44.90819" lon="5.63705">
        <ele>948.419</ele>
        <time>2012-06-17T12:55:37Z</time>
      </trkpt>
      <trkpt lat="44.90821" lon="5.63704">
        <ele>948.393</ele>
        <time>2012-06-17T12:55:38Z</time>
      </trkpt>
      <trkpt lat="44.90829" lon="5.63695">
        <ele>947.444</ele>
        <time>2012-06-17T12:55:43Z</time>
      </trkpt>
      <trkpt lat="44.90839" lon="5.63687">
        <ele>946.023</ele>
        <time>2012-06-17T12:55:48Z</time>
      </trkpt>
      <trkpt lat="44.90854" lon="5.6368">
        <ele>944.227</ele>
        <time>2012-06-17T12:55:55Z</time>
      </trkpt>
      <trkpt lat="44.90875" lon="5.63678">
        <ele>943.431</ele>
        <time>2012-06-17T12:56:03Z</time>
      </trkpt>
      <trkpt lat="44.909" lon="5.63673">
        <ele>941.755</ele>
        <time>2012-06-17T12:56:14Z</time>
      </trkpt>
      <trkpt lat="44.90907" lon="5.63666">
        <ele>939.931</ele>
        <time>2012-06-17T12:56:25Z</time>
      </trkpt>
      <trkpt lat="44.90916" lon="5.63661">
        <ele>938.625</ele>
        <time>2012-06-17T12:56:33Z</time>
      </trkpt>
      <trkpt lat="44.90922" lon="5.63662">
        <ele>938.35</ele>
        <time>2012-06-17T12:56:37Z</time>
      </trkpt>
      <trkpt lat="44.90926" lon="5.63653">
        <ele>937.461</ele>
        <time>2012-06-17T12:56:43Z</time>
      </trkpt>
      <trkpt lat="44.90938" lon="5.63651">
        <ele>936.126</ele>
        <time>2012-06-17T12:56:50Z</time>
      </trkpt>
      <trkpt lat="44.90958" lon="5.63647">
        <ele>934.959</ele>
        <time>2012-06-17T12:57:00Z</time>
      </trkpt>
      <trkpt lat="44.9099" lon="5.63637">
        <ele>932.393</ele>
        <time>2012-06-17T12:57:12Z</time>
      </trkpt>
      <trkpt lat="44.91017" lon="5.63636">
        <ele>931.175</ele>
        <time>2012-06-17T12:57:21Z</time>
      </trkpt>
      <trkpt lat="44.91025" lon="5.63634">
        <ele>930.807</ele>
        <time>2012-06-17T12:57:23Z</time>
      </trkpt>
      <trkpt lat="44.91039" lon="5.63639">
        <ele>929.491</ele>
        <time>2012-06-17T12:57:27Z</time>
      </trkpt>
      <trkpt lat="44.91049" lon="5.63644">
        <ele>928.438</ele>
        <time>2012-06-17T12:57:29Z</time>
      </trkpt>
      <trkpt lat="44.91058" lon="5.63648">
        <ele>927.684</ele>
        <time>2012-06-17T12:57:31Z</time>
      </trkpt>
      <trkpt lat="44.91088" lon="5.63662">
        <ele>926.119</ele>
        <time>2012-06-17T12:57:41Z</time>
      </trkpt>
      <trkpt lat="44.91103" lon="5.63669">
        <ele>925.079</ele>
        <time>2012-06-17T12:57:47Z</time>
      </trkpt>
      <trkpt lat="44.91129" lon="5.63684">
        <ele>923.03</ele>
        <time>2012-06-17T12:57:57Z</time>
      </trkpt>
      <trkpt lat="44.91154" lon="5.63693">
        <ele>921.256</ele>
        <time>2012-06-17T12:58:07Z</time>
      </trkpt>
      <trkpt lat="44.91172" lon="5.63693">
        <ele>917.79</ele>
        <time>2012-06-17T12:58:16Z</time>
      </trkpt>
      <trkpt lat="44.91186" lon="5.63699">
        <ele>915.861</ele>
        <time>2012-06-17T12:58:23Z</time>
      </trkpt>
      <trkpt lat="44.91212" lon="5.63697">
        <ele>913.503</ele>
        <time>2012-06-17T12:58:31Z</time>
      </trkpt>
      <trkpt lat="44.91242" lon="5.63695">
        <ele>911.016</ele>
        <time>2012-06-17T12:58:42Z</time>
      </trkpt>
      <trkpt lat="44.91252" lon="5.63707">
        <ele>909.408</ele>
        <time>2012-06-17T12:58:47Z</time>
      </trkpt>
      <trkpt lat="44.91265" lon="5.63732">
        <ele>908.013</ele>
        <time>2012-06-17T12:59:00Z</time>
      </trkpt>
      <trkpt lat="44.91278" lon="5.63751">
        <ele>906.831</ele>
        <time>2012-06-17T12:59:12Z</time>
      </trkpt>
      <trkpt lat="44.9128" lon="5.63752">
        <ele>906.623</ele>
        <time>2012-06-17T12:59:14Z</time>
      </trkpt>
      <trkpt lat="44.91304" lon="5.63767">
        <ele>906.396</ele>
        <time>2012-06-17T12:59:28Z</time>
      </trkpt>
      <trkpt lat="44.91314" lon="5.63766">
        <ele>905.899</ele>
        <time>2012-06-17T12:59:35Z</time>
      </trkpt>
      <trkpt lat="44.91305" lon="5.63737">
        <ele>904.298</ele>
        <time>2012-06-17T12:59:46Z</time>
      </trkpt>
      <trkpt lat="44.91303" lon="5.63727">
        <ele>903.586</ele>
        <time>2012-06-17T12:59:50Z</time>
      </trkpt>
      <trkpt lat="44.9128" lon="5.63695">
        <ele>899.748</ele>
        <time>2012-06-17T13:00:04Z</time>
      </trkpt>
      <trkpt lat="44.91278" lon="5.63693">
        <ele>899.572</ele>
        <time>2012-06-17T13:00:05Z</time>
      </trkpt>
      <trkpt lat="44.91272" lon="5.63681">
        <ele>897.724</ele>
        <time>2012-06-17T13:00:09Z</time>
      </trkpt>
      <trkpt lat="44.91268" lon="5.63675">
        <ele>897.445</ele>
        <time>2012-06-17T13:00:11Z</time>
      </trkpt>
      <trkpt lat="44.91258" lon="5.63664">
        <ele>894.998</ele>
        <time>2012-06-17T13:00:16Z</time>
      </trkpt>
      <trkpt lat="44.9125" lon="5.63651">
        <ele>891.785</ele>
        <time>2012-06-17T13:00:26Z</time>
      </trkpt>
      <trkpt lat="44.91253" lon="5.63652">
        <ele>888.517</ele>
        <time>2012-06-17T13:00:39Z</time>
      </trkpt>
      <trkpt lat="44.91256" lon="5.6365">
        <ele>887.262</ele>
        <time>2012-06-17T13:00:47Z</time>
      </trkpt>
      <trkpt lat="44.91286" lon="5.63646">
        <ele>884.459</ele>
        <time>2012-06-17T13:00:57Z</time>
      </trkpt>
      <trkpt lat="44.91314" lon="5.63654">
        <ele>881.397</ele>
        <time>2012-06-17T13:01:05Z</time>
      </trkpt>
      <trkpt lat="44.91332" lon="5.63659">
        <ele>879.023</ele>
        <time>2012-06-17T13:01:11Z</time>
      </trkpt>
      <trkpt lat="44.91337" lon="5.63663">
        <ele>878.252</ele>
        <time>2012-06-17T13:01:13Z</time>
      </trkpt>
      <trkpt lat="44.9135" lon="5.63667">
        <ele>875.484</ele>
        <time>2012-06-17T13:01:21Z</time>
      </trkpt>
      <trkpt lat="44.91355" lon="5.63671">
        <ele>872.441</ele>
        <time>2012-06-17T13:01:34Z</time>
      </trkpt>
      <trkpt lat="44.91353" lon="5.63671">
        <ele>869.86</ele>
        <time>2012-06-17T13:01:50Z</time>
      </trkpt>
      <trkpt lat="44.91362" lon="5.63673">
        <ele>867.829</ele>
        <time>2012-06-17T13:02:08Z</time>
      </trkpt>
      <trkpt lat="44.91371" lon="5.63671">
        <ele>865.841</ele>
        <time>2012-06-17T13:02:21Z</time>
      </trkpt>
      <trkpt lat="44.91376" lon="5.63661">
        <ele>864.117</ele>
        <time>2012-06-17T13:02:40Z</time>
      </trkpt>
      <trkpt lat="44.9138" lon="5.63646">
        <ele>861.08</ele>
        <time>2012-06-17T13:02:56Z</time>
      </trkpt>
      <trkpt lat="44.91384" lon="5.63635">
        <ele>857.845</ele>
        <time>2012-06-17T13:03:14Z</time>
      </trkpt>
      <trkpt lat="44.91384" lon="5.63631">
        <ele>856.939</ele>
        <time>2012-06-17T13:03:21Z</time>
      </trkpt>
      <trkpt lat="44.91388" lon="5.63612">
        <ele>854.51</ele>
        <time>2012-06-17T13:03:32Z</time>
      </trkpt>
      <trkpt lat="44.91389" lon="5.63603">
        <ele>851.226</ele>
        <time>2012-06-17T13:03:45Z</time>
      </trkpt>
      <trkpt lat="44.91397" lon="5.63588">
        <ele>850.035</ele>
        <time>2012-06-17T13:03:57Z</time>
      </trkpt>
      <trkpt lat="44.91397" lon="5.63586">
        <ele>849.476</ele>
        <time>2012-06-17T13:03:58Z</time>
      </trkpt>
      <trkpt lat="44.91397" lon="5.63573">
        <ele>848.942</ele>
        <time>2012-06-17T13:04:03Z</time>
      </trkpt>
      <trkpt lat="44.914" lon="5.6351">
        <ele>846.536</ele>
        <time>2012-06-17T13:04:16Z</time>
      </trkpt>
      <trkpt lat="44.91399" lon="5.63482">
        <ele>844.292</ele>
        <time>2012-06-17T13:04:22Z</time>
      </trkpt>
      <trkpt lat="44.91378" lon="5.63439">
        <ele>841.073</ele>
        <time>2012-06-17T13:04:37Z</time>
      </trkpt>
      <trkpt lat="44.91389" lon="5.63404">
        <ele>838.201</ele>
        <time>2012-06-17T13:04:51Z</time>
      </trkpt>
      <trkpt lat="44.91413" lon="5.63345">
        <ele>836.167</ele>
        <time>2012-06-17T13:05:12Z</time>
      </trkpt>
      <trkpt lat="44.91415" lon="5.6334">
        <ele>836.173</ele>
        <time>2012-06-17T13:05:14Z</time>
      </trkpt>
      <trkpt lat="44.91406" lon="5.63325">
        <ele>835.924</ele>
        <time>2012-06-17T13:05:20Z</time>
      </trkpt>
      <trkpt lat="44.91364" lon="5.63302">
        <ele>836.345</ele>
        <time>2012-06-17T13:05:40Z</time>
      </trkpt>
      <trkpt lat="44.91319" lon="5.63278">
        <ele>837.336</ele>
        <time>2012-06-17T13:05:59Z</time>
      </trkpt>
      <trkpt lat="44.91291" lon="5.63286">
        <ele>837.955</ele>
        <time>2012-06-17T13:06:11Z</time>
      </trkpt>
      <trkpt lat="44.91254" lon="5.63327">
        <ele>838.995</ele>
        <time>2012-06-17T13:06:27Z</time>
      </trkpt>
      <trkpt lat="44.91224" lon="5.63367">
        <ele>840.742</ele>
        <time>2012-06-17T13:06:41Z</time>
      </trkpt>
      <trkpt lat="44.91224" lon="5.63407">
        <ele>842.46</ele>
        <time>2012-06-17T13:06:54Z</time>
      </trkpt>
      <trkpt lat="44.91224" lon="5.63412">
        <ele>842.421</ele>
        <time>2012-06-17T13:07:05Z</time>
      </trkpt>
      <trkpt lat="44.91224" lon="5.63411">
        <ele>839.274</ele>
        <time>2012-06-17T13:07:55Z</time>
      </trkpt>
      <trkpt lat="44.91225" lon="5.63407">
        <ele>835.815</ele>
        <time>2012-06-17T13:09:47Z</time>
      </trkpt>
      <trkpt lat="44.91225" lon="5.63407">
        <ele>839.318</ele>
        <time>2012-06-17T13:09:51Z</time>
      </trkpt>
      <trkpt lat="44.91225" lon="5.63407">
        <ele>841.801</ele>
        <time>2012-06-17T13:09:53Z</time>
      </trkpt>
      <trkpt lat="44.91225" lon="5.63407">
        <ele>844.127</ele>
        <time>2012-06-17T13:09:55Z</time>
      </trkpt>
      <trkpt lat="44.91224" lon="5.63407">
        <ele>842.884</ele>
        <time>2012-06-17T13:09:57Z</time>
      </trkpt>
      <trkpt lat="44.91224" lon="5.63407">
        <ele>852.514</ele>
        <time>2012-06-17T13:10:00Z</time>
      </trkpt>
      <trkpt lat="44.91224" lon="5.63407">
        <ele>853.204</ele>
        <time>2012-06-17T13:10:02Z</time>
      </trkpt>
      <trkpt lat="44.91224" lon="5.63408">
        <ele>856.451</ele>
        <time>2012-06-17T13:10:26Z</time>
      </trkpt>
      <trkpt lat="44.91224" lon="5.63408">
        <ele>855.083</ele>
        <time>2012-06-17T13:10:27Z</time>
      </trkpt>
    </trkseg>
  </trk>
</gpx>